GFSCGP_sfc_dewp_000.txt.gz
Dewpoint
19 15 14 19 24 25 27 30 31 32 42 45 43 43 45 54 53 53 56 58 58 58 60 63 65 66 67 69 71 73 73 74 74 74 69 69 68 69 71 69 74 74 73 74
15 12 14 16 21 24 27 28 30 33 42 43 40 42 45 48 54 53 54 56 59 58 59 63 65 65 66 69 71 73 74 75 75 71 73 71 73 68 70 70 73 73 73 74
16 9 11 14 16 23 27 28 30 33 42 43 40 42 42 44 51 54 53 54 57 59 59 61 63 65 65 68 71 73 75 75 76 75 73 73 74 74 70 71 72 74 74 75
12 9 10 13 17 22 25 26 29 32 37 36 41 33 37 40 47 52 54 54 53 58 60 61 62 64 65 67 70 73 75 76 76 77 74 76 70 67 66 68 67 71 74 74
17 10 12 12 13 18 25 25 28 30 34 36 38 37 36 40 40 46 51 53 53 54 58 60 61 63 65 66 68 71 75 77 77 77 77 73 74 68 67 67 72 74 74 74
18 15 10 11 10 16 23 26 29 30 29 31 35 34 31 32 40 38 45 51 53 52 54 59 61 62 64 65 67 69 74 77 77 76 76 76 74 73 67 70 68 66 66 70
19 15 10 7 13 14 21 26 27 27 26 27 34 33 34 31 31 35 32 43 52 53 53 56 59 61 63 65 67 68 73 75 76 76 75 76 76 75 74 72 69 67 64 64
19 14 15 12 10 17 20 23 24 28 22 24 31 30 30 33 33 32 33 39 49 52 51 54 58 60 63 64 66 68 71 74 75 75 77 78 77 73 72 73 68 66 64 63
18 18 14 11 12 12 21 22 23 23 24 20 21 30 30 31 34 35 37 42 45 51 52 52 56 59 62 64 67 70 73 74 74 73 75 76 77 76 72 74 73 69 70 63
24 22 18 15 13 13 15 22 22 23 29 26 23 26 27 33 31 29 35 42 45 51 52 51 54 57 60 63 65 68 70 73 73 73 73 74 75 76 75 74 74 72 71 70
24 24 19 19 15 12 15 17 24 23 24 23 23 23 29 33 34 32 29 42 43 48 53 53 52 55 59 61 63 66 69 71 72 72 74 74 73 73 75 74 75 74 73 70
27 24 23 13 12 10 13 20 24 22 31 25 24 20 24 28 29 29 29 29 32 47 52 54 54 55 57 60 61 63 66 68 70 72 74 73 73 73 73 74 74 73 72 69
26 25 24 22 10 12 11 14 20 23 25 33 24 23 25 28 30 32 40 40 42 51 53 56 56 58 58 59 63 62 65 65 67 70 71 72 72 72 73 74 72 72 69 69
40 23 26 19 23 15 16 11 13 16 21 25 23 26 27 27 31 30 34 42 45 53 56 58 58 60 61 63 67 67 64 65 66 67 69 71 72 72 73 72 69 67 67 67
40 37 30 24 20 18 16 11 11 14 18 23 24 24 28 31 30 30 29 35 45 53 56 58 59 65 68 68 68 68 66 67 67 68 68 71 73 73 72 70 67 66 66 67
32 37 36 31 25 23 19 18 13 11 13 16 18 22 24 28 30 30 30 31 45 53 55 58 61 63 65 66 67 68 68 68 69 70 70 72 75 73 70 70 69 69 68 66
36 36 39 33 29 27 25 24 19 16 13 16 17 22 23 25 29 33 33 41 45 52 55 58 60 62 65 66 68 68 69 69 70 71 72 73 74 71 70 69 69 68 67 67
40 44 39 33 36 30 25 26 23 19 15 17 23 26 26 30 35 40 42 39 45 52 54 58 57 61 65 64 64 67 68 70 71 72 72 73 73 70 70 69 69 68 65 65
38 40 36 32 31 32 31 33 25 23 21 18 25 29 29 32 41 48 49 49 50 53 56 58 58 62 65 63 65 66 67 69 70 71 72 72 71 69 69 69 68 68 66 65
37 42 37 36 32 31 41 45 47 46 34 26 24 31 31 39 36 30 52 48 49 53 56 58 59 62 62 63 63 65 66 68 69 71 71 71 70 70 69 69 69 69 68 66
39 40 33 34 35 36 47 46 47 40 34 29 39 42 43 43 46 54 54 54 55 58 60 60 60 60 63 63 64 65 66 67 69 71 71 70 71 71 71 70 69 68 67 67
40 38 33 37 38 35 48 45 46 51 52 50 50 50 50 54 55 56 57 58 59 58 57 57 60 64 65 65 66 67 68 70 71 72 70 71 70 69 69 70 69 68 68 67
36 37 35 39 36 50 49 51 52 52 52 51 52 52 52 52 53 54 55 55 55 55 55 56 61 65 67 69 68 69 73 73 72 71 70 70 70 69 69 69 67 66 66 63
43 44 42 46 47 49 50 50 50 50 49 50 51 49 50 51 51 53 54 56 59 60 60 59 61 64 68 70 70 72 72 72 72 71 70 70 70 69 69 67 67 67 66 64
45 47 46 46 50 47 49 49 49 48 50 51 51 51 52 55 57 60 61 61 61 62 62 62 63 66 68 70 70 70 70 71 70 70 69 69 68 67 68 65 60 65 62 58
49 50 45 42 51 52 48 47 46 46 46 48 49 49 50 52 54 58 60 62 64 64 65 65 66 68 69 69 70 70 70 70 69 67 66 65 65 66 66 63 61 45 45 46

GFSCGP_sfc_dewp_003.txt.gz
Dewpoint
19 13 13 18 23 25 26 27 26 29 31 36 38 38 42 46 47 46 46 48 52 54 57 59 61 62 63 65 68 71 73 76 73 71 73 71 69 70 69 68 74 75 74 74
15 13 14 19 22 23 24 26 28 29 31 34 36 38 39 48 48 47 47 47 49 52 54 59 61 62 62 66 69 73 74 77 76 72 74 72 72 68 66 67 72 73 75 74
12 9 11 16 21 23 24 25 27 27 37 38 36 38 38 41 48 49 47 48 48 50 51 57 60 62 63 66 70 73 77 78 77 77 74 75 74 71 71 68 70 72 73 73
15 9 9 12 18 20 22 24 26 27 34 35 33 31 38 37 41 48 49 48 48 50 52 55 59 62 62 65 69 74 77 78 78 78 74 76 70 67 64 66 66 70 74 73
13 11 11 13 14 19 21 23 27 28 31 41 31 30 36 36 37 42 47 49 48 49 51 54 58 61 62 64 66 71 77 79 79 78 77 72 73 66 65 63 74 73 76 72
15 12 8 10 11 17 20 23 26 26 27 28 32 32 35 36 37 38 42 48 50 50 50 55 57 60 62 63 65 69 77 79 79 78 77 77 77 73 66 67 68 67 66 69
17 14 11 7 11 15 19 21 22 24 23 23 29 32 42 37 34 36 36 39 47 51 51 53 58 59 62 65 67 69 76 79 79 77 77 77 77 77 75 73 69 69 63 64
16 14 15 11 11 13 18 19 20 27 23 23 28 28 30 34 33 31 33 32 40 49 51 50 56 60 64 65 69 70 74 78 79 77 78 79 79 72 70 73 69 66 64 64
16 18 14 13 10 10 15 18 20 21 24 22 23 27 29 33 34 32 32 31 32 45 50 51 53 58 62 64 68 70 74 76 77 74 79 79 78 77 72 76 75 69 73 65
20 20 16 11 11 9 9 15 18 22 28 25 22 26 25 33 32 31 33 31 34 39 50 51 52 55 60 61 65 69 72 75 75 75 76 76 76 78 77 77 76 74 73 71
16 21 20 18 14 13 9 10 19 20 22 22 22 24 28 34 36 33 32 31 32 40 48 51 51 53 57 59 62 66 69 73 74 75 75 76 75 75 76 75 75 75 74 74
21 20 22 19 16 13 11 13 14 21 31 23 24 22 26 28 29 31 32 31 33 40 46 50 51 52 54 59 59 61 64 66 71 74 76 76 76 75 75 76 76 76 75 74
22 21 22 23 18 16 15 13 12 14 23 33 24 23 26 27 29 32 31 32 34 40 44 49 50 52 54 56 60 58 62 62 65 72 72 74 74 75 75 76 76 76 76 74
38 24 26 20 24 17 16 13 11 11 16 23 22 26 29 29 31 31 33 33 36 38 50 49 51 55 56 59 62 62 61 60 62 66 68 73 75 75 74 76 76 75 75 73
28 30 27 23 22 20 14 8 8 11 16 19 22 24 28 32 32 31 30 33 34 36 47 53 54 61 63 63 65 65 63 65 64 69 69 73 76 75 75 76 77 75 73 71
28 33 32 25 21 19 18 16 10 10 10 14 17 20 24 28 33 31 31 33 33 34 36 52 57 59 65 65 67 67 67 67 68 72 71 74 77 76 76 76 75 73 72 70
34 34 37 33 29 28 24 21 20 19 16 13 14 20 22 26 31 34 32 32 35 39 40 47 56 60 63 64 68 68 70 69 71 74 74 76 78 76 75 74 74 72 71 70
33 36 33 30 34 29 28 32 26 23 22 20 20 20 22 30 35 35 31 32 37 40 41 44 52 59 65 62 63 67 68 73 74 75 75 76 77 75 73 72 72 72 71 70
35 36 33 32 31 38 34 39 38 40 35 27 25 23 19 24 25 34 33 32 36 37 40 46 55 59 68 66 69 70 70 72 73 73 75 76 76 74 72 71 71 71 71 71
30 38 36 36 32 30 31 42 43 40 34 31 30 29 20 23 26 29 34 40 45 46 43 51 57 61 65 68 66 69 68 70 72 73 74 76 75 74 71 71 71 72 72 70
25 31 30 32 33 31 44 43 43 36 38 51 49 47 40 25 32 51 52 49 50 49 56 60 61 66 68 68 66 69 69 69 70 71 72 74 73 72 71 72 72 71 71 69
26 30 29 32 32 30 45 42 40 51 51 51 51 50 50 33 47 53 54 54 54 54 58 59 63 65 66 68 69 70 71 72 74 73 73 72 72 70 70 72 70 70 70 69
28 31 30 31 34 51 50 50 51 51 51 51 51 49 49 51 53 55 57 59 59 59 60 59 60 65 66 70 70 72 75 75 74 74 73 72 72 72 72 71 70 69 69 65
40 37 35 40 48 49 49 50 49 49 49 50 51 52 52 54 54 54 54 54 54 56 59 60 62 65 68 70 69 72 73 74 74 72 71 71 71 70 71 69 68 66 65 64
50 46 42 47 50 49 49 50 50 50 50 50 54 54 57 56 56 58 60 61 59 59 60 61 64 66 68 70 72 71 72 73 71 71 70 72 70 70 69 66 64 68 68 65
49 50 48 42 50 50 48 47 47 47 47 48 49 51 54 56 58 60 61 61 61 62 63 64 65 67 69 70 70 71 72 72 71 70 70 69 68 69 68 63 59 47 48 47

GFSCGP_sfc_dewp_006.txt.gz
Dewpoint
25 20 19 21 21 22 21 25 24 27 35 31 38 51 53 49 45 41 45 46 50 52 55 58 59 61 62 67 70 72 73 76 76 75 73 73 72 75 73 73 74 75 77 77
17 16 15 19 22 22 23 24 26 27 34 34 33 47 49 50 45 44 42 44 46 48 52 57 60 60 62 66 69 73 73 76 76 75 75 74 73 71 72 73 75 76 75 77
17 13 12 15 20 21 22 23 25 25 30 32 31 33 41 44 43 43 44 44 45 48 49 57 59 60 62 66 70 72 75 75 76 76 75 77 77 75 73 74 74 75 76 77
17 16 9 10 16 21 21 22 23 23 31 31 34 30 43 41 45 44 44 44 44 47 51 54 59 62 62 65 69 73 75 76 76 76 75 74 71 71 72 74 72 74 76 76
13 15 11 9 12 18 22 23 23 23 26 35 37 34 38 42 42 45 45 45 45 48 48 51 58 61 63 65 69 72 75 76 77 77 76 74 74 71 71 70 77 76 77 76
17 12 12 8 7 13 19 21 22 22 24 26 31 33 33 37 41 40 45 46 47 48 49 52 57 61 63 64 68 70 75 77 77 77 76 76 73 73 70 73 73 73 73 74
17 15 10 10 9 10 13 17 21 21 22 23 28 33 39 40 41 40 47 48 48 50 50 52 56 60 63 65 67 70 74 76 77 77 76 76 76 75 76 77 73 73 70 71
16 13 13 11 9 11 12 14 20 24 22 22 28 26 32 40 41 43 45 49 46 49 49 51 56 59 64 65 67 70 73 75 77 76 77 77 76 74 74 75 72 72 70 71
13 15 15 12 11 8 12 13 15 19 21 21 23 26 27 32 39 41 37 37 38 47 50 52 56 59 63 65 67 70 73 75 77 76 77 77 77 75 74 75 75 73 74 72
18 18 14 14 12 12 8 13 11 16 24 25 23 29 29 35 38 41 42 40 36 39 50 52 53 59 62 64 66 69 72 75 77 77 77 76 77 76 75 75 75 73 73 73
15 19 17 18 17 14 10 10 12 14 19 22 25 26 33 41 43 41 39 37 35 38 49 49 53 56 62 64 65 67 70 74 75 76 76 76 76 76 76 76 76 74 75 73
19 17 20 16 16 14 13 14 13 14 27 21 23 24 26 39 38 35 37 36 38 40 44 49 53 55 59 62 63 66 68 71 74 75 76 76 76 77 76 75 76 75 76 74
19 20 22 18 17 18 14 12 12 11 17 28 23 23 28 36 40 41 38 38 44 48 51 50 51 55 57 59 62 64 67 68 72 74 74 75 75 75 76 76 75 75 75 74
34 20 27 18 23 20 21 15 15 13 12 19 19 28 30 36 37 38 41 42 42 52 57 52 52 57 56 60 63 64 66 67 69 72 72 73 74 75 74 75 76 75 75 74
23 29 26 20 19 19 19 15 14 17 20 20 19 22 32 34 39 38 38 43 45 49 54 56 58 61 61 62 64 64 64 65 66 70 72 73 75 75 75 75 75 75 76 75
20 30 29 26 21 20 20 19 14 13 16 18 18 20 23 30 33 43 39 42 43 45 46 56 59 63 66 63 64 63 63 64 66 69 70 72 74 75 75 75 76 76 76 75
29 25 33 29 24 23 22 23 20 18 13 15 17 23 28 28 35 39 46 42 43 44 46 53 60 61 63 64 64 63 64 65 66 69 71 72 74 75 75 75 76 76 76 75
33 34 32 30 32 26 24 23 20 20 21 17 20 25 27 31 33 35 35 39 43 45 44 47 40 60 65 63 62 64 65 68 68 73 72 73 75 75 75 75 75 76 74 73
30 36 32 32 31 31 28 28 29 27 28 29 26 31 24 27 28 33 32 34 39 39 50 48 41 50 66 65 66 68 67 67 72 71 74 74 77 76 76 75 75 74 73 72
29 45 34 34 30 31 36 39 40 38 35 44 45 44 41 36 25 27 37 36 34 33 38 54 54 55 66 68 66 68 69 69 69 72 74 77 77 77 75 74 73 72 72 72
30 35 32 33 31 29 42 41 40 37 39 49 48 48 47 45 48 53 54 59 57 43 48 58 65 65 69 69 68 69 70 71 71 75 75 77 77 76 74 72 72 72 72 73
30 27 29 36 37 36 42 45 41 49 49 48 48 48 49 52 51 50 50 55 57 57 54 60 69 71 72 71 72 73 73 75 76 76 76 77 75 72 71 72 72 72 71 69
26 28 28 32 33 45 49 52 51 49 50 52 54 50 48 47 48 52 54 56 58 57 62 62 68 72 73 75 73 73 75 75 75 75 76 75 73 71 71 72 70 69 70 68
32 44 32 36 40 46 48 47 48 50 55 56 58 59 60 55 53 54 56 58 62 63 65 66 67 69 71 73 73 75 75 75 75 75 73 72 71 72 73 72 70 68 68 67
50 49 49 40 52 51 51 50 51 52 53 54 55 55 57 60 61 61 63 64 64 66 68 69 70 71 72 75 74 74 75 75 73 72 71 70 70 70 70 63 62 67 59 60
49 50 50 52 52 52 52 51 49 48 48 49 51 52 57 58 59 61 63 64 63 65 66 67 70 71 71 73 73 74 75 74 72 70 70 70 70 69 66 61 57 46 47 45

GFSCGP_sfc_dewp_009.txt.gz
Dewpoint
22 22 20 19 16 18 20 20 20 23 32 34 43 45 46 41 44 45 49 50 52 53 55 59 60 61 64 68 68 68 69 72 72 72 72 72 72 72 71 71 73 72 73 74
19 20 22 22 21 17 19 20 21 23 32 33 45 44 43 40 39 42 45 50 51 52 53 58 59 60 62 66 68 69 68 73 72 73 72 71 71 71 71 71 72 72 74 73
18 22 23 20 20 21 19 20 21 23 29 34 43 45 46 42 44 45 46 47 51 51 53 55 57 59 61 65 69 69 69 72 73 73 72 74 73 72 71 71 73 73 73 74
19 21 18 17 14 17 20 22 22 22 23 28 37 36 46 44 51 51 49 44 47 51 52 55 57 58 60 65 67 70 70 72 72 73 72 71 70 68 70 71 70 72 74 74
14 20 19 16 10 12 20 23 22 22 22 33 33 32 37 45 47 49 48 43 44 47 50 54 57 58 60 63 67 71 71 71 72 72 72 71 70 69 70 71 69 73 74 73
19 19 13 16 16 10 13 20 22 22 22 21 31 31 35 39 46 49 46 45 44 45 48 54 57 59 59 64 67 70 72 72 73 72 73 72 71 70 68 69 72 72 72 72
12 14 18 13 13 12 9 12 16 18 20 20 23 31 36 37 40 42 44 44 46 45 47 49 56 59 60 63 66 70 72 72 73 73 72 73 71 70 70 70 71 71 70 72
13 11 15 17 12 11 9 9 12 17 19 20 23 23 28 37 42 43 46 46 46 47 46 49 56 58 60 62 66 69 72 72 73 74 74 72 73 69 69 71 71 70 70 70
11 13 19 16 15 11 11 8 9 12 20 22 21 22 25 37 38 40 42 45 45 45 47 49 53 57 60 62 67 68 72 72 73 74 74 73 73 72 71 72 73 71 68 70
17 20 18 17 15 13 8 13 9 8 10 16 18 22 26 31 38 42 43 43 43 45 47 49 52 57 60 62 65 68 71 73 74 73 75 74 73 71 71 72 72 71 69 70
14 15 15 19 15 11 12 7 8 10 11 13 19 21 26 31 41 42 41 41 41 45 46 49 52 56 60 62 65 67 70 72 74 74 74 74 74 73 72 73 72 71 71 70
16 14 14 14 17 15 12 13 9 14 12 18 14 16 27 23 40 41 40 42 38 44 46 49 51 55 60 62 63 66 71 72 73 74 74 74 74 74 73 72 72 73 71 70
20 15 16 18 16 15 13 12 13 7 15 16 22 17 19 19 32 34 36 41 41 44 50 51 51 56 60 61 62 65 68 72 73 74 74 74 74 74 74 72 74 74 70 71
38 18 16 16 19 19 21 15 13 10 8 9 10 11 19 26 36 38 38 38 40 42 51 51 52 56 58 61 62 63 67 70 73 74 74 73 73 74 74 74 72 74 73 72
22 18 18 19 20 18 14 18 14 13 10 11 11 11 16 20 38 41 39 43 42 44 52 52 53 54 58 60 62 63 65 67 71 72 73 72 73 73 74 74 74 72 73 73
28 26 29 27 22 18 16 18 20 12 12 14 14 15 23 23 24 43 40 37 34 47 54 54 55 54 56 58 61 62 64 66 68 71 72 72 72 73 73 74 74 74 72 73
28 30 31 22 26 25 20 17 19 22 16 15 15 15 21 23 27 37 40 41 32 40 49 52 54 61 56 58 60 62 64 65 66 69 71 71 71 72 72 73 73 74 73 74
27 27 31 23 29 26 27 27 25 24 27 21 21 24 29 29 33 37 34 33 33 37 44 51 54 58 64 59 60 61 63 65 66 67 69 70 71 71 73 73 73 74 74 74
27 27 30 26 26 27 29 28 28 25 25 35 44 45 40 39 33 30 35 38 31 35 35 43 50 57 61 62 61 60 61 63 64 65 67 69 70 72 73 73 73 74 74 72
25 34 34 27 25 24 29 36 40 38 37 49 49 49 47 46 40 36 50 51 45 42 39 38 49 50 62 62 61 61 61 62 62 63 66 69 70 72 74 73 74 73 72 71
31 33 31 34 25 32 43 45 42 36 43 49 48 48 49 47 50 51 51 54 55 54 51 43 49 54 62 64 62 61 61 61 64 63 71 73 74 74 74 73 71 71 70 71
35 37 31 36 34 32 48 45 42 51 52 55 56 56 50 50 51 50 52 51 55 61 52 67 61 64 68 67 66 65 62 65 72 73 76 76 74 73 72 70 70 70 70 69
35 41 39 33 39 50 51 49 54 55 57 58 59 60 60 60 61 61 57 57 57 62 66 68 70 72 73 71 69 71 74 74 74 76 75 72 72 71 70 70 69 69 67 66
40 48 39 44 37 46 50 49 59 59 57 55 58 59 58 58 59 60 61 64 65 65 67 69 70 70 71 73 73 73 73 74 75 74 72 70 70 70 70 69 68 68 68 67
49 48 48 48 50 52 55 57 55 56 55 54 55 56 57 56 57 58 58 60 63 67 69 70 70 72 72 72 73 73 73 74 72 71 70 70 70 70 61 55 57 62 54 61
48 49 47 48 52 52 52 51 52 52 51 51 51 55 56 56 56 57 57 58 60 61 64 69 70 71 72 73 73 73 72 71 70 69 69 69 69 62 59 57 53 45 46 45

GFSCGP_sfc_dewp_012.txt.gz
Dewpoint
23 21 23 22 21 19 19 19 20 20 24 38 38 38 41 51 55 56 56 57 57 57 59 60 60 62 63 67 69 69 69 69 70 71 71 71 70 71 71 71 70 71 71 72
21 19 22 23 21 18 17 17 17 20 23 35 40 38 41 46 49 53 54 55 56 57 57 59 59 62 63 67 68 69 69 69 69 70 70 71 71 71 71 71 71 71 71 72
18 20 21 23 22 19 16 15 16 20 22 35 42 42 42 43 45 48 51 52 55 56 56 58 59 60 63 66 67 67 70 70 70 70 71 71 71 71 71 71 71 72 72 72
22 20 20 20 21 20 19 19 17 19 22 22 40 34 45 44 44 44 48 50 51 53 55 57 59 59 62 65 67 67 69 71 71 72 71 70 69 69 69 70 71 72 72 72
20 19 18 21 21 21 18 20 22 21 22 24 28 35 39 45 43 48 46 47 50 51 53 54 58 59 60 63 66 67 67 72 72 72 71 70 69 69 69 70 70 71 73 73
20 19 20 20 20 20 18 16 21 23 22 22 30 34 33 44 42 44 45 47 48 51 52 54 57 58 60 62 65 67 67 68 72 72 71 71 69 69 68 69 69 71 73 72
23 22 19 16 16 18 14 10 11 15 17 19 21 30 32 40 44 44 44 46 47 49 51 53 55 57 58 60 64 67 68 67 69 72 71 71 70 69 69 68 70 71 71 71
17 16 15 16 16 13 13 10 9 10 16 18 22 23 28 38 43 46 45 45 48 45 49 52 54 57 57 60 64 67 69 68 69 70 71 71 71 70 70 69 71 70 70 70
12 12 17 13 13 17 15 9 9 11 27 19 20 22 25 29 39 44 46 47 46 45 46 49 54 56 58 60 64 67 69 69 70 71 70 71 72 71 70 71 71 71 70 70
11 13 14 12 13 14 13 13 13 9 7 9 14 20 22 25 29 40 42 45 46 45 45 47 50 55 58 59 64 67 69 69 71 72 71 71 71 72 70 71 71 71 70 70
10 15 14 15 13 15 15 11 10 9 8 7 12 12 20 25 30 36 43 45 45 46 47 46 48 55 58 60 64 67 69 69 70 72 71 72 71 71 71 71 71 72 69 69
12 9 12 14 15 17 16 13 9 8 9 11 8 10 23 24 26 38 42 43 47 47 47 48 49 53 57 60 64 66 69 69 70 72 72 72 72 72 71 71 71 71 70 69
29 17 14 12 13 16 15 13 10 11 10 8 13 12 19 19 20 38 42 42 45 42 46 47 50 53 56 60 62 66 68 70 71 71 72 73 72 73 72 70 71 71 71 69
33 23 14 13 13 15 15 15 13 9 8 9 11 16 16 22 29 32 40 43 42 44 44 45 50 53 57 60 62 65 67 70 71 72 72 72 73 73 73 72 71 71 72 70
31 25 22 24 19 15 15 16 15 11 9 8 9 10 12 15 20 21 27 40 40 40 48 46 50 53 58 61 62 64 67 69 71 71 72 72 73 73 74 73 72 71 73 71
31 26 27 27 24 16 15 18 17 17 13 11 11 10 13 14 20 28 33 39 40 41 48 50 50 54 58 60 62 63 66 70 71 71 72 72 73 73 73 74 73 72 73 73
30 27 25 25 25 18 18 17 17 16 17 15 12 13 19 20 24 26 27 31 38 43 50 52 51 55 56 60 61 62 65 68 71 71 72 73 73 73 73 73 74 73 72 72
29 28 26 26 27 20 22 21 20 19 22 21 15 18 20 20 20 29 34 33 37 36 44 51 53 53 57 59 61 62 64 66 69 70 71 73 73 72 73 73 73 74 73 73
28 29 26 27 27 24 27 29 24 20 23 38 27 32 26 27 28 31 37 33 33 38 40 43 52 57 57 58 61 62 63 65 66 68 70 71 72 72 73 72 73 73 74 73
34 27 26 27 26 24 24 36 38 35 43 48 49 46 42 37 26 35 47 51 37 37 37 40 42 55 61 57 59 61 62 64 65 66 68 71 71 71 71 72 73 74 74 74
37 38 28 29 31 29 44 46 41 32 35 48 49 48 46 46 44 46 50 52 53 51 45 41 40 44 56 62 59 59 61 62 64 65 66 69 71 71 72 73 74 74 73 72
38 39 39 34 37 36 38 44 36 44 57 58 59 58 59 60 61 59 56 53 53 50 51 61 46 47 50 59 60 59 60 62 63 65 65 67 70 71 74 73 73 73 71 71
39 41 39 36 42 42 42 51 57 57 56 58 59 59 60 60 59 61 62 65 65 66 66 68 67 63 69 63 61 60 60 61 63 64 67 69 71 73 73 72 71 70 70 69
44 47 40 42 44 49 56 58 56 56 57 57 57 57 58 57 58 58 59 61 61 62 62 62 64 69 69 70 67 62 63 64 66 71 73 73 72 71 71 71 70 69 68 67
45 47 46 44 47 50 52 56 56 54 54 55 56 57 57 56 57 57 57 58 59 60 60 60 58 58 57 70 73 73 72 73 73 72 72 71 70 70 65 58 64 67 64 65
47 47 47 47 50 51 50 55 56 53 52 52 53 54 56 57 57 57 56 57 58 59 59 57 56 56 57 58 65 73 74 73 71 70 70 69 64 62 60 59 55 47 46 47

GFSCGP_sfc_dewp_015.txt.gz
Dewpoint
27 27 24 22 22 21 21 20 19 21 25 37 38 41 55 57 58 59 60 60 61 61 62 63 63 63 64 66 67 68 68 69 70 70 70 70 70 69 70 71 71 72 72 73
22 22 26 25 24 21 20 18 18 18 22 27 35 38 54 56 56 58 59 60 61 61 62 62 63 63 62 65 67 68 68 69 70 70 70 70 70 70 70 71 70 71 72 72
20 20 23 24 23 20 19 18 18 17 22 27 39 41 44 55 56 56 57 58 59 59 61 62 61 61 62 65 67 69 69 69 69 69 70 70 70 70 70 70 70 71 71 71
20 20 21 21 21 22 19 20 18 17 20 18 38 34 42 46 54 54 56 57 57 57 58 60 61 60 61 64 67 69 69 69 69 69 69 69 68 67 69 70 70 71 71 71
21 21 19 19 19 22 21 22 21 24 20 21 24 31 34 43 45 48 52 54 56 57 57 58 59 60 61 63 66 68 69 69 69 69 69 68 67 68 69 70 70 70 72 72
21 23 21 20 21 20 24 22 17 22 21 19 20 24 24 42 41 43 46 50 52 54 56 57 58 59 61 63 66 67 68 69 69 69 69 69 68 68 68 68 69 69 71 72
22 22 19 20 20 22 20 15 15 11 16 15 18 26 23 34 44 43 44 46 50 51 53 55 56 58 59 62 65 67 67 69 70 70 70 69 69 69 68 68 69 69 70 70
21 19 22 19 19 18 18 16 15 10 15 15 20 21 24 33 39 44 43 45 46 49 51 53 54 56 59 60 64 66 66 67 70 71 70 70 69 69 69 68 68 69 70 71
19 20 19 22 18 18 15 15 15 10 22 14 19 21 24 28 32 41 43 43 45 47 50 51 53 54 57 60 62 65 66 66 68 70 70 70 70 70 69 69 69 69 70 71
15 13 14 16 19 18 16 15 15 10 10 11 13 17 18 25 26 38 44 44 45 47 47 50 52 53 56 58 60 64 66 66 66 69 70 70 70 70 70 70 69 69 70 70
18 12 13 14 13 14 14 14 12 12 10 9 9 11 18 25 28 31 40 45 46 47 47 47 50 52 54 57 59 63 66 66 66 67 68 69 70 70 70 69 70 70 70 70
32 15 12 12 16 13 13 12 12 11 10 10 9 11 20 22 25 29 31 40 43 47 48 47 47 50 54 57 58 63 65 66 66 67 69 69 69 70 71 70 70 70 70 70
35 26 12 10 18 16 13 15 13 12 11 12 10 11 16 21 24 26 33 39 41 46 47 47 46 48 53 57 58 62 65 66 67 68 69 69 70 70 70 71 70 71 70 69
33 27 22 16 14 18 15 15 15 12 12 12 11 11 17 18 20 20 29 35 43 47 47 47 49 49 54 57 59 62 65 66 67 68 69 69 70 71 70 70 70 70 71 70
31 27 26 27 26 25 22 16 14 13 13 12 12 10 11 19 21 21 22 28 42 43 45 46 48 50 54 56 59 63 64 67 67 68 69 69 70 71 71 71 70 70 71 70
31 28 27 25 25 25 23 18 17 14 14 13 12 12 15 16 20 19 18 24 31 39 41 43 45 47 52 55 59 61 65 66 68 68 69 70 71 72 72 72 71 70 70 71
29 28 27 24 25 25 21 19 18 15 16 14 12 13 15 14 16 17 18 26 31 31 38 43 47 47 52 56 59 61 64 66 69 69 69 70 70 72 72 72 72 71 70 71
29 29 28 25 27 22 21 25 19 18 19 19 16 18 21 18 17 21 23 24 29 34 40 47 48 48 52 57 59 60 63 66 68 69 69 70 71 71 72 73 72 72 71 72
32 29 27 24 26 27 25 30 28 18 19 28 20 21 21 23 25 24 30 33 32 35 38 46 52 52 54 57 60 61 62 65 68 69 69 70 71 72 72 72 73 73 72 72
30 30 27 26 25 24 29 40 45 42 19 47 39 28 24 26 20 22 42 45 36 33 36 44 53 55 55 57 59 61 62 64 67 69 69 70 72 72 72 72 72 74 74 73
29 35 31 27 26 30 41 52 48 32 24 47 47 46 38 28 27 35 48 49 53 45 47 44 41 53 56 57 60 61 61 62 65 68 69 70 71 72 72 73 73 74 74 73
33 34 36 30 32 32 51 51 49 52 56 56 55 57 57 58 60 62 63 64 64 64 65 68 67 63 58 54 58 60 61 63 64 65 67 69 70 72 72 73 73 74 73 72
33 38 39 35 38 44 49 51 57 56 56 58 57 59 59 59 60 60 60 61 60 59 58 58 58 61 61 68 64 59 59 62 63 64 65 66 69 72 72 73 73 73 73 72
38 45 41 41 42 49 52 53 55 56 55 56 57 57 58 58 58 58 58 58 58 58 56 55 53 53 53 58 62 64 67 62 62 63 64 66 69 70 72 73 73 73 72 71
38 43 40 44 46 50 53 53 55 55 53 54 56 57 57 56 56 55 55 56 57 57 57 56 55 55 54 57 58 58 57 60 62 64 66 68 70 72 70 62 69 72 68 68
44 44 42 40 49 49 51 54 53 52 53 51 55 55 56 56 55 55 56 56 57 58 58 58 58 56 55 58 63 62 60 60 66 69 71 71 71 63 61 60 57 50 54 55

GFSCGP_sfc_dewp_018.txt.gz
Dewpoint
29 27 24 23 22 23 24 21 21 24 23 31 38 44 56 57 58 58 59 60 61 61 63 64 64 65 66 68 68 69 69 70 70 70 70 71 70 70 71 71 72 72 72 73
24 26 28 25 23 22 21 20 20 22 21 22 23 30 54 57 57 58 59 60 61 61 62 63 64 64 65 66 67 68 69 70 71 70 70 71 71 70 70 72 72 72 73 73
23 23 29 27 24 22 21 20 20 20 23 23 34 36 42 55 57 58 59 59 60 61 61 62 63 63 63 65 66 67 69 69 71 71 71 70 71 71 70 70 71 71 72 73
22 22 24 24 24 23 21 21 20 18 18 16 35 27 41 51 56 56 58 59 59 61 62 62 63 63 63 64 66 68 69 69 70 71 70 70 69 68 69 70 70 71 72 72
22 21 21 21 21 23 22 21 20 20 18 20 26 22 28 49 54 55 56 57 59 60 61 62 62 63 63 63 65 67 69 69 70 70 70 69 69 69 69 70 70 71 72 72
23 23 21 20 21 22 23 21 18 23 21 18 19 21 23 41 50 54 55 56 57 58 59 61 62 63 63 64 64 66 69 69 70 70 70 69 69 68 68 69 69 70 71 72
23 23 21 21 19 21 21 19 18 15 16 16 19 22 21 32 43 46 52 54 56 57 58 58 59 61 63 62 64 66 68 69 70 69 69 69 69 69 69 69 69 70 70 72
20 19 21 20 19 19 20 18 18 14 13 15 21 18 22 26 39 43 44 48 51 54 56 58 58 59 61 62 63 66 68 68 69 69 69 70 70 69 69 69 69 69 70 71
21 21 22 21 20 20 19 18 17 13 24 13 18 22 25 30 29 41 43 44 45 49 53 55 58 59 60 61 63 65 67 68 69 69 69 70 70 70 69 70 70 69 71 71
19 20 18 22 20 20 16 18 15 14 14 13 16 17 21 28 29 33 42 45 45 46 49 52 54 56 58 60 62 65 66 67 68 69 70 69 70 70 70 70 70 70 70 72
29 14 15 16 19 19 16 15 14 15 15 13 12 14 21 25 30 29 31 43 45 46 47 48 52 54 56 58 61 63 65 66 67 69 70 70 70 70 70 70 70 70 70 71
35 22 16 16 15 19 19 17 14 14 14 12 14 13 22 22 23 30 31 39 46 48 49 49 50 52 54 56 58 61 64 65 66 67 70 70 70 71 70 70 70 71 70 71
33 25 15 11 17 17 13 17 16 14 15 14 12 14 17 22 25 27 31 34 41 47 50 51 50 50 53 55 57 60 62 64 65 66 68 69 70 70 70 70 70 71 71 71
33 27 21 18 20 25 22 18 14 14 14 14 14 15 20 23 24 26 29 34 38 42 46 48 50 50 52 55 58 60 61 63 65 65 66 68 69 69 70 71 71 70 71 71
30 25 26 27 27 26 25 23 23 15 14 13 14 15 19 22 24 25 25 30 35 38 44 50 51 51 54 57 59 60 61 64 65 66 66 67 69 69 70 71 71 71 71 71
30 26 28 26 25 25 25 25 25 22 19 17 15 16 19 21 25 27 28 29 32 36 43 49 52 53 55 57 59 60 62 64 66 67 67 68 69 70 70 70 71 71 71 71
28 29 26 23 26 25 22 19 20 20 19 17 16 19 20 20 23 25 24 27 29 32 40 47 50 52 53 55 59 60 62 65 66 67 68 69 70 70 71 71 71 71 71 71
27 29 28 25 26 20 21 28 31 22 19 20 20 22 23 22 23 24 24 24 27 30 37 42 44 49 51 53 55 60 63 66 67 67 68 69 70 70 71 72 71 71 71 71
30 28 26 25 24 23 23 38 43 41 37 27 21 23 25 23 25 27 29 29 29 31 35 39 45 49 53 54 57 61 63 66 67 68 68 69 70 70 71 71 72 72 71 71
31 29 25 26 24 22 31 43 47 47 39 51 43 25 24 26 22 26 32 42 35 41 41 44 51 56 56 59 61 61 63 65 66 68 69 70 71 71 71 72 72 72 72 72
28 30 27 26 27 27 38 48 52 36 39 54 56 55 28 25 27 42 60 63 64 66 65 51 53 54 55 61 62 63 64 64 66 68 70 70 71 72 71 72 73 73 73 72
29 29 30 29 29 26 43 49 48 51 55 55 57 57 50 52 60 62 61 61 61 62 65 66 65 66 68 64 63 63 64 66 68 69 70 71 71 71 71 72 73 73 73 72
27 35 34 32 32 38 48 47 54 55 54 55 56 57 59 60 60 61 59 59 58 57 57 56 55 58 61 66 66 65 66 67 66 68 69 70 71 72 73 73 73 72 73 72
34 40 37 37 38 43 50 53 54 54 55 54 57 57 57 58 58 57 57 56 56 56 56 55 54 55 56 59 60 61 62 67 67 65 67 69 70 71 72 73 72 72 73 72
35 38 37 38 39 47 52 53 53 54 54 54 56 56 56 55 55 55 56 57 57 57 57 57 56 56 57 59 62 63 63 61 65 68 66 68 68 69 72 73 72 73 74 71
38 36 36 35 42 45 48 52 54 53 55 54 55 55 56 56 56 58 58 59 60 61 61 62 63 63 62 63 63 62 62 62 61 65 68 67 68 70 72 64 60 51 57 53

GFSCGP_sfc_dewp_021.txt.gz
Dewpoint
33 27 27 26 25 22 19 20 22 24 25 33 37 41 47 56 57 57 59 59 59 60 62 64 65 66 67 69 70 71 71 73 72 70 69 69 68 69 70 71 73 74 74 75
30 26 25 26 27 23 20 19 22 24 23 23 27 31 35 53 57 58 59 59 59 60 61 63 64 65 66 68 70 72 72 74 73 71 71 70 70 69 71 71 73 74 74 75
24 24 27 27 26 23 20 17 19 22 22 22 26 26 34 51 55 57 58 59 59 60 61 63 64 65 66 67 70 72 74 74 74 73 72 72 72 73 72 71 72 73 74 75
21 25 27 27 25 22 16 18 18 22 22 22 29 24 36 40 52 55 57 58 59 60 61 62 63 65 65 68 69 72 73 74 73 75 73 74 69 69 69 71 71 72 74 74
22 25 26 26 25 25 18 20 20 22 22 23 22 25 29 44 48 53 56 57 58 59 61 62 63 64 65 67 67 70 73 74 74 75 75 72 72 69 69 70 74 76 75 74
20 25 25 25 26 27 26 24 24 25 22 21 23 22 25 30 40 48 54 56 58 59 60 62 63 65 65 66 66 68 72 74 74 74 75 75 74 73 70 71 70 70 71 71
22 22 23 24 22 25 24 20 19 17 17 18 23 23 27 30 39 37 49 55 57 60 60 61 63 64 66 67 68 68 71 72 74 74 74 74 74 74 74 73 70 71 70 70
19 19 22 22 23 21 23 19 13 17 13 14 26 22 24 29 31 40 43 50 55 58 59 60 63 65 67 67 68 68 70 72 73 73 74 74 75 72 72 73 70 70 69 70
18 18 23 22 21 22 22 21 18 14 18 15 16 21 26 29 29 35 40 43 49 54 57 59 62 64 66 67 68 69 69 71 72 72 73 74 74 74 72 74 74 70 74 70
26 23 22 23 22 21 21 22 17 16 16 14 15 21 19 32 31 33 38 40 43 47 52 56 60 62 64 65 67 68 69 70 71 72 72 72 73 74 74 74 74 74 73 73
29 22 20 24 22 21 19 20 20 17 16 10 9 11 29 34 39 37 36 39 41 45 48 51 57 60 63 63 65 66 68 70 71 72 72 72 72 73 73 73 74 74 74 74
33 22 22 21 22 22 21 21 21 16 24 17 14 10 23 28 32 37 35 37 41 48 51 51 52 56 59 63 63 64 66 67 69 71 72 72 73 73 73 73 74 74 74 74
31 27 24 22 19 20 22 22 21 19 21 25 14 13 20 27 29 31 32 35 42 47 52 53 51 54 58 60 63 63 65 65 67 70 71 72 72 73 73 73 74 74 74 75
33 28 28 21 24 26 25 20 22 19 19 20 20 18 22 26 30 31 35 39 40 45 50 53 55 58 58 60 63 64 64 65 66 67 69 71 72 72 72 74 74 74 75 74
31 26 28 26 26 25 24 23 22 22 23 22 21 21 24 28 31 32 32 38 40 41 43 48 52 60 62 62 63 64 64 66 67 69 69 70 72 73 73 74 74 74 74 74
30 25 30 25 23 22 23 24 24 23 23 22 21 21 23 28 32 34 33 36 39 42 41 45 51 57 60 62 63 64 65 65 68 69 69 70 72 73 74 74 74 74 74 74
29 28 27 21 24 24 22 23 23 23 24 23 22 25 26 26 30 33 36 38 41 41 43 46 48 54 59 60 63 63 65 67 68 68 70 71 72 73 73 74 74 74 74 74
29 30 26 19 24 19 21 26 30 29 26 24 25 26 27 30 35 38 38 37 40 41 42 47 41 50 61 58 56 63 64 68 69 70 70 71 72 72 73 73 73 74 74 74
31 29 20 15 18 21 22 24 38 40 30 40 44 33 27 27 30 38 36 37 41 42 45 45 43 46 60 61 63 65 65 68 69 69 70 71 72 72 73 73 73 73 74 74
28 32 25 21 13 15 24 29 43 47 33 51 54 54 50 30 26 29 40 37 36 38 40 44 47 51 56 59 58 64 64 67 68 69 70 72 73 73 73 73 74 74 74 73
29 28 25 23 21 20 25 38 51 40 35 53 54 56 57 54 37 45 51 50 58 58 49 48 56 60 62 63 61 65 65 67 67 69 71 72 73 74 74 74 74 74 74 73
27 29 29 24 21 19 27 33 34 50 54 55 56 57 57 59 59 50 58 62 65 65 62 61 64 66 67 65 66 66 68 69 70 71 72 74 74 72 72 75 75 75 74 74
25 26 33 25 21 31 36 42 50 55 55 56 56 57 58 60 59 59 62 63 63 62 63 66 66 66 67 68 69 68 70 69 70 71 73 73 74 74 74 74 74 73 74 72
32 37 35 31 29 33 36 40 46 53 55 56 57 58 58 60 60 61 60 59 58 57 57 57 59 61 63 65 66 67 67 71 71 71 72 73 73 74 75 73 73 73 72 72
34 35 33 35 37 39 37 38 45 52 54 57 56 57 57 58 58 58 58 59 59 59 59 61 63 63 64 65 65 64 65 65 65 68 70 70 70 72 73 74 73 73 74 71
35 35 34 30 38 42 43 47 51 51 55 56 56 58 59 60 59 60 60 61 62 62 64 65 66 66 65 64 64 65 66 65 65 65 63 63 65 67 69 71 74 54 52 56

GFSCGP_sfc_dewp_024.txt.gz
Dewpoint
29 23 21 20 24 23 24 24 26 27 31 30 32 33 35 44 50 50 56 58 58 59 60 61 63 64 65 67 69 71 71 73 72 70 69 68 65 66 66 66 70 73 74 75
26 23 21 20 18 21 22 22 23 27 28 27 30 30 34 40 49 51 54 57 58 58 59 61 63 63 63 67 69 71 72 74 74 71 71 68 67 65 66 67 71 73 74 76
22 21 21 19 22 21 21 21 22 24 27 26 27 29 31 31 39 48 51 55 57 58 58 60 62 62 63 66 69 71 73 73 74 73 71 70 69 68 67 68 69 72 74 75
21 22 22 21 21 20 19 19 19 20 23 25 28 26 33 33 37 42 47 52 55 57 59 60 61 62 62 65 68 71 73 74 74 75 72 74 68 67 67 69 68 70 74 74
22 21 21 21 22 21 18 13 16 18 19 23 26 25 29 32 33 35 42 47 53 56 58 60 61 61 62 65 66 69 73 76 76 75 75 71 72 68 68 67 74 76 75 75
20 19 20 22 22 22 20 16 15 18 16 18 25 25 27 29 35 35 42 48 53 55 57 60 61 61 62 64 66 68 74 77 76 76 75 76 76 73 69 71 68 69 70 71
21 19 21 21 22 23 21 19 16 13 13 15 23 23 28 29 31 34 35 40 52 55 57 58 61 62 62 64 66 68 72 75 75 74 75 75 75 76 75 73 70 72 67 67
18 17 19 22 22 22 22 18 11 17 9 11 22 22 25 29 31 31 34 34 46 54 56 57 60 62 64 64 67 69 71 74 74 74 76 77 77 72 72 74 70 69 67 68
19 19 17 20 21 22 23 20 14 10 15 12 12 20 23 27 29 30 31 33 37 51 55 57 58 61 64 65 68 70 72 74 74 72 76 77 77 76 72 76 75 71 74 69
24 22 19 18 20 20 20 21 14 12 18 17 11 18 19 27 30 31 32 32 36 45 53 55 58 59 62 64 66 69 71 73 74 74 74 74 75 76 76 76 76 76 74 74
27 24 22 21 20 19 18 19 18 14 13 12 12 11 22 27 31 31 32 34 35 42 47 51 54 58 59 62 65 67 69 71 72 73 74 74 74 74 75 75 76 77 75 76
29 25 24 20 20 19 19 20 20 15 23 16 15 10 15 21 24 31 31 34 35 39 43 45 48 53 57 60 63 64 66 67 70 72 75 75 75 75 74 76 76 77 77 76
32 25 23 23 21 23 20 20 20 18 19 26 16 14 21 27 29 33 33 34 38 41 46 48 47 49 54 58 62 62 64 65 66 71 71 72 73 74 75 76 76 77 77 77
34 28 27 20 25 24 23 21 21 19 18 19 19 19 22 22 26 29 28 31 32 41 44 45 48 49 53 58 64 66 62 63 64 66 68 72 74 74 74 76 76 76 77 77
30 30 30 28 26 25 22 20 21 22 23 22 20 22 24 26 27 29 30 32 32 35 39 43 49 54 59 60 64 67 65 65 65 68 67 72 74 76 76 76 77 77 77 77
27 30 30 28 26 24 23 24 23 22 22 23 23 23 25 27 30 31 31 33 33 34 34 34 40 52 55 59 62 62 67 65 67 70 70 72 75 76 76 77 77 77 77 77
28 26 29 26 25 24 24 25 24 25 25 25 25 28 29 29 30 31 31 31 32 35 37 39 40 44 50 51 59 62 65 66 69 71 72 74 75 76 76 76 77 77 77 77
29 29 26 23 27 24 25 26 26 25 26 26 27 29 30 31 32 33 33 33 34 34 36 40 35 36 42 46 44 59 62 70 70 72 73 74 74 75 76 77 76 77 77 76
26 28 22 21 22 24 23 24 25 27 27 27 29 31 29 31 29 32 32 32 36 38 38 38 37 39 50 48 51 56 62 66 68 72 73 74 74 74 75 76 76 77 76 76
23 30 24 21 20 20 24 23 35 33 31 33 42 42 44 47 37 31 34 31 33 35 38 40 40 43 45 52 52 57 60 64 68 71 71 74 75 75 75 76 77 77 76 76
18 25 23 20 19 20 23 33 43 33 43 49 48 50 52 52 50 55 57 53 51 49 48 49 49 49 53 57 57 59 62 63 67 69 69 72 75 76 76 77 77 76 76 74
20 19 18 20 20 18 21 24 31 45 50 49 50 53 55 57 59 59 60 60 55 53 54 58 54 54 60 64 64 63 69 67 69 70 70 73 75 72 71 77 77 76 76 76
20 20 20 22 20 29 28 31 36 38 42 49 48 48 53 55 58 60 61 59 58 59 61 62 58 63 66 68 68 68 70 70 70 71 72 72 73 73 75 76 76 73 76 72
28 29 26 26 26 30 32 32 34 38 41 42 47 47 52 54 58 61 61 60 61 61 62 63 65 64 67 71 71 72 72 72 72 72 73 73 73 73 74 71 72 71 70 71
27 30 31 32 33 31 31 34 36 38 43 47 47 51 55 57 59 61 61 61 62 62 62 63 64 65 66 67 67 66 67 68 71 72 71 72 71 73 72 74 71 70 73 68
31 32 29 28 32 33 35 36 43 44 45 47 49 52 57 60 60 61 62 63 64 65 66 66 67 67 65 66 67 69 69 69 67 66 62 62 62 64 67 68 71 55 57 53

GFSCGP_sfc_dewp_027.txt.gz
Dewpoint
39 36 36 30 36 33 28 25 25 28 31 30 33 36 36 40 44 45 52 55 56 55 56 58 60 61 62 65 68 71 72 76 73 70 69 68 66 66 65 65 69 71 71 74
31 32 30 29 23 27 28 27 25 26 27 30 32 33 33 36 41 45 48 53 55 56 56 57 59 60 61 64 68 73 74 76 75 71 72 69 69 64 65 65 71 71 72 74
24 22 23 18 16 17 21 22 24 24 26 27 30 31 33 33 37 45 47 52 53 55 56 58 59 60 61 64 69 73 75 76 76 76 73 73 70 69 65 66 66 70 73 73
25 21 19 17 15 15 14 16 19 21 23 24 28 26 34 32 33 42 44 49 52 54 57 59 59 60 60 64 67 73 75 76 76 77 73 74 67 65 64 66 66 69 74 73
26 20 19 19 17 16 16 15 17 19 21 25 26 27 32 32 31 32 37 44 50 52 55 57 59 60 60 62 64 70 76 77 77 77 76 71 71 65 65 65 73 74 77 74
22 19 17 19 19 17 18 16 16 16 15 19 24 25 29 29 33 33 36 38 45 49 53 57 59 60 60 61 63 68 75 77 77 77 77 77 74 71 66 68 67 67 67 72
21 20 19 19 19 19 19 16 13 11 10 14 20 21 28 30 29 32 34 36 40 46 52 56 59 59 60 62 65 68 74 77 77 77 76 76 76 76 77 75 68 69 66 66
18 17 19 19 20 20 20 16 12 17 9 8 18 20 23 29 30 30 34 35 41 44 50 54 58 60 61 63 66 68 73 76 77 77 77 77 78 72 71 73 68 67 65 66
19 20 19 19 18 21 21 18 13 10 10 7 8 16 20 25 27 30 31 34 36 43 48 54 57 60 62 62 67 70 72 75 77 76 77 78 77 77 73 75 75 71 74 67
25 23 20 19 19 20 21 19 13 13 19 17 12 18 17 27 29 30 32 33 35 38 47 52 55 58 62 61 64 69 71 74 76 75 76 76 77 78 77 77 77 75 74 76
25 24 24 22 20 20 19 19 18 13 13 14 16 14 21 28 30 30 31 33 34 35 45 51 54 56 60 61 62 65 69 73 75 75 76 76 76 76 77 76 77 77 77 78
25 25 25 21 19 20 20 20 22 16 25 14 14 17 19 20 22 29 31 33 33 36 43 50 52 54 56 60 62 63 66 67 72 74 76 76 76 76 76 77 76 78 78 78
30 27 26 25 19 21 19 18 19 19 18 25 14 16 23 24 25 30 31 33 37 39 41 45 49 52 54 56 62 62 65 65 66 72 72 75 75 75 75 77 77 78 78 78
38 30 29 23 26 22 22 18 18 18 18 19 18 19 24 26 30 32 33 35 36 39 43 44 44 46 51 57 63 65 63 64 65 67 69 73 75 75 75 76 78 77 78 78
31 33 31 27 25 22 21 18 18 20 22 20 20 22 24 27 31 31 33 34 35 39 42 43 45 50 54 60 65 67 63 66 66 69 69 71 75 76 77 77 77 78 78 78
30 31 33 30 25 26 24 22 20 19 20 21 20 21 24 28 29 30 30 31 32 34 35 38 42 47 53 55 62 65 68 66 67 70 70 72 75 77 77 78 78 79 78 78
31 29 32 30 29 28 26 25 24 22 22 22 22 26 26 27 29 31 32 33 33 33 33 36 37 38 47 52 56 59 67 68 69 70 72 73 75 76 77 78 78 78 78 78
29 33 32 28 31 27 28 27 25 25 25 24 26 29 29 31 33 33 33 34 35 35 36 37 32 36 42 39 38 56 57 70 71 72 72 74 74 76 77 78 78 78 78 78
25 28 28 26 26 26 25 27 27 27 27 27 28 29 28 30 31 34 34 34 36 36 37 37 34 36 48 42 44 48 57 65 71 71 73 73 75 75 77 77 78 78 78 78
21 26 25 26 25 26 27 26 26 29 27 30 29 30 31 32 31 37 52 52 48 40 42 42 38 39 40 47 44 46 49 60 69 71 73 75 76 76 77 77 78 78 78 77
19 23 22 23 24 25 29 33 32 30 45 48 37 39 42 43 49 56 57 57 57 57 56 53 54 54 52 52 50 59 58 60 66 69 71 75 76 77 77 78 78 78 78 77
21 20 21 23 23 23 25 25 34 43 45 47 48 48 49 52 53 54 56 59 60 59 56 51 54 57 57 56 59 66 68 69 72 72 73 75 77 74 73 78 78 79 78 78
21 25 19 22 23 31 32 32 31 34 39 42 45 45 46 46 50 53 56 61 61 59 60 59 59 60 61 67 68 68 74 72 73 75 76 76 77 76 77 77 78 75 77 73
28 29 22 26 28 28 30 30 32 34 35 37 39 40 46 47 52 54 57 61 61 61 62 61 63 63 67 71 70 71 73 72 71 73 75 75 75 75 76 72 73 72 71 71
26 28 27 27 29 30 30 32 31 32 34 37 41 46 47 47 51 57 59 63 62 62 62 64 66 66 68 69 69 69 70 73 72 73 73 73 72 73 74 75 70 70 73 68
27 28 26 26 32 33 35 34 34 33 36 42 44 44 46 48 53 59 60 63 65 66 68 68 68 67 67 68 69 70 70 70 69 71 70 68 68 69 71 70 72 63 62 58

GFSCGP_sfc_dewp_030.txt.gz
Dewpoint
39 35 32 30 33 34 34 30 27 29 32 33 32 35 40 47 56 55 52 54 54 55 57 60 60 60 62 66 69 70 71 75 73 72 71 71 69 71 71 73 75 76 76 77
37 35 34 32 32 32 32 30 26 26 26 29 32 31 37 46 53 53 52 57 55 53 55 59 60 60 61 66 70 71 72 75 74 73 73 72 72 71 71 72 75 75 75 77
35 34 34 32 32 27 31 30 28 25 25 27 31 31 34 41 42 44 49 53 53 55 55 58 60 60 61 66 70 72 73 75 74 75 74 75 75 75 70 71 73 73 75 76
35 33 31 31 29 28 25 29 26 25 24 22 26 25 37 35 36 40 42 47 51 55 56 58 59 60 61 65 69 73 74 75 75 76 74 74 70 68 70 70 71 72 74 76
35 30 26 25 26 23 19 17 21 21 23 23 24 24 29 36 34 35 42 47 53 54 55 57 58 61 62 64 68 72 75 75 76 75 76 73 71 70 69 70 74 74 75 75
33 33 25 19 19 16 15 13 14 15 16 21 23 23 28 30 37 35 39 41 50 51 55 59 59 61 62 64 67 71 75 75 76 76 75 76 73 72 69 70 70 72 73 74
28 30 29 21 18 18 15 13 14 14 14 15 21 22 29 30 36 35 35 39 44 51 54 59 61 61 62 64 67 69 74 74 75 75 74 75 75 73 75 74 70 71 70 72
22 21 25 19 18 19 16 13 14 19 14 11 18 19 23 29 30 35 35 36 41 46 50 56 61 61 62 63 66 68 73 74 75 75 75 74 77 73 71 75 70 71 70 70
21 21 22 21 17 18 19 17 14 12 12 9 10 16 19 26 27 30 29 35 38 42 46 55 59 62 63 63 66 68 72 74 75 74 75 75 75 76 71 73 75 73 74 71
24 22 19 20 19 18 19 19 15 15 20 18 12 21 18 27 29 31 33 31 38 42 46 53 58 61 62 62 64 67 71 73 75 75 75 75 74 75 75 73 75 73 75 74
19 22 20 21 21 19 18 19 18 15 15 15 16 13 25 32 33 34 33 34 37 43 47 51 57 60 62 62 63 65 68 72 74 75 75 75 75 75 75 74 74 76 74 78
22 17 22 23 21 20 18 20 22 19 26 18 19 16 22 28 30 32 33 35 38 42 49 50 54 59 61 62 62 64 67 69 73 75 75 75 75 76 75 74 74 75 77 75
33 26 24 25 22 21 20 19 21 20 19 28 18 16 24 27 32 36 34 38 42 46 47 50 53 57 60 62 63 63 66 66 71 74 75 75 75 75 75 76 74 75 75 77
38 32 30 24 27 24 24 19 20 19 20 22 18 23 26 27 27 34 39 41 41 48 50 51 53 57 59 62 65 65 65 66 68 71 73 74 75 75 75 75 76 75 76 75
32 33 31 26 25 23 19 19 19 22 24 23 21 21 29 34 35 35 38 43 44 47 50 53 53 59 61 64 66 67 66 67 67 69 72 73 74 75 75 76 76 77 76 76
31 32 34 31 28 27 25 20 19 18 18 20 20 20 28 35 39 39 41 41 42 45 45 49 54 58 61 66 67 67 67 68 68 70 70 72 74 75 76 76 76 76 76 76
30 32 33 32 32 29 27 25 21 20 19 19 22 28 31 34 36 38 38 37 39 36 38 45 51 55 59 60 69 68 68 69 71 71 71 72 74 74 75 76 76 76 76 77
27 32 33 30 33 29 29 29 27 22 21 21 25 29 34 37 39 38 37 37 39 38 44 51 38 48 57 48 51 63 68 72 71 73 73 75 75 74 75 76 76 77 76 77
25 28 28 29 29 31 29 30 28 27 26 25 26 28 31 32 33 38 35 35 38 44 47 47 42 45 60 54 57 60 62 70 71 70 73 73 75 75 75 76 76 77 77 77
21 28 26 30 28 27 31 29 28 28 27 44 34 29 30 30 28 48 57 56 56 56 58 60 58 57 53 64 56 62 61 67 70 70 71 74 74 75 75 76 77 77 77 77
20 24 23 25 27 29 37 32 30 29 44 49 47 41 38 44 53 55 54 56 58 60 60 61 62 61 68 68 64 69 68 65 69 71 72 74 76 75 75 77 77 77 77 77
21 23 23 25 26 28 32 34 37 46 45 44 46 47 48 49 50 52 53 56 59 61 60 58 62 63 65 68 69 70 72 75 75 75 73 75 77 74 74 77 78 78 77 77
24 26 23 25 26 43 35 35 35 36 39 39 42 40 43 46 48 52 55 58 62 63 63 62 64 67 71 72 75 74 77 78 77 79 77 77 78 77 76 77 77 76 77 76
32 31 26 29 30 32 30 30 31 34 34 38 36 38 46 47 47 49 55 58 63 65 64 63 65 67 73 75 76 76 77 78 78 79 79 79 78 77 77 76 76 75 75 75
26 29 31 30 30 31 30 32 32 32 34 35 36 37 44 45 46 48 54 59 61 65 68 70 70 69 70 71 71 71 73 75 75 77 77 78 76 77 77 76 74 75 75 71
26 27 24 25 34 38 39 36 33 33 33 35 36 39 44 44 48 49 57 61 63 64 66 68 70 68 70 70 70 71 72 73 75 76 74 73 72 73 73 74 74 65 61 57

GFSCGP_sfc_dewp_033.txt.gz
Dewpoint
36 32 28 28 30 32 37 37 34 34 35 37 37 35 48 56 60 60 61 61 57 57 58 58 59 60 61 65 65 66 67 68 68 70 70 69 68 70 68 68 71 72 73 73
35 33 33 32 30 30 32 34 35 33 30 34 35 33 50 54 54 58 59 57 57 56 57 58 58 59 61 65 66 66 69 69 68 69 68 70 70 70 68 68 73 73 73 74
34 35 36 35 30 28 29 31 32 32 30 27 31 33 48 51 51 53 55 56 59 55 56 58 58 58 61 65 65 68 68 70 69 70 70 71 71 70 69 68 71 73 73 75
35 36 36 35 32 30 28 31 32 31 30 26 24 30 36 46 48 50 53 57 57 57 56 58 58 58 61 65 66 67 69 72 70 71 70 69 67 67 68 67 69 71 73 73
33 36 36 34 33 32 30 29 29 30 29 25 25 27 30 41 45 49 53 57 59 61 56 57 58 59 60 65 67 67 69 72 71 71 70 70 69 69 68 68 68 70 71 73
31 38 36 35 33 32 32 30 24 28 26 21 21 23 26 33 37 45 50 56 58 52 53 58 59 59 59 64 68 69 70 72 71 71 72 71 70 68 68 68 67 71 71 72
28 29 36 32 30 29 28 23 17 15 18 17 18 21 23 30 37 37 46 53 53 53 51 59 58 58 60 64 67 70 71 72 72 71 71 73 71 69 68 67 68 70 71 71
26 23 28 33 27 21 22 19 14 13 13 13 15 15 21 28 31 36 41 50 51 56 57 57 57 58 59 62 66 70 71 71 73 72 70 70 74 71 68 72 67 71 69 71
24 23 27 29 28 23 19 15 14 13 19 15 14 13 16 17 22 25 35 38 50 54 55 56 57 58 59 62 65 68 71 71 72 72 72 70 71 74 68 67 72 67 71 69
19 20 26 28 30 23 19 17 13 12 14 13 14 13 14 15 17 23 29 34 42 53 53 57 57 58 59 60 64 66 71 71 71 71 72 72 70 71 73 69 68 72 68 70
32 19 16 24 26 26 16 18 14 15 17 16 19 18 17 17 21 26 26 35 36 45 54 57 58 59 60 60 63 66 69 71 72 72 71 72 72 70 73 72 69 71 72 71
33 30 17 18 23 24 20 17 16 14 16 17 16 17 28 26 21 26 26 33 38 43 53 58 59 59 60 60 62 64 67 71 72 72 72 72 73 72 70 73 73 68 73 71
37 30 21 17 18 20 19 17 17 19 23 20 17 20 28 33 22 30 30 32 37 46 52 56 59 59 60 59 60 62 65 69 71 72 73 72 72 73 72 71 71 74 69 74
38 31 29 22 19 22 19 19 17 19 17 17 20 20 26 32 36 37 35 41 39 48 50 54 57 59 60 60 60 62 63 66 70 71 72 73 73 73 73 73 72 70 73 71
31 28 32 32 28 26 24 19 19 17 20 19 18 26 30 35 39 42 44 42 44 46 50 52 55 58 60 60 60 61 62 64 66 71 72 72 73 73 73 73 74 73 71 72
27 28 32 34 30 27 26 20 20 18 19 22 19 20 32 38 42 39 41 41 39 46 51 51 54 57 59 61 61 62 62 64 65 68 71 72 73 73 73 73 73 74 74 71
26 26 30 31 33 32 30 29 20 20 20 20 22 24 35 38 37 37 39 38 37 37 38 44 50 55 60 62 63 63 63 64 65 66 68 71 72 73 73 73 73 73 73 74
26 24 30 32 33 29 32 34 32 21 24 20 21 34 37 40 46 46 41 38 37 40 44 45 42 42 50 59 64 64 65 66 65 66 67 68 71 72 73 73 73 73 73 73
26 24 27 31 31 32 32 33 32 28 41 46 46 37 38 49 54 55 56 57 57 57 58 58 57 58 54 51 56 66 67 67 69 66 68 69 71 71 72 73 73 73 73 73
23 25 29 29 32 31 32 35 38 36 42 45 47 47 37 50 51 53 56 58 59 60 59 58 58 58 61 60 59 61 65 66 66 68 71 73 71 72 72 72 73 73 74 74
23 25 24 26 29 37 34 36 43 36 42 43 41 45 49 51 54 54 56 58 61 62 61 59 59 57 59 61 59 58 62 66 68 69 70 72 73 73 73 73 73 74 74 74
26 28 26 27 30 34 35 33 39 43 39 40 41 42 48 49 52 56 57 59 62 65 62 63 63 63 58 60 58 60 64 66 67 69 70 72 73 72 74 75 75 75 75 75
31 34 34 31 36 35 41 37 35 36 37 37 39 38 47 46 47 51 57 58 59 64 67 68 66 65 73 73 71 68 71 72 70 73 71 73 73 75 73 74 76 75 75 75
28 33 30 32 32 32 34 35 34 36 35 35 36 39 45 45 45 45 48 59 60 61 63 66 68 69 70 71 71 71 71 72 73 71 74 74 75 75 74 76 75 75 75 75
29 30 29 28 34 36 36 41 41 37 38 37 37 39 44 45 46 45 46 60 59 59 61 64 65 68 69 70 70 71 71 71 71 72 75 75 75 75 75 74 74 75 72 72
31 30 30 30 33 39 38 40 41 40 39 41 42 41 42 45 44 44 43 57 61 61 62 62 64 67 68 68 67 68 70 70 70 73 73 73 73 75 74 74 68 53 54 51

GFSCGP_sfc_dewp_036.txt.gz
Dewpoint
31 26 26 25 27 29 34 36 37 37 38 35 38 48 56 57 58 59 60 60 60 60 60 62 62 62 62 64 63 63 63 67 68 69 68 66 65 67 68 69 69 70 71 72
35 29 28 31 28 28 30 31 36 38 39 35 37 47 54 56 57 58 59 59 59 59 60 61 62 62 61 64 64 64 64 65 68 67 68 67 67 68 68 68 70 71 72 73
32 34 34 32 30 28 29 29 31 35 36 33 34 46 48 53 56 57 58 59 59 58 57 60 61 62 62 63 64 65 65 65 66 68 68 70 70 68 68 67 71 71 72 73
29 35 33 34 31 29 27 29 30 31 32 31 30 36 50 53 54 53 53 56 57 57 57 58 59 61 60 63 64 66 66 66 66 69 67 67 67 67 68 67 69 71 73 73
25 29 34 31 33 33 29 30 29 30 31 30 30 26 48 52 52 51 52 53 55 58 57 57 57 59 60 63 64 66 68 67 67 70 67 67 66 67 69 67 67 70 71 73
21 33 34 34 34 35 34 31 30 30 29 27 28 25 25 50 50 50 50 52 53 57 57 57 58 58 60 63 64 66 69 68 68 70 69 68 67 68 67 67 66 69 70 71
25 24 29 36 35 35 34 30 28 25 24 24 27 21 24 47 49 50 50 50 54 57 56 56 58 57 59 63 64 66 67 70 69 69 70 69 68 68 68 67 66 69 69 70
22 21 25 30 35 34 33 29 28 25 21 21 19 17 21 26 44 46 50 51 55 56 56 56 57 58 59 63 65 65 66 68 70 70 70 70 70 69 68 68 67 67 70 69
22 20 25 27 32 35 29 30 23 15 26 14 16 14 17 19 20 38 50 53 55 56 56 55 57 58 59 63 65 66 66 66 70 69 70 71 71 70 69 68 69 68 70 71
31 25 21 23 29 32 30 23 19 15 14 16 15 14 14 16 16 21 46 52 55 57 55 54 57 58 59 62 65 67 67 66 69 70 69 69 70 73 70 68 69 71 69 70
32 31 23 22 25 26 27 21 18 18 16 13 14 14 17 17 21 18 42 48 53 55 54 53 56 58 58 60 64 68 68 68 69 71 71 70 69 69 73 70 67 68 70 69
34 35 32 23 20 24 28 21 17 14 13 17 18 15 24 18 19 19 23 51 52 53 54 54 57 57 58 59 62 66 69 69 70 71 71 71 71 70 69 73 70 68 69 71
39 35 30 23 18 19 18 27 17 16 16 15 13 14 21 21 26 29 21 30 48 51 53 55 56 57 58 58 61 65 69 70 70 70 70 71 71 71 69 70 72 71 68 70
41 31 31 27 24 27 19 20 21 15 15 14 15 17 21 23 26 26 22 32 40 49 54 55 56 57 58 58 60 64 65 70 70 70 71 70 71 71 71 70 70 72 72 68
36 27 26 27 28 30 30 24 23 17 16 15 16 18 20 25 36 35 34 36 43 52 54 55 57 57 59 59 59 63 64 68 70 71 71 71 71 72 72 72 71 70 71 73
32 25 25 25 33 33 27 27 27 17 18 19 19 18 21 30 39 39 42 44 46 52 55 56 57 58 59 59 60 62 63 66 69 70 71 71 72 72 72 73 73 71 71 70
28 25 25 27 32 31 30 31 28 19 19 19 21 21 34 40 50 51 35 37 44 51 55 57 58 58 59 60 60 61 62 64 68 70 70 71 72 73 73 73 73 73 73 72
27 26 25 27 31 28 32 33 36 41 41 41 45 43 48 54 55 56 57 50 50 51 50 48 55 58 61 61 60 61 62 63 64 66 70 71 72 72 73 73 73 73 73 73
28 25 24 27 30 31 34 35 33 36 39 39 41 49 53 53 54 55 57 60 58 56 57 57 57 54 54 62 62 62 62 63 64 65 66 70 71 72 73 72 73 73 73 72
33 26 24 25 30 31 35 36 40 41 37 39 44 51 50 46 52 54 58 63 64 60 58 56 55 58 58 58 62 63 62 63 63 64 66 67 70 71 72 72 72 73 73 73
32 27 24 28 34 35 37 37 37 36 38 39 42 45 48 53 54 56 58 60 65 65 64 63 65 63 58 57 59 62 64 64 65 66 66 68 68 70 71 72 72 72 73 73
35 34 31 34 34 35 42 39 34 35 36 36 41 45 44 43 45 53 58 58 60 63 66 68 70 70 71 68 64 68 67 68 67 69 70 70 70 69 70 71 71 72 72 73
33 36 35 36 38 42 47 45 40 39 37 40 38 42 43 43 41 43 57 57 57 60 62 65 68 69 69 70 70 69 70 71 70 69 69 70 71 72 73 73 72 72 73 72
33 32 36 32 38 35 44 45 42 39 40 40 40 36 43 42 41 40 43 58 58 59 61 63 64 68 68 69 69 69 69 70 70 70 71 71 71 72 73 73 74 73 74 74
31 32 32 30 33 35 39 38 40 38 39 41 42 42 44 40 39 40 41 47 59 60 61 62 64 65 66 67 66 67 68 69 69 70 72 72 72 72 73 66 65 73 74 73
34 35 34 31 35 36 35 37 38 38 38 42 43 42 43 42 41 47 48 50 59 60 61 63 63 65 66 66 66 67 68 69 68 68 71 72 73 73 73 66 59 50 48 49

GFSCGP_sfc_dewp_039.txt.gz
Dewpoint
28 23 21 19 26 29 32 36 37 39 41 42 47 47 58 59 59 60 60 60 60 60 62 62 63 63 63 63 61 63 64 66 67 68 67 66 66 67 68 69 69 70 71 72
29 23 22 23 27 28 27 28 33 36 37 37 37 45 57 59 59 60 60 60 60 60 60 61 61 62 62 62 62 62 63 65 68 66 67 66 66 66 67 68 69 69 71 72
29 30 27 28 25 26 26 25 29 33 36 37 39 45 48 58 59 60 60 60 60 60 60 60 61 61 62 62 63 63 63 64 67 67 68 69 68 67 67 67 69 69 71 72
30 31 30 26 29 27 25 28 29 30 32 31 34 43 54 56 57 57 59 60 60 60 60 60 61 61 61 61 64 64 63 63 66 67 67 66 64 63 64 66 69 70 71 72
26 29 30 29 28 30 28 29 30 30 30 31 30 30 47 54 55 56 57 59 60 60 60 60 60 61 62 62 63 64 64 64 65 67 66 66 64 64 68 67 67 70 71 72
23 24 29 29 32 32 33 30 30 30 29 26 28 29 28 48 53 55 57 57 58 59 59 60 60 61 62 62 63 64 65 64 64 67 66 66 65 67 68 67 66 69 70 71
27 23 27 31 30 33 33 29 27 26 26 26 29 28 29 44 51 53 55 55 56 56 58 58 59 60 61 62 63 64 65 65 65 66 67 66 66 67 67 67 66 67 69 70
29 23 26 23 32 31 32 32 29 25 26 27 26 25 26 36 49 52 53 54 53 52 57 58 58 59 60 61 63 64 66 65 66 67 67 67 66 67 67 67 67 67 68 69
31 29 31 25 25 33 33 32 32 24 21 20 26 18 18 26 41 50 51 52 51 51 54 57 58 58 59 61 63 64 65 66 66 67 68 68 68 68 67 68 67 67 68 69
33 29 31 29 24 29 34 32 29 23 21 19 18 15 22 22 27 38 50 51 51 51 53 56 57 58 58 60 63 64 65 66 67 67 68 68 68 69 68 68 68 67 68 70
36 32 31 33 23 22 26 29 32 30 21 21 13 17 19 20 22 24 44 47 49 51 54 56 57 57 58 59 63 63 64 65 67 68 68 68 69 69 69 69 69 69 68 69
35 36 33 33 32 32 25 28 21 28 25 17 18 18 19 19 21 21 31 44 50 53 55 56 56 56 58 58 62 64 64 64 65 68 68 68 69 70 71 70 69 68 70 69
37 36 27 25 25 23 19 27 24 23 21 18 24 23 19 22 23 22 24 40 47 53 55 56 56 56 58 58 61 64 65 65 65 68 68 68 68 68 69 72 71 68 68 69
41 35 29 26 27 28 27 28 26 19 16 18 17 21 19 17 23 25 29 33 42 51 55 56 55 54 57 58 59 63 66 67 66 67 69 69 69 69 69 69 71 71 69 68
38 31 28 29 28 27 26 26 27 20 18 15 15 15 15 17 23 36 40 33 30 45 54 55 54 54 57 58 59 63 66 68 68 68 69 70 71 71 70 69 69 71 72 70
37 30 26 25 25 25 25 29 32 31 19 17 17 17 19 36 51 53 45 35 39 48 51 53 54 55 56 58 59 61 65 68 69 69 69 70 70 71 71 71 70 69 70 72
33 31 25 24 28 30 30 32 35 32 39 33 19 29 35 51 55 57 59 45 35 45 50 51 54 55 56 58 58 60 64 67 69 69 69 70 70 70 71 71 71 71 69 70
30 32 26 24 28 29 32 37 36 39 38 40 44 46 51 56 58 59 60 62 54 48 50 53 55 56 57 58 59 60 64 65 68 69 70 70 71 71 71 71 72 72 72 70
26 33 24 25 27 32 35 37 38 35 37 39 42 49 54 57 57 59 59 64 60 56 56 55 57 58 58 59 60 61 63 64 66 68 69 70 71 71 72 71 71 72 72 73
35 35 33 24 33 31 36 41 39 38 35 35 42 43 54 56 55 57 58 61 65 67 63 57 57 60 61 61 60 61 62 62 64 66 68 70 71 71 71 72 72 72 72 72
34 34 29 28 37 36 39 42 36 32 33 37 39 41 42 49 53 57 57 58 62 66 69 69 63 59 57 60 61 60 61 62 62 64 65 68 70 71 72 72 72 72 72 72
33 33 34 37 36 34 41 41 36 37 39 39 40 42 41 41 44 53 57 57 59 62 65 68 68 69 69 68 65 66 68 70 66 65 65 66 67 70 71 71 72 72 72 72
33 35 35 37 37 42 46 46 41 38 37 38 41 40 42 40 45 48 51 57 59 61 63 66 68 68 68 69 68 68 68 70 68 68 68 67 68 68 68 71 71 72 72 71
35 37 35 33 35 37 42 44 41 40 39 38 40 42 42 41 44 50 52 58 59 61 62 64 66 66 66 66 67 67 68 69 69 69 69 69 70 71 70 70 70 71 71 71
36 36 35 33 34 37 38 38 41 42 41 41 39 42 43 46 50 53 55 57 57 58 60 62 64 65 65 65 66 66 68 68 68 68 70 71 70 69 69 59 61 69 71 69
39 37 35 33 36 37 37 40 41 43 43 42 41 42 44 46 48 52 53 55 56 56 57 60 61 62 64 64 64 66 67 67 66 66 66 68 71 70 66 59 57 49 47 47

GFSCGP_sfc_dewp_042.txt.gz
Dewpoint
28 24 21 21 30 33 33 36 37 39 40 47 47 48 59 60 59 60 60 59 58 58 61 63 64 64 64 64 64 66 66 67 68 68 67 68 67 69 70 70 71 71 72 74
26 23 23 20 21 28 29 27 31 35 39 42 42 47 58 60 59 60 60 60 60 60 60 62 63 63 63 63 63 65 66 67 68 68 68 68 67 68 69 70 71 71 72 73
26 25 24 22 24 21 24 27 27 33 35 38 40 41 55 59 60 60 60 60 61 60 60 61 63 63 63 63 63 64 65 66 68 68 68 68 68 68 68 69 70 70 72 72
30 29 27 22 22 25 22 26 29 27 31 30 38 35 50 57 58 59 59 60 60 60 60 61 62 62 63 63 64 64 65 66 67 68 68 68 66 65 66 68 70 70 71 72
29 30 29 28 21 24 20 26 27 28 30 30 31 32 42 55 56 57 59 60 60 60 60 60 61 62 63 63 64 64 65 65 67 68 68 67 67 66 67 68 69 70 71 72
25 24 26 30 29 25 30 30 29 30 29 26 28 29 31 52 54 56 58 59 60 60 60 61 61 62 62 63 63 65 65 65 66 68 68 68 67 66 67 67 67 69 70 71
32 29 22 23 28 28 31 27 26 25 26 26 31 29 31 36 55 56 56 58 59 60 60 60 61 61 62 62 63 64 65 65 65 67 68 67 67 67 67 67 67 68 70 71
30 23 26 25 25 29 29 29 27 24 24 25 29 28 30 33 48 56 56 57 58 59 60 60 61 61 62 63 63 64 65 65 65 66 67 67 67 67 67 68 68 68 69 70
29 30 32 31 29 27 30 29 30 27 24 25 24 27 26 33 36 50 53 55 56 58 59 60 60 61 61 63 63 64 65 65 65 65 67 67 67 67 67 69 69 68 70 70
33 29 31 32 33 29 31 32 29 28 27 20 25 20 30 27 32 40 47 51 54 56 57 57 59 60 61 62 63 64 64 65 65 66 66 67 67 68 68 69 69 69 69 71
35 34 29 32 31 25 27 32 32 29 27 26 18 20 28 29 31 34 40 51 52 54 54 54 57 59 60 61 63 63 64 65 65 66 67 67 67 68 69 69 69 69 69 70
35 36 31 30 33 35 34 29 32 30 27 23 24 25 25 25 28 30 31 49 52 54 53 53 54 58 59 60 61 63 64 65 66 67 67 67 68 69 69 69 69 70 69 70
36 33 28 28 27 27 29 28 28 25 31 28 29 29 26 24 25 26 27 34 48 53 54 53 53 56 58 59 61 63 64 64 65 67 67 67 68 69 69 69 70 70 70 70
39 35 31 25 25 28 27 27 26 26 25 30 29 30 31 31 28 30 28 30 40 53 54 54 54 57 58 60 62 63 63 64 65 67 67 67 68 69 70 70 71 70 70 70
35 32 32 30 32 31 29 27 26 26 25 27 26 26 28 30 30 28 30 33 34 43 53 56 56 57 59 60 61 64 64 65 65 66 67 68 69 70 70 71 72 71 70 70
37 31 34 29 28 27 26 26 26 26 28 22 21 21 39 31 47 56 57 57 47 41 40 53 57 57 58 60 61 63 65 65 66 66 67 69 69 70 70 70 70 72 72 71
35 33 30 23 26 26 25 28 35 39 40 38 23 36 47 48 58 58 59 60 61 52 39 41 56 57 57 59 61 63 65 67 67 67 68 69 70 70 71 71 70 70 71 72
33 33 32 25 25 27 36 39 39 37 36 40 42 44 52 53 59 60 59 59 61 62 52 47 55 56 57 58 59 62 65 68 69 69 69 70 71 71 71 71 71 71 70 70
34 34 29 24 24 34 35 38 39 38 36 37 39 43 47 56 57 59 57 58 61 66 58 55 56 57 58 59 61 63 66 69 69 69 70 70 71 70 71 71 71 72 72 71
35 36 32 30 28 34 37 39 42 40 35 38 40 40 43 55 53 56 57 59 62 66 66 59 60 60 60 61 61 64 65 67 69 69 70 71 71 71 71 71 72 72 72 72
32 33 28 31 31 38 40 42 39 34 35 39 41 40 41 46 48 51 58 60 63 66 68 65 62 61 62 62 62 63 65 65 67 69 70 71 72 72 72 72 72 72 72 73
33 32 34 35 36 35 43 39 36 38 38 37 39 42 41 47 54 54 57 59 61 63 66 67 68 67 66 64 63 64 65 67 67 68 70 71 72 71 72 72 73 73 73 73
32 35 33 34 36 40 45 42 41 40 39 40 39 42 45 49 53 54 55 56 57 60 62 66 65 66 67 69 69 68 70 72 68 67 68 69 71 72 72 73 73 72 73 72
37 39 36 36 37 39 42 41 39 41 41 41 41 41 44 49 51 52 52 54 54 56 60 62 65 65 65 67 68 69 70 71 70 69 69 69 69 69 71 72 72 72 72 72
37 38 35 36 35 39 40 40 41 41 42 43 43 42 43 45 47 49 48 50 51 53 57 61 62 64 64 65 66 68 68 69 69 71 72 71 71 70 69 60 62 70 71 69
40 37 35 35 38 39 40 42 42 42 42 43 44 43 43 45 46 49 47 49 50 51 55 60 63 63 64 65 66 67 67 67 68 68 69 71 71 70 65 62 59 48 47 47

GFSCGP_sfc_dewp_045.txt.gz
Dewpoint
30 23 24 23 27 24 33 34 29 40 43 45 46 46 55 60 59 58 57 56 55 56 59 61 63 65 67 68 68 69 69 71 70 69 67 67 65 67 68 70 73 73 73 74
25 21 22 21 22 27 25 31 33 37 39 44 45 46 49 59 59 59 57 56 55 56 58 61 63 64 65 67 68 69 69 71 71 69 70 67 68 68 69 72 73 73 73 75
27 24 24 23 20 20 24 23 30 31 32 37 40 41 44 57 59 60 60 58 57 56 57 60 63 64 64 66 68 69 70 71 71 71 70 70 71 71 69 70 71 72 73 74
32 32 25 22 20 19 16 19 25 30 31 33 39 38 44 46 57 59 59 60 59 58 58 60 62 63 64 65 67 69 70 71 71 72 71 72 67 66 67 69 70 72 74 73
30 31 31 30 25 22 19 20 19 20 29 32 33 34 41 48 51 55 58 59 60 60 60 60 61 63 64 65 65 67 70 72 72 73 73 70 70 67 69 68 72 74 74 74
28 30 28 31 30 24 23 22 23 21 17 20 32 33 35 41 50 53 56 59 60 60 61 62 62 63 64 64 65 66 70 71 72 72 72 73 73 71 68 69 68 68 70 71
24 20 25 25 27 28 28 26 23 21 20 13 22 31 34 39 47 50 54 58 60 61 61 61 62 62 64 65 66 67 69 70 71 71 72 72 73 73 72 71 68 69 67 69
22 -1 28 32 26 26 28 26 21 21 18 11 21 29 32 36 38 48 52 55 59 60 60 61 62 63 65 66 67 67 69 70 70 71 72 73 73 68 68 71 68 67 67 68
25 24 30 28 31 31 26 28 25 21 27 22 15 23 32 36 37 38 47 54 58 60 60 61 62 63 64 65 67 68 69 70 70 69 71 72 73 72 70 73 72 69 72 68
31 10 25 30 30 29 30 27 27 26 22 20 20 22 20 34 35 38 41 49 55 58 60 61 62 62 64 64 65 67 68 69 70 69 70 70 71 72 72 72 72 72 71 72
30 24 11 21 25 26 27 27 28 28 28 21 18 20 29 31 40 39 40 43 51 56 59 60 62 63 64 64 65 66 67 69 69 69 70 70 70 71 71 71 71 73 72 73
33 33 25 15 16 24 26 32 28 28 31 29 27 21 29 32 33 36 37 40 44 54 58 60 61 62 62 64 64 65 66 66 68 69 70 70 71 71 70 71 71 73 73 73
35 31 17 2 10 23 25 27 31 28 29 33 27 26 31 34 35 37 38 40 49 53 56 58 59 61 63 64 65 65 66 64 65 68 68 69 69 70 71 72 72 73 73 73
36 32 22 11 12 26 28 28 29 28 27 31 31 29 31 34 34 34 35 37 38 50 56 58 58 60 63 64 66 66 66 65 65 66 67 69 70 71 71 72 73 72 74 73
35 28 26 26 25 24 25 26 27 28 28 30 33 34 34 37 38 38 39 37 39 40 49 57 58 61 64 65 66 67 66 67 67 69 68 69 71 72 73 73 73 73 73 73
36 27 28 24 20 24 27 27 28 28 28 28 29 32 40 43 42 39 42 52 54 54 49 52 58 61 62 64 66 66 67 67 69 70 69 71 72 73 73 74 74 74 73 73
34 32 27 19 19 25 25 26 27 28 30 29 27 32 46 47 54 56 58 59 59 60 62 60 53 61 62 63 66 66 67 68 69 70 71 72 73 73 73 74 74 74 74 73
32 33 31 22 23 25 27 36 28 37 39 40 40 45 49 53 58 60 59 59 60 61 62 63 61 54 63 61 62 66 67 69 69 70 71 72 73 73 73 74 74 74 74 74
32 35 29 26 28 32 38 38 35 38 38 41 42 46 51 56 60 59 58 57 61 62 63 66 65 51 62 63 65 67 68 69 69 70 71 72 73 73 73 73 74 73 73 73
34 36 32 29 27 29 39 40 42 41 38 39 42 44 51 55 54 55 56 57 62 65 66 65 60 52 62 64 64 67 67 69 69 70 71 73 73 73 74 74 74 74 74 73
32 33 28 28 27 31 40 41 40 38 38 39 41 44 53 53 53 55 57 58 61 64 66 64 60 63 64 66 65 67 69 69 70 70 71 73 74 74 75 75 75 74 74 74
31 30 29 30 28 27 41 41 37 39 40 41 43 43 51 50 49 50 51 54 57 62 65 66 64 64 66 67 67 68 70 72 73 73 73 74 75 72 72 75 75 75 75 74
33 33 33 33 33 38 42 41 42 42 41 42 41 42 46 46 46 47 47 48 52 59 64 66 67 68 68 67 69 69 71 73 73 74 74 74 74 74 75 75 74 73 74 72
37 39 35 35 38 40 41 42 42 42 41 43 44 42 44 46 46 46 47 48 47 52 62 65 66 67 69 71 71 72 72 71 72 73 74 74 74 73 74 73 73 72 72 72
37 38 36 37 39 40 41 42 44 44 43 43 44 44 43 45 46 47 47 48 51 51 53 63 65 66 67 69 69 69 71 73 70 71 71 72 71 72 73 73 69 72 74 69
39 37 35 35 40 41 41 44 46 44 43 43 44 44 46 45 46 47 47 50 51 52 53 55 61 66 66 67 67 68 68 69 72 73 71 68 68 69 71 67 63 48 48 47

GFSCGP_sfc_dewp_048.txt.gz
Dewpoint
25 25 23 20 23 19 24 23 23 32 39 46 47 46 50 56 55 57 58 59 58 58 59 59 60 60 61 64 66 67 68 70 69 66 64 65 65 67 67 68 71 74 73 74
24 21 21 23 20 22 19 27 30 31 36 43 45 45 46 55 55 57 57 57 57 57 58 59 60 61 61 64 66 68 69 71 71 66 67 65 66 65 66 69 73 73 73 74
23 21 19 19 21 21 21 18 21 29 35 36 43 44 45 48 55 56 57 57 57 56 57 59 60 61 62 64 66 68 70 71 71 70 66 68 68 68 68 70 69 72 73 74
23 22 23 20 20 19 17 16 17 19 28 31 37 37 44 45 52 55 57 56 56 57 57 59 60 61 61 64 66 68 70 71 71 72 69 73 66 65 64 67 67 70 73 73
28 28 27 26 24 21 20 17 16 17 17 29 34 36 40 43 45 52 54 56 56 57 57 58 60 62 62 63 65 68 71 73 73 73 73 68 69 62 64 65 71 74 75 74
27 30 28 28 28 26 25 23 21 20 14 11 26 33 36 39 44 46 52 54 57 57 57 58 60 62 63 63 64 67 71 73 73 71 71 73 72 69 64 68 66 66 67 71
20 23 27 28 28 29 27 23 20 18 14 9 17 23 35 37 40 45 47 52 55 58 59 59 59 61 63 64 64 65 70 73 73 71 71 71 72 73 72 71 67 69 64 65
8 7 18 28 27 27 28 24 23 23 13 10 15 16 23 35 39 41 47 48 53 56 57 59 61 61 63 64 65 66 69 72 73 72 74 75 74 68 68 71 67 66 64 64
13 9 26 25 29 30 28 25 24 23 22 17 12 15 15 27 35 38 40 46 48 55 57 59 61 62 62 64 67 68 70 71 71 70 73 75 74 73 70 74 71 67 71 65
22 9 11 19 22 26 30 26 24 23 25 23 21 22 14 26 35 36 38 41 47 53 57 59 61 62 62 63 65 66 68 70 70 69 70 70 71 73 73 72 73 73 70 72
20 15 12 12 5 11 23 26 27 25 24 23 22 20 25 26 28 36 37 40 42 51 56 58 60 61 62 63 64 65 66 68 69 70 71 71 70 70 71 71 72 73 72 72
24 20 19 10 5 10 14 27 26 23 28 26 25 23 23 27 27 28 34 39 41 48 54 57 58 60 61 62 63 64 65 66 68 70 73 71 71 71 70 71 71 73 73 73
26 21 16 4 3 10 12 14 24 28 29 30 26 26 30 31 32 32 31 33 42 45 50 55 56 59 60 62 63 62 64 64 65 68 68 68 69 69 71 72 72 73 73 73
26 18 19 7 8 12 20 21 22 26 26 27 27 29 33 32 32 34 36 39 37 41 48 51 55 57 61 63 67 67 64 63 63 65 66 69 70 70 69 73 74 72 74 73
29 29 22 18 17 16 14 10 18 26 30 29 28 28 31 36 35 35 36 37 38 40 45 52 54 58 64 66 68 68 65 66 65 68 66 69 72 72 73 74 74 73 74 74
29 28 23 19 17 17 14 10 9 17 24 28 30 31 33 35 39 37 36 38 41 47 45 44 52 56 60 63 67 69 69 67 68 70 69 71 74 75 74 75 76 75 75 75
33 31 27 18 15 12 10 12 15 14 21 26 28 32 35 38 42 42 43 43 50 53 55 56 54 53 57 60 65 67 70 69 70 72 72 73 75 75 75 75 76 76 76 75
32 34 33 20 16 17 15 15 16 17 18 26 30 33 34 42 47 57 58 58 59 59 60 60 59 60 56 57 59 65 66 71 72 73 73 74 75 75 76 76 76 77 75 76
31 35 30 27 23 20 21 23 28 19 20 28 33 34 32 39 47 58 60 60 61 63 64 64 64 62 64 58 60 64 65 68 71 72 73 74 75 75 75 75 76 75 75 75
31 35 34 30 24 22 27 34 35 38 31 42 43 42 37 43 44 48 59 60 60 63 64 66 66 66 65 65 58 61 65 67 70 72 73 75 75 75 75 76 76 76 75 74
33 36 31 28 27 27 28 34 37 36 39 43 44 48 53 48 53 55 54 56 59 62 65 67 67 66 65 64 59 66 67 68 70 70 71 74 75 76 76 77 77 76 75 74
31 31 30 31 28 25 38 37 37 44 43 43 44 47 48 47 47 47 49 50 54 60 66 66 63 61 60 60 65 69 70 71 73 73 73 75 76 72 72 77 77 76 76 76
32 35 34 33 34 40 39 39 46 44 46 44 43 45 44 42 44 46 47 48 49 53 62 67 65 63 64 66 67 69 73 74 73 73 75 75 75 74 76 76 76 73 75 72
36 37 35 34 37 37 40 43 46 47 45 45 45 44 45 46 45 46 48 49 50 52 53 64 68 69 69 68 68 70 72 75 74 73 74 74 74 73 74 73 73 71 71 71
36 38 36 35 36 39 42 42 46 45 46 45 44 46 45 46 46 46 50 51 53 54 54 56 64 67 68 70 70 72 72 73 72 73 73 73 72 73 73 73 68 71 73 67
40 37 35 34 39 39 39 45 46 45 44 45 45 45 48 48 48 49 51 53 53 54 55 56 57 62 65 66 68 69 71 73 71 71 70 69 69 71 71 73 69 49 48 46

GFSCGP_sfc_dewp_051.txt.gz
Dewpoint
32 30 25 27 29 23 16 13 19 25 34 43 46 50 61 52 52 56 58 58 58 58 58 59 59 59 59 61 63 66 68 73 69 67 66 66 64 67 68 72 71 73 71 72
24 22 24 23 22 20 18 18 21 23 33 44 46 47 49 51 52 55 56 57 57 57 58 59 60 59 58 61 64 69 70 74 71 67 69 68 68 65 65 66 72 72 72 73
27 22 21 21 22 20 20 18 20 28 31 37 43 45 46 52 52 54 55 56 57 56 57 58 59 59 59 61 64 69 72 74 73 72 69 69 69 67 65 70 69 71 72 73
22 22 21 20 19 21 20 19 17 20 31 32 38 38 46 48 51 52 54 54 56 56 57 58 59 59 59 61 64 70 72 74 73 74 69 72 66 64 63 66 66 69 72 72
25 21 19 21 19 20 21 20 16 15 18 25 31 35 42 45 51 49 53 54 54 56 56 57 58 60 60 61 63 66 73 74 74 74 73 68 70 64 63 62 75 75 76 73
26 26 23 20 21 22 23 20 21 18 13 14 24 32 35 41 44 48 50 53 54 55 56 57 59 60 60 61 63 66 73 75 75 75 74 74 72 70 62 65 67 66 68 70
15 18 27 27 24 25 25 22 20 19 15 11 15 25 34 37 45 44 47 51 54 55 56 57 58 59 62 63 64 67 72 74 75 74 73 73 74 74 74 72 65 67 63 64
7 7 13 21 24 24 25 23 19 23 17 12 14 16 25 34 38 50 53 50 52 54 54 56 58 60 63 64 66 67 71 74 75 73 74 74 75 66 64 70 65 64 62 63
6 8 19 23 22 24 26 25 22 18 19 18 14 13 14 25 31 38 42 47 51 52 54 56 58 59 62 64 67 68 71 74 74 70 74 75 74 72 66 70 73 68 72 64
17 18 13 14 23 24 26 28 23 21 22 23 21 21 13 20 25 31 38 42 47 51 54 55 58 59 61 62 64 67 69 72 73 72 73 73 74 75 73 74 75 73 72 74
14 17 11 10 16 12 11 18 25 24 21 19 21 21 25 24 23 26 31 39 43 46 52 54 57 59 60 61 63 64 67 70 71 72 73 72 72 72 74 74 74 75 74 75
15 13 12 9 7 -0 2 13 13 20 29 24 20 21 24 25 22 24 29 36 38 44 49 54 55 59 61 61 62 64 65 65 69 71 73 72 72 72 71 73 74 76 76 75
21 19 13 15 12 11 7 9 19 20 19 28 22 20 25 28 28 31 29 30 39 42 45 52 54 57 60 61 63 62 64 63 65 70 70 71 71 72 71 74 74 75 76 76
26 20 19 12 16 14 13 5 8 16 19 22 23 27 27 31 31 33 34 32 34 42 47 49 54 56 59 63 66 66 63 63 63 65 67 70 71 72 71 73 75 75 76 76
25 22 22 19 16 15 13 13 13 16 19 19 23 26 31 34 36 35 34 37 38 37 43 47 51 58 64 65 68 68 65 67 65 67 67 69 73 73 73 73 75 75 76 76
25 26 26 25 18 15 11 12 12 10 9 20 25 28 30 34 36 38 39 38 39 41 43 44 50 54 59 65 67 69 68 67 67 69 68 70 73 74 73 74 75 76 76 77
32 28 29 24 21 16 14 15 12 12 11 9 12 23 28 31 34 36 38 39 39 40 43 47 45 51 54 57 66 67 70 69 69 71 70 72 74 74 75 75 76 76 77 77
33 37 37 29 23 18 15 12 8 9 10 11 14 16 22 28 32 35 44 54 55 54 51 55 54 53 53 53 56 64 66 72 71 71 73 73 74 75 76 76 76 77 76 77
29 37 36 31 25 21 15 13 11 29 27 32 33 29 18 23 27 35 39 57 59 60 60 61 60 60 61 56 56 64 65 71 71 72 73 74 74 75 76 76 76 77 76 77
27 33 36 31 26 23 20 17 34 33 29 28 32 33 25 20 23 30 56 60 60 61 61 63 63 63 63 64 60 57 63 67 71 72 73 75 75 76 76 77 77 78 77 77
33 37 33 33 28 28 25 30 34 28 27 37 44 35 24 25 30 39 56 58 60 62 64 66 67 66 67 66 64 64 63 67 70 72 73 76 76 77 77 78 78 78 77 75
33 34 33 33 30 28 38 35 33 36 41 39 46 32 36 44 52 53 53 55 58 59 61 64 69 67 67 68 69 69 68 69 73 74 74 76 77 74 74 78 78 78 78 78
34 37 36 36 34 41 41 41 41 41 42 42 49 48 50 50 50 51 52 54 55 56 60 62 68 68 64 68 70 71 70 74 74 75 75 76 77 77 76 77 78 75 77 72
37 38 35 34 38 40 40 40 42 43 44 48 48 46 45 47 48 49 51 51 53 55 56 59 66 71 71 71 69 70 76 75 76 76 76 76 76 76 76 74 74 72 71 71
37 37 36 35 38 38 40 42 42 45 47 48 47 48 48 47 49 50 51 52 53 54 56 57 61 65 67 70 72 71 73 75 74 75 75 75 73 74 75 75 71 71 69 66
39 37 34 34 37 39 39 42 45 46 46 47 49 47 48 49 51 52 53 54 54 54 56 56 58 60 61 63 64 65 68 76 73 73 72 71 70 72 72 70 68 52 56 49

GFSCGP_sfc_dewp_054.txt.gz
Dewpoint
38 34 32 30 28 27 22 17 13 21 26 42 46 54 54 56 56 57 57 57 57 57 58 59 58 58 61 62 66 70 71 74 72 71 70 70 70 70 71 73 73 76 76 75
29 31 32 24 27 26 26 23 16 15 21 35 51 53 54 54 58 58 56 56 56 56 58 59 59 58 59 63 66 70 71 73 72 71 73 73 69 71 71 70 76 75 74 76
26 23 25 24 22 23 21 20 18 17 22 29 34 50 52 52 55 60 53 55 56 57 57 59 59 59 60 63 66 69 72 73 72 74 72 75 76 73 70 74 73 75 74 75
29 28 22 19 21 21 20 19 18 17 19 25 32 33 52 55 57 58 57 54 54 56 58 59 59 59 59 63 66 69 72 74 72 74 71 74 71 70 68 72 72 74 76 75
23 24 25 22 20 20 20 21 20 19 17 21 29 31 35 54 55 57 61 55 54 56 57 58 59 60 59 63 64 68 71 74 73 73 73 71 72 70 73 71 74 75 78 77
19 23 19 19 19 20 19 19 21 21 14 13 18 24 30 40 51 53 59 58 56 55 56 59 60 61 61 62 64 67 70 72 74 73 73 73 71 73 71 71 71 72 73 75
17 19 24 26 19 19 19 18 19 18 16 12 13 14 24 34 49 55 54 58 59 57 56 58 60 61 62 62 64 67 70 71 73 73 71 74 72 72 75 75 72 71 71 71
9 2 11 24 26 22 21 20 19 20 16 16 20 14 16 23 37 52 55 57 60 55 55 57 59 61 62 62 64 66 70 71 72 73 72 73 74 69 70 73 70 73 72 71
9 9 11 9 21 23 23 23 21 18 18 17 17 18 18 19 27 42 51 54 58 59 57 57 59 60 62 63 64 67 70 71 72 71 73 71 74 73 69 73 74 73 74 71
18 17 14 15 19 19 20 23 22 21 23 23 18 22 18 24 27 36 49 51 55 62 63 59 58 60 62 63 65 66 70 71 72 72 72 71 70 73 73 69 73 73 75 75
16 14 11 14 15 15 17 17 23 25 25 22 20 20 28 34 28 31 49 53 49 54 62 64 65 60 62 63 65 65 68 71 72 73 72 71 71 71 71 72 69 75 73 78
20 12 13 12 11 13 13 13 8 10 28 27 24 20 23 31 25 24 25 32 53 57 62 63 61 62 61 63 64 65 66 69 71 73 72 71 72 71 70 69 73 73 76 75
23 18 15 14 11 9 8 4 4 5 9 22 24 23 25 28 33 30 27 30 42 59 56 57 64 64 60 61 64 64 66 65 70 72 71 71 71 71 71 71 71 74 74 76
27 21 22 15 15 18 16 12 8 4 12 16 13 23 30 33 40 42 41 43 38 45 56 60 62 65 61 63 65 65 65 66 66 70 70 71 71 71 70 72 71 73 75 74
24 22 22 20 19 18 17 14 13 9 10 16 18 19 26 36 39 42 44 44 46 44 43 48 51 64 66 65 66 66 66 66 66 68 69 71 72 72 72 72 73 72 73 74
24 23 24 23 22 20 19 15 13 13 8 7 12 17 22 29 34 38 41 43 43 45 45 51 51 62 62 66 67 67 67 67 67 68 68 70 72 73 73 72 73 74 73 74
30 28 27 24 22 21 20 19 15 14 15 14 13 19 22 23 27 34 35 36 39 44 47 50 54 58 66 64 67 67 68 68 68 69 70 70 72 73 73 73 72 74 73 74
29 36 37 30 27 25 26 25 21 16 15 15 16 17 21 23 23 25 28 33 37 45 50 61 50 57 63 65 69 68 68 70 70 70 71 71 72 72 73 73 73 73 74 74
25 32 35 31 28 25 22 22 19 24 19 15 24 25 24 23 24 29 29 30 35 43 49 61 60 61 66 65 66 68 69 69 69 70 71 71 71 72 73 73 73 73 74 74
29 29 37 34 28 23 23 19 28 28 23 23 22 23 23 24 24 30 34 28 42 64 60 61 61 62 62 66 64 65 66 70 69 69 71 73 71 73 73 73 73 74 74 74
35 37 35 34 31 26 25 22 30 26 24 34 37 37 37 37 41 46 47 38 56 62 62 64 65 66 68 68 67 67 67 66 71 70 71 73 73 73 74 75 75 75 75 75
33 36 34 35 32 28 38 35 32 36 39 39 39 38 39 40 42 47 49 50 56 59 60 62 64 66 70 70 69 68 70 70 72 73 72 75 75 72 73 76 76 76 76 76
34 36 33 35 36 40 39 40 42 42 41 40 40 40 42 43 45 48 52 55 57 57 59 61 64 68 73 73 73 70 71 73 75 75 73 74 75 75 75 76 76 75 76 75
34 39 35 35 36 37 40 40 41 41 41 41 42 42 46 46 48 52 53 53 54 56 56 57 62 65 65 67 70 74 73 74 74 74 75 74 75 75 75 75 75 75 75 75
38 38 36 35 37 38 39 41 42 43 44 43 45 46 48 50 52 51 52 52 54 55 56 57 60 61 61 63 67 69 71 74 71 75 74 74 74 74 75 74 75 75 75 72
39 37 34 33 38 37 38 41 41 42 44 46 48 49 50 52 52 51 51 53 54 55 57 56 56 57 58 60 63 66 68 70 75 73 73 72 73 73 74 73 71 51 54 50

GFSCGP_sfc_dewp_057.txt.gz
Dewpoint
40 39 35 32 32 30 28 27 23 19 22 43 51 58 61 60 61 63 63 59 58 58 59 57 56 58 63 62 62 66 67 68 71 71 70 69 68 68 70 71 73 73 74 73
35 35 37 34 32 30 26 26 25 25 20 26 50 54 56 60 59 63 62 59 58 58 58 57 55 59 62 63 63 68 69 68 70 69 70 69 69 67 68 72 73 72 72 72
31 30 34 32 31 24 25 25 25 23 21 34 51 51 53 55 58 61 63 61 59 57 56 57 55 57 61 64 65 67 70 69 70 68 69 71 69 70 68 70 72 73 73 73
29 31 27 28 27 25 21 24 22 19 19 19 48 45 51 53 57 61 60 60 59 57 56 57 56 57 59 63 65 68 70 69 69 68 67 69 67 66 67 69 71 72 72 72
24 25 27 27 23 21 20 23 21 21 19 18 17 19 47 52 56 57 61 57 56 59 57 56 56 56 59 63 64 68 70 69 68 70 67 68 67 69 68 69 70 72 73 73
16 19 23 26 25 23 21 20 19 21 20 18 16 17 26 51 54 55 54 55 56 58 57 57 57 57 60 63 64 67 70 68 68 69 71 67 67 68 67 69 69 71 73 73
17 18 20 21 21 19 20 25 18 19 18 18 17 14 14 52 54 55 54 55 58 61 57 57 57 57 59 62 63 66 68 70 68 68 69 71 67 68 68 69 70 70 71 72
10 8 7 17 24 26 20 18 20 17 19 18 20 17 19 18 55 54 53 57 61 60 59 57 58 58 58 61 63 65 66 68 69 68 67 70 70 66 69 70 69 70 70 70
16 14 18 16 19 26 25 23 19 17 18 19 19 19 21 21 41 53 54 56 57 59 63 63 59 58 59 61 62 64 66 66 69 69 67 68 72 66 68 68 69 67 69 70
19 15 16 13 16 24 23 25 21 20 18 19 21 22 24 24 19 50 53 54 60 62 64 65 65 63 61 60 62 64 67 66 69 69 69 66 68 71 68 67 69 68 67 69
20 17 15 14 14 16 20 21 25 22 25 22 19 20 25 30 35 49 52 53 59 58 63 65 65 67 64 61 61 63 67 67 68 68 70 67 66 70 70 68 66 70 68 73
23 19 16 14 14 14 14 16 17 17 19 26 28 27 29 33 40 44 51 51 58 61 63 64 63 65 64 61 60 62 65 68 69 69 68 69 68 68 69 69 67 65 70 70
24 22 18 14 11 15 16 13 9 9 7 7 13 22 34 34 36 40 44 46 55 59 63 57 61 63 63 61 61 61 63 68 69 70 69 69 69 66 67 66 69 66 71 69
30 21 21 19 20 21 19 18 17 13 5 7 10 14 14 32 34 34 40 40 48 60 61 58 59 60 59 61 64 61 62 65 68 70 70 69 68 69 66 66 65 71 68 73
27 22 23 21 20 19 19 18 17 16 15 13 10 13 29 29 29 33 32 33 37 42 60 60 59 58 66 64 66 65 63 63 67 69 70 70 69 68 69 67 67 63 72 68
30 27 23 22 21 21 20 21 21 20 16 14 14 11 15 19 20 21 20 21 24 28 39 43 49 50 65 63 59 61 63 64 64 68 69 70 70 69 69 69 70 67 66 72
33 33 31 25 25 25 23 20 21 21 21 15 13 16 19 22 24 22 23 27 27 25 32 46 50 60 63 61 59 59 60 64 64 65 69 69 69 70 69 69 69 71 67 68
28 34 36 28 28 23 27 27 26 24 23 24 22 18 25 27 27 26 28 29 32 40 42 59 58 67 67 68 66 66 66 66 65 65 67 69 70 70 70 70 69 70 70 69
30 29 30 26 27 25 25 24 23 25 26 28 27 28 29 35 33 28 35 41 42 45 46 59 52 62 67 67 66 66 66 65 65 66 66 68 69 70 70 70 70 69 70 71
33 36 36 33 25 21 22 24 23 26 22 26 35 36 36 36 33 34 39 39 42 46 48 57 54 61 61 68 66 64 65 64 64 65 67 68 69 70 70 70 70 71 69 69
32 33 31 33 32 33 35 36 35 29 29 39 38 38 37 36 37 39 41 41 42 44 45 58 61 62 64 66 69 68 67 64 67 66 67 70 68 69 70 71 70 70 70 70
31 31 32 33 31 27 36 36 35 37 38 39 39 39 37 37 38 39 42 44 44 46 49 59 60 61 64 69 69 69 69 69 70 70 69 69 69 69 70 70 71 70 70 70
30 36 32 33 33 36 38 38 39 39 38 38 39 39 39 39 39 40 43 45 48 53 57 58 58 59 63 66 66 68 69 70 70 72 70 71 72 69 70 71 71 71 71 71
36 38 35 33 36 36 39 39 40 40 40 40 40 41 41 40 41 42 45 48 53 55 55 57 58 60 61 61 62 66 68 69 71 71 73 70 72 71 69 72 72 72 72 72
38 38 36 35 37 39 38 39 40 40 40 41 43 41 42 42 44 46 48 51 54 55 56 56 57 57 57 57 60 62 63 66 68 72 73 71 71 71 71 72 73 72 73 71
38 37 34 33 38 38 38 41 41 40 40 41 43 45 45 48 48 48 50 54 55 55 55 55 55 55 56 56 56 57 59 62 65 70 71 72 70 72 72 72 67 50 52 52

GFSCGP_sfc_dewp_060.txt.gz
Dewpoint
35 37 37 38 34 32 31 29 28 28 28 31 55 59 62 63 62 60 60 60 58 59 60 58 58 63 64 65 65 66 66 68 68 69 68 69 67 68 68 72 72 72 72 69
37 37 38 37 34 32 31 29 27 27 28 30 57 58 61 61 61 61 61 60 59 59 59 59 57 61 62 63 64 66 66 67 68 68 69 68 68 67 68 71 73 72 72 71
35 35 37 37 35 32 31 29 28 26 27 53 55 55 58 59 60 62 63 62 63 59 58 58 58 60 61 61 65 66 67 68 68 68 69 70 69 68 68 70 71 72 71 71
35 36 32 33 33 31 28 26 25 25 22 25 49 47 52 57 58 61 57 59 61 61 59 59 58 60 60 60 65 67 67 68 68 67 68 68 67 67 66 68 70 72 72 72
26 27 31 30 28 30 28 27 23 25 22 19 23 18 44 55 56 60 56 56 58 60 58 58 57 61 61 61 64 68 67 68 68 66 65 67 67 67 67 68 69 71 72 72
15 18 20 25 27 29 26 22 20 21 20 17 18 16 42 51 55 59 60 61 61 59 58 57 57 59 61 62 63 68 68 67 68 67 66 66 67 67 68 67 69 70 72 72
12 14 16 20 21 24 21 19 17 17 15 16 19 17 17 51 52 57 59 60 59 58 57 58 57 57 60 62 64 68 68 66 67 68 69 66 66 66 67 68 68 69 71 72
7 7 9 15 22 24 21 18 18 15 16 18 20 17 19 40 52 55 57 58 56 56 59 59 57 57 59 61 63 67 67 66 66 67 68 70 66 66 68 68 69 69 70 71
15 14 18 16 14 23 24 22 19 17 26 18 20 21 25 34 34 55 54 54 56 57 60 61 57 57 60 61 62 64 67 66 66 66 66 68 70 67 67 69 70 70 70 70
19 12 16 16 15 20 29 24 20 21 17 18 20 21 23 34 42 50 53 54 54 61 61 62 59 57 61 61 62 64 65 67 67 66 65 65 67 70 66 67 68 69 69 70
21 16 15 13 13 15 13 16 20 21 24 21 19 20 32 38 41 43 53 54 55 60 62 64 62 62 63 64 62 63 64 65 68 68 67 65 65 68 70 66 66 68 68 68
23 19 17 15 18 17 14 18 16 17 16 22 26 24 33 36 38 35 41 54 59 61 62 63 63 64 62 62 62 62 64 64 65 68 68 67 65 66 69 69 66 66 68 71
24 21 18 13 16 22 20 20 19 15 10 7 8 12 29 34 37 34 35 54 59 62 62 64 62 60 58 61 61 62 64 65 65 66 68 68 66 65 66 68 69 65 65 68
29 21 20 18 20 21 19 20 21 16 11 11 11 12 21 23 24 25 34 42 61 63 63 62 59 59 60 61 61 61 62 66 66 66 67 67 68 66 64 66 67 69 65 64
26 20 22 21 21 21 21 20 21 21 20 15 14 14 16 21 21 20 25 31 51 60 62 54 54 48 55 61 62 63 64 64 67 67 67 66 68 69 66 64 66 66 69 66
32 28 29 26 25 25 24 25 24 21 21 21 20 15 19 24 25 25 27 28 36 41 47 43 52 57 61 59 53 64 65 66 67 68 68 68 67 69 69 67 65 66 65 69
30 30 28 24 27 26 22 23 24 23 24 23 21 23 24 27 27 26 38 41 42 43 44 47 53 64 65 65 64 62 64 66 66 68 68 69 70 69 69 69 67 65 65 63
28 31 30 27 28 21 22 27 26 24 25 27 27 31 35 36 36 39 39 38 37 39 43 43 45 57 64 65 67 66 66 66 65 66 68 70 70 70 69 68 68 68 68 64
32 30 27 27 23 25 25 29 31 30 26 38 37 37 37 37 35 32 39 40 39 40 40 43 46 55 64 63 65 67 67 67 66 65 65 68 70 70 70 69 68 69 69 69
33 34 31 31 25 22 31 33 35 35 23 37 38 37 38 37 33 34 38 39 42 41 41 41 46 57 62 68 66 64 66 67 64 65 64 65 68 70 70 70 69 69 68 69
29 30 28 31 29 32 32 35 38 26 27 37 37 37 37 36 37 38 39 39 41 41 40 43 49 61 63 64 65 64 64 64 64 66 65 66 65 68 70 70 70 69 69 68
30 28 29 29 28 26 35 34 32 35 37 37 36 37 37 38 39 40 39 39 39 41 41 52 56 60 62 65 67 68 67 67 64 63 64 64 65 67 69 69 70 70 70 69
28 31 28 32 28 35 37 37 39 39 37 37 36 37 38 38 39 39 40 40 41 43 46 54 57 57 60 64 64 63 66 69 70 70 70 68 70 69 68 69 69 70 69 70
36 35 33 33 33 34 37 40 40 39 39 37 37 39 40 41 42 40 40 41 43 46 48 55 56 57 59 59 59 61 63 64 65 66 68 71 72 71 71 68 72 70 69 69
34 36 34 34 36 37 38 39 41 41 41 39 39 41 41 44 43 42 42 43 45 48 50 55 56 55 56 56 57 58 58 59 61 62 66 70 72 70 71 71 71 70 71 69
38 35 34 30 34 36 37 40 41 41 39 41 40 41 41 43 45 46 46 46 47 48 53 55 54 55 56 55 54 55 55 56 58 60 63 68 72 72 72 71 67 52 53 56

GFSCGP_sfc_dewp_063.txt.gz
Dewpoint
32 30 31 34 37 36 32 30 29 30 30 27 55 55 60 61 62 61 60 60 57 58 59 58 62 63 64 65 65 64 64 68 69 67 66 68 67 68 69 71 72 71 70 69
36 33 37 39 36 33 32 30 30 30 29 29 38 55 60 62 61 61 60 59 58 58 58 58 60 64 64 64 64 64 64 68 69 67 67 68 67 68 69 71 72 71 71 69
34 36 38 38 38 35 32 30 30 29 28 55 55 55 58 61 61 62 62 61 60 58 58 58 61 63 64 64 64 65 64 67 68 68 68 68 68 67 68 70 71 71 72 71
35 36 36 34 35 35 32 32 31 28 24 19 50 43 55 58 58 60 62 61 60 58 59 59 59 62 63 63 64 65 65 67 67 67 68 68 66 65 66 68 70 71 72 71
31 28 35 32 30 32 31 32 28 26 21 20 24 29 39 57 56 57 61 62 61 60 59 58 57 60 62 62 64 65 66 66 67 67 67 67 66 66 66 67 69 70 71 71
14 17 21 27 29 30 31 29 21 21 19 16 17 18 35 53 54 56 59 61 61 61 60 60 59 60 61 61 63 65 66 66 67 66 66 67 67 67 67 66 68 69 71 71
13 13 17 21 21 22 23 20 18 17 16 15 19 17 18 48 55 55 57 60 57 59 59 60 58 59 59 60 63 66 66 66 67 66 65 66 66 66 67 67 67 69 70 71
6 6 12 17 19 20 19 19 17 14 16 17 21 16 21 37 46 54 56 57 58 59 61 59 57 60 60 60 62 66 66 65 67 66 66 66 65 66 66 68 68 68 69 71
14 14 17 17 16 18 22 20 19 18 23 16 19 21 27 41 42 44 55 59 59 60 61 60 58 59 60 60 61 65 66 65 66 66 66 67 66 65 66 68 69 69 69 70
19 14 16 16 16 16 18 23 22 19 15 14 19 21 31 37 36 40 53 57 59 60 60 59 59 57 60 61 61 64 66 65 66 66 66 67 68 67 66 67 69 70 70 70
26 16 14 14 15 14 17 18 18 21 20 18 18 26 34 37 35 36 45 54 57 55 58 60 59 59 59 61 61 63 65 65 65 65 65 65 66 69 68 66 66 68 69 70
25 19 16 16 20 20 20 19 17 17 18 20 23 25 25 34 32 31 55 54 55 59 59 64 65 65 64 64 64 64 64 65 65 65 65 65 64 66 69 68 66 66 67 68
27 20 14 11 14 21 20 21 22 17 12 12 10 16 21 23 22 27 51 59 62 62 62 61 62 63 63 63 62 63 64 64 65 66 65 65 64 64 65 68 69 66 66 67
28 21 19 16 19 21 20 21 21 19 17 16 12 16 16 20 23 25 31 45 58 62 56 58 60 62 62 61 62 62 63 63 64 65 66 66 65 64 64 65 67 68 65 66
25 24 27 23 22 23 22 24 23 20 21 19 17 18 17 21 22 26 37 42 45 50 47 50 57 59 62 63 61 61 62 63 65 64 66 66 67 66 64 64 65 67 68 66
30 27 28 25 28 26 23 24 23 23 21 21 21 22 23 28 29 38 39 39 38 40 43 48 47 51 55 63 65 62 61 65 65 65 65 67 67 67 66 65 64 65 66 67
28 28 26 22 28 24 20 24 25 25 25 23 22 26 35 35 35 38 38 38 38 38 37 41 46 52 52 61 65 65 65 66 67 66 67 67 68 67 68 67 65 64 64 65
28 28 27 24 25 16 22 33 31 26 35 37 36 37 38 37 37 39 39 38 38 40 39 38 37 46 50 57 63 66 66 65 65 68 67 67 67 67 68 69 67 65 64 65
30 29 26 23 20 24 27 33 31 32 33 37 37 37 37 37 36 37 39 38 38 39 39 39 39 42 49 58 66 66 66 67 66 66 68 68 68 69 68 68 68 68 66 65
32 32 28 28 22 21 30 32 33 35 30 35 36 36 36 36 33 33 38 39 39 39 39 40 40 45 51 59 64 65 65 66 66 66 64 65 68 69 70 69 68 68 68 67
25 26 23 29 30 31 33 34 35 28 29 36 36 35 35 34 36 37 38 39 40 40 40 40 40 46 54 57 62 64 65 65 66 66 65 65 64 66 70 71 71 70 69 69
27 25 18 28 25 20 35 34 28 33 37 36 35 35 34 35 36 37 39 40 40 40 40 40 40 43 52 57 60 62 63 66 69 69 65 64 64 67 68 69 70 71 70 69
29 27 24 27 26 33 36 35 38 39 36 35 35 35 36 36 36 39 41 41 41 40 40 41 42 44 51 59 61 62 61 63 65 64 65 67 69 65 67 68 68 69 70 69
34 35 28 29 29 33 34 37 39 40 39 39 39 39 38 37 38 40 43 43 42 41 42 43 45 46 50 56 60 59 60 61 61 61 63 64 65 68 71 71 70 68 69 69
31 36 34 33 33 34 36 38 39 39 41 40 39 40 39 40 41 41 44 44 44 46 45 45 47 48 52 56 57 57 58 57 57 58 61 62 64 68 71 71 70 69 69 68
36 33 31 28 32 32 32 37 40 40 41 40 40 40 41 41 41 42 42 44 45 46 46 48 47 48 52 56 56 56 56 55 55 56 58 60 62 64 68 71 70 53 56 55

GFSCGP_sfc_dewp_066.txt.gz
Dewpoint
33 30 30 33 36 37 34 31 31 31 36 37 37 52 59 61 62 62 61 59 58 57 58 60 60 62 63 65 67 67 67 68 69 68 67 68 68 69 70 71 72 72 72 71
33 28 32 34 38 37 33 32 31 30 32 28 39 48 58 59 62 62 61 59 58 58 57 58 60 59 62 65 66 66 67 68 69 68 68 69 68 70 71 71 72 72 72 70
32 35 35 39 37 34 34 33 31 30 31 44 53 51 57 61 62 62 62 61 60 58 58 57 61 61 63 65 65 65 66 68 69 68 69 69 68 69 69 71 72 72 72 71
35 36 37 36 35 37 34 33 32 32 26 20 48 38 52 58 59 60 61 61 60 58 59 58 59 63 64 64 65 66 66 68 69 68 68 68 67 66 68 70 71 72 73 72
32 32 35 34 33 34 35 32 31 28 25 20 25 40 35 55 56 58 61 61 60 60 58 59 60 63 64 64 65 65 66 67 69 68 68 68 67 67 68 70 71 72 73 72
24 17 30 34 35 32 31 27 21 21 19 17 18 34 20 51 54 55 59 61 61 60 59 60 60 63 64 64 64 65 66 67 68 68 68 68 67 67 67 68 69 70 72 73
12 16 18 19 20 25 25 22 20 17 17 16 19 18 21 36 39 47 56 60 62 61 60 60 59 60 63 64 64 65 66 66 67 68 67 68 68 68 68 68 68 69 70 72
7 8 13 16 15 14 22 21 19 14 16 16 23 17 25 39 41 41 55 59 61 62 61 60 59 59 61 63 63 65 65 66 67 67 67 67 68 68 68 68 68 69 70 71
12 13 16 16 15 19 20 20 23 18 21 16 19 26 32 35 33 35 40 57 60 60 61 61 60 60 61 61 63 64 66 66 67 67 67 66 67 68 68 69 70 69 71 71
20 13 16 17 16 17 20 22 20 19 15 15 19 30 32 33 32 33 40 50 58 59 58 60 61 59 61 61 62 64 65 65 66 67 67 66 66 67 67 68 69 70 70 71
25 15 14 17 18 18 20 19 18 21 19 17 21 28 28 32 34 30 55 60 55 60 62 62 64 60 62 61 61 63 65 65 66 66 67 67 67 67 67 67 68 70 71 71
23 18 17 18 20 22 21 21 18 20 19 16 24 25 22 23 25 33 50 61 61 61 63 64 64 65 63 64 64 63 64 65 65 66 67 67 67 68 67 66 67 69 70 71
27 19 13 19 15 20 20 21 20 17 14 16 19 17 19 24 27 38 47 45 48 55 59 60 62 64 65 65 65 65 65 65 65 66 66 66 66 67 68 68 68 68 68 68
28 23 17 12 17 21 21 22 22 19 19 18 17 22 20 25 29 38 41 40 43 46 47 51 55 59 64 64 65 65 66 65 66 66 66 66 66 66 66 68 69 68 68 68
25 26 25 24 24 24 23 24 23 21 20 18 16 24 24 31 33 38 38 38 38 39 42 44 48 50 52 59 66 66 64 66 65 66 66 66 66 66 66 67 68 69 68 68
29 28 27 25 29 26 23 24 24 23 23 23 23 23 35 36 38 38 38 38 39 40 38 41 41 47 48 54 57 64 65 64 65 65 65 68 68 68 67 67 67 68 69 68
28 27 23 18 28 24 22 26 25 25 28 31 23 32 38 37 37 37 38 38 38 38 40 39 40 45 48 52 57 62 65 67 66 66 66 67 68 68 68 68 67 67 67 68
28 26 25 22 21 9 22 33 32 30 36 37 37 36 36 36 37 37 39 38 38 38 39 40 39 39 44 49 57 64 66 66 66 67 67 68 68 68 69 69 68 67 66 67
30 28 25 21 17 23 30 32 30 31 30 36 35 35 35 35 35 37 39 38 38 39 40 40 40 41 41 47 57 63 65 66 67 66 68 69 68 68 68 69 69 68 67 66
30 30 27 23 21 20 29 32 33 34 30 35 36 34 34 34 31 32 37 37 38 39 40 41 42 41 40 43 54 59 61 65 65 66 67 67 68 69 69 69 69 70 69 68
24 25 24 26 25 29 33 34 36 27 27 36 36 34 33 33 34 35 37 38 39 39 41 43 43 42 41 41 49 56 59 61 66 68 68 67 66 67 70 71 71 71 70 70
22 18 18 28 25 18 35 32 26 31 36 37 35 34 33 34 35 36 36 37 38 41 43 44 42 42 43 43 48 53 58 61 66 65 66 66 67 66 68 69 71 71 71 70
26 25 22 24 24 31 36 33 36 37 37 36 36 34 36 37 37 37 36 37 40 42 44 43 42 43 44 46 47 50 55 63 64 64 63 64 65 67 68 67 68 71 71 70
34 32 26 28 28 32 34 37 38 38 38 39 36 37 38 38 38 38 37 38 41 43 45 44 44 44 45 46 46 48 52 60 61 61 62 63 63 64 66 69 67 67 69 70
30 34 34 33 32 33 35 37 38 38 40 40 41 40 39 39 40 40 41 41 42 43 44 45 43 43 45 48 48 48 51 58 59 58 60 62 62 63 64 67 70 69 68 67
34 32 30 28 32 31 31 36 39 39 40 41 41 40 41 41 40 40 40 41 42 43 44 45 45 45 45 47 49 50 52 57 56 56 57 59 61 62 63 64 66 59 57 52

GFSCGP_sfc_dewp_069.txt.gz
Dewpoint
29 32 34 41 43 38 36 33 32 32 42 41 32 35 51 62 62 61 61 60 60 60 62 64 64 65 65 65 67 69 70 72 71 70 69 69 69 70 70 71 73 73 74 74
26 25 33 40 41 37 37 35 34 32 33 34 33 37 58 58 61 62 60 59 59 60 61 62 64 64 64 65 67 69 70 72 72 70 70 70 70 70 71 72 73 73 74 74
23 23 32 38 38 37 36 36 34 31 32 43 51 50 56 60 61 62 63 60 59 59 59 61 62 63 64 65 67 69 71 72 72 71 71 71 71 72 71 71 71 72 74 72
30 31 34 39 39 38 37 35 34 32 31 24 42 29 50 57 59 61 62 62 59 59 59 60 61 62 63 65 67 69 70 71 72 73 71 71 69 68 68 70 70 72 74 73
32 35 34 38 38 38 38 35 34 32 31 25 30 32 41 54 55 58 62 62 60 60 60 59 60 62 62 64 66 68 70 71 72 73 73 70 71 68 70 70 73 74 75 74
28 25 36 38 36 35 35 28 25 25 25 23 23 30 29 40 44 44 57 61 61 60 60 60 61 62 63 64 65 67 69 71 72 72 72 72 71 71 69 70 70 70 71 77
16 16 17 25 28 33 32 28 24 23 22 22 23 24 35 37 38 40 46 53 62 62 61 60 61 61 63 64 66 66 68 70 71 71 71 71 72 72 72 72 69 71 70 71
24 21 15 16 18 21 29 27 23 22 20 20 23 21 33 31 38 46 54 54 59 62 61 60 61 62 64 65 66 67 68 69 70 70 72 73 72 69 69 71 69 69 69 70
16 14 16 17 18 21 23 24 23 20 21 19 21 28 31 29 39 48 57 58 57 61 62 62 61 62 63 65 66 67 68 69 69 69 71 72 72 72 70 72 72 69 72 70
20 16 17 18 19 21 24 23 20 22 22 20 25 32 28 30 40 50 57 59 56 59 63 62 62 61 63 64 65 66 68 68 69 69 69 69 70 71 71 72 72 72 72 73
21 17 19 21 21 21 22 22 23 23 23 19 22 27 24 34 47 49 48 55 61 61 61 63 63 63 63 63 64 65 66 68 68 68 70 70 69 69 70 70 71 73 73 74
25 19 19 19 21 22 22 22 21 22 27 24 26 23 27 40 45 43 46 48 52 58 61 64 64 64 64 64 63 63 64 65 67 69 70 69 70 70 69 70 70 72 73 73
26 20 18 18 19 21 22 22 20 16 20 24 21 18 29 42 41 40 40 41 42 45 46 50 53 58 64 65 64 63 64 64 65 68 68 69 68 69 69 70 70 70 72 73
28 24 21 12 20 22 22 22 21 20 19 20 21 23 30 38 38 37 38 38 39 41 41 43 44 50 55 60 65 66 66 64 65 66 66 68 68 69 69 71 71 70 71 71
30 26 26 25 24 23 23 21 20 19 22 20 22 23 31 38 38 38 37 38 38 39 40 41 41 44 48 52 57 63 66 66 66 66 66 67 69 70 69 70 72 71 71 71
30 29 28 26 26 25 21 23 22 21 19 20 21 27 37 38 39 39 39 39 39 39 39 40 41 42 43 49 53 58 63 66 68 67 67 69 70 71 71 71 71 72 71 71
31 30 26 22 27 23 18 25 24 25 32 27 21 35 38 37 37 38 37 40 40 39 40 40 40 40 42 44 48 56 62 66 67 68 67 68 70 71 71 71 71 71 71 72
30 35 34 24 24 17 27 32 31 31 35 36 36 37 36 36 36 36 37 39 40 39 40 41 40 42 43 43 46 52 59 62 65 69 67 68 69 70 71 71 71 71 71 71
32 32 33 29 23 24 27 29 29 29 32 35 35 35 34 35 35 37 39 39 38 39 40 40 41 43 46 45 45 48 53 58 60 66 68 69 69 69 70 70 71 71 70 70
32 34 35 32 24 21 29 29 32 34 25 35 35 34 34 34 30 31 38 37 37 39 40 40 42 45 44 46 44 46 48 54 58 61 66 68 70 69 71 71 71 71 71 70
31 35 33 31 30 29 33 31 35 29 29 35 35 34 34 33 34 36 36 37 38 39 40 42 43 45 46 46 46 48 48 48 54 57 66 66 66 69 69 70 73 72 71 71
30 33 34 32 30 28 35 32 31 34 36 35 35 35 34 35 36 37 37 38 39 39 40 41 43 44 46 47 47 48 49 49 53 58 63 63 65 65 67 70 69 73 73 73
32 35 35 34 34 34 37 34 36 35 34 35 36 34 34 35 36 37 38 39 39 40 40 41 42 45 46 47 48 49 50 52 52 57 62 61 63 65 66 69 69 69 71 72
35 35 37 34 34 34 37 38 38 38 37 37 36 34 35 37 37 37 37 38 39 39 40 41 42 43 44 46 47 48 49 52 52 53 59 60 60 62 64 64 66 67 66 69
37 37 37 36 36 35 36 38 39 39 39 39 39 39 39 39 37 38 39 39 38 39 40 40 41 42 44 46 46 46 47 49 51 51 55 59 58 60 62 63 64 67 70 67
37 37 38 39 38 38 35 39 40 40 39 41 41 41 42 42 41 40 40 41 41 41 42 43 43 43 43 43 44 46 48 50 52 51 53 56 56 58 61 61 62 57 56 54

GFSCGP_sfc_dewp_072.txt.gz
Dewpoint
27 28 25 28 31 34 31 36 36 36 47 44 40 36 52 58 60 61 61 60 59 58 60 61 64 66 65 65 65 67 68 71 70 69 67 67 67 68 68 69 72 72 72 73
25 24 26 30 35 38 36 36 35 34 33 37 32 31 49 52 58 61 61 60 59 59 59 61 64 64 63 64 64 67 69 72 71 67 68 68 68 68 68 69 72 71 72 73
21 20 28 36 39 38 35 33 36 34 33 33 37 37 50 54 56 60 61 60 60 59 58 61 63 64 62 63 64 67 70 72 71 70 70 72 71 73 75 71 70 71 73 73
20 24 26 33 36 36 32 35 34 35 32 29 33 32 45 54 55 61 61 59 58 59 60 60 61 63 61 63 65 67 70 72 72 73 71 72 67 65 65 68 68 71 73 72
25 22 26 31 35 37 34 37 35 34 34 31 27 29 44 48 53 59 61 61 59 59 59 60 60 62 62 63 64 66 71 72 72 73 72 70 71 66 68 67 75 73 75 73
29 26 28 33 37 39 38 34 33 32 31 28 27 27 33 39 42 44 57 61 61 59 60 60 61 62 62 63 64 66 70 73 73 73 74 73 72 71 66 68 76 68 72 71
27 30 31 35 37 38 37 31 25 23 23 22 26 26 36 38 42 46 48 49 61 60 60 60 61 61 62 62 64 65 69 72 72 72 73 73 73 73 72 75 66 69 68 67
22 23 28 31 35 34 34 30 21 23 19 19 27 24 31 38 48 55 56 52 52 60 59 60 61 62 63 63 64 66 68 71 72 72 73 74 74 70 69 70 66 67 66 68
23 20 18 19 20 23 32 30 25 20 22 18 22 33 31 37 50 53 57 55 55 59 60 61 61 62 63 64 65 67 68 71 71 70 72 73 73 72 69 71 71 67 70 67
22 22 19 18 19 21 25 27 24 22 23 21 22 29 29 39 50 52 55 58 58 59 61 61 61 62 63 63 64 66 67 70 71 70 70 71 72 73 72 72 72 71 69 72
20 21 20 21 22 23 22 22 24 21 21 19 21 25 30 44 49 50 51 52 55 59 62 63 65 63 63 63 64 65 66 68 69 70 70 70 70 71 72 71 72 72 71 72
23 17 18 20 21 22 23 25 25 21 27 24 23 25 38 44 46 46 45 46 47 50 52 55 57 59 63 64 64 64 65 65 67 68 70 70 71 70 69 71 71 72 72 72
26 21 19 19 19 22 22 23 24 23 24 28 19 25 41 44 47 43 40 41 42 43 44 45 45 51 56 61 64 65 64 63 64 68 68 70 69 70 70 70 71 71 72 72
31 22 24 15 20 21 23 21 22 22 20 25 24 30 38 41 43 43 39 38 39 41 42 41 45 50 53 54 55 63 66 66 65 65 67 68 69 69 69 70 71 71 72 72
30 27 26 24 21 21 20 18 18 22 25 24 27 29 37 40 40 40 40 40 39 40 40 41 41 44 50 51 53 56 62 65 68 68 67 68 70 70 70 71 72 72 72 72
28 29 28 25 24 23 20 21 20 18 20 24 25 31 36 39 40 40 40 41 41 40 41 41 42 43 43 46 50 52 54 62 65 69 68 69 70 71 71 72 72 72 72 72
30 28 28 22 24 20 17 20 19 21 24 24 23 34 36 36 37 38 37 40 42 41 42 42 41 42 45 45 46 47 51 56 60 63 69 69 70 71 71 72 72 72 72 72
29 32 29 22 23 17 28 29 27 25 31 32 35 36 36 37 37 37 40 40 40 40 41 42 40 42 45 46 46 48 48 51 54 60 65 69 69 69 71 73 72 72 72 72
31 30 27 26 20 22 24 28 26 30 31 34 33 34 33 34 34 40 39 39 39 39 40 40 41 42 47 48 48 50 49 49 50 55 60 65 66 70 70 70 72 73 72 72
28 34 33 27 27 20 28 29 31 30 25 35 34 34 33 33 23 37 39 37 38 39 40 41 42 43 44 48 47 48 48 50 50 51 53 58 65 66 68 71 74 76 75 73
32 34 35 28 31 29 31 30 33 25 31 36 34 35 34 32 35 37 38 39 40 41 41 42 43 43 45 47 48 49 50 50 51 52 53 57 61 64 65 69 73 74 75 75
31 36 37 34 32 32 34 33 32 37 36 34 35 35 35 35 34 36 37 39 40 41 41 41 42 43 45 47 48 49 50 52 53 54 53 54 56 61 59 66 66 71 75 75
36 37 42 36 38 37 38 35 37 34 35 35 35 33 34 33 35 36 36 38 39 40 41 40 40 43 44 46 47 48 50 52 52 52 54 54 55 56 61 63 65 65 70 70
34 36 40 37 30 35 38 36 37 36 35 36 34 34 34 35 36 36 36 37 38 39 41 41 41 42 43 45 46 48 49 50 50 51 52 53 52 53 57 56 56 60 63 63
36 37 37 38 36 35 36 37 38 38 38 37 36 36 37 37 37 37 37 39 39 41 41 41 41 41 43 44 45 45 46 47 47 48 49 51 50 52 55 56 55 58 62 62
36 37 41 42 37 39 34 39 40 39 39 39 38 38 39 39 39 40 40 41 41 41 42 42 43 43 43 43 44 46 46 45 46 46 46 46 48 49 50 51 53 52 54 54

GFSCGP_sfc_dewp_078.txt.gz
Dewpoint
32 28 25 28 28 28 30 30 33 43 45 41 53 57 61 57 57 56 56 59 56 56 58 60 59 59 59 64 67 69 72 74 72 71 70 70 71 73 73 77 74 74 73 76
26 23 23 26 26 25 25 24 27 42 46 51 51 52 58 57 57 57 57 60 59 57 58 60 59 60 61 64 67 70 73 74 73 71 74 69 74 74 73 75 75 74 74 76
21 19 21 24 24 23 21 21 29 40 48 48 46 52 56 57 56 58 59 60 61 59 59 59 59 63 62 65 67 70 73 74 73 75 75 73 71 72 70 72 75 74 75 75
19 19 17 21 22 21 22 25 29 38 36 32 37 35 47 51 56 59 58 58 60 60 59 60 61 63 63 66 67 70 72 74 73 75 74 76 72 71 73 73 74 74 75 75
20 19 18 18 21 24 27 27 28 35 34 30 29 29 41 48 57 59 59 58 59 59 59 59 58 63 64 64 64 69 71 74 73 75 77 74 75 74 73 73 73 75 77 75
17 18 18 18 22 28 31 30 25 29 33 27 29 28 46 51 53 57 59 59 62 59 59 60 60 64 64 64 62 68 71 74 75 74 75 76 74 71 70 74 71 75 73 74
25 22 15 19 21 28 30 31 25 25 27 25 26 27 43 53 57 58 54 60 64 64 62 59 60 63 63 62 62 69 72 73 74 73 73 75 75 75 72 73 70 73 71 72
24 21 25 23 20 24 29 29 26 26 22 21 25 25 40 50 59 60 53 55 59 61 61 65 61 64 63 63 64 68 72 73 74 74 75 75 76 75 72 72 73 72 70 73
28 24 23 23 21 24 29 30 30 23 22 19 26 40 46 51 53 56 57 57 61 64 64 65 63 64 66 64 63 68 72 73 74 73 75 75 75 75 74 75 76 72 72 74
26 27 24 20 21 27 31 31 27 27 26 26 29 37 41 48 51 54 53 53 55 59 62 64 65 64 67 65 63 67 72 73 73 73 74 74 75 76 76 77 76 77 72 71
24 28 26 26 25 27 30 33 29 26 26 25 30 37 46 50 52 51 50 50 50 54 57 61 61 63 66 67 69 69 70 72 73 73 73 74 74 74 75 75 76 76 76 72
23 20 28 22 21 23 26 27 27 26 31 27 37 41 49 50 49 49 49 49 47 49 53 56 58 58 60 63 65 65 69 69 71 72 74 73 74 74 74 75 75 77 77 76
30 20 23 22 20 22 21 23 24 23 25 32 32 37 48 48 48 47 47 48 47 46 48 52 56 56 57 57 61 64 65 66 68 70 71 72 73 74 74 75 75 76 76 76
37 21 28 30 26 22 22 22 23 21 21 24 34 44 47 47 47 46 45 46 46 46 48 51 53 54 56 56 57 59 64 64 66 68 70 71 72 72 72 75 76 75 77 76
24 22 23 25 22 19 20 19 20 22 25 30 40 43 45 47 46 45 44 44 44 43 44 46 49 52 53 54 55 56 58 61 64 65 68 69 69 73 76 76 76 76 75 75
24 26 31 26 22 20 19 19 19 20 20 25 37 39 43 45 45 44 44 44 43 44 43 44 46 48 50 51 55 56 57 57 60 61 64 65 70 72 73 75 75 77 75 76
28 25 31 27 23 22 20 20 19 19 21 40 40 41 41 42 43 44 44 43 43 43 43 43 44 46 49 48 51 54 58 59 59 59 58 61 65 67 70 73 75 76 76 76
31 37 31 28 27 23 23 23 21 21 24 36 41 41 41 41 40 43 42 41 42 42 43 43 41 45 48 49 49 53 52 57 57 58 57 58 59 62 67 70 69 71 76 76
25 29 30 28 31 30 27 27 25 22 26 35 37 38 38 38 40 40 39 39 41 41 42 42 42 43 49 50 52 55 53 55 55 56 58 58 57 57 61 67 68 69 71 74
24 30 33 29 26 23 30 25 26 26 28 35 37 37 37 35 36 38 40 39 40 41 43 43 43 43 45 49 47 50 53 55 54 55 57 59 60 59 59 61 65 67 69 70
27 29 30 29 28 31 33 28 28 27 30 35 34 35 33 33 40 41 40 41 41 42 43 43 43 44 46 47 47 50 51 51 54 55 55 57 58 59 61 62 61 66 67 68
32 35 36 30 32 35 33 31 29 40 39 35 36 35 36 38 38 38 38 39 40 40 41 41 43 44 46 47 47 49 52 54 55 55 55 57 58 55 54 59 61 61 63 64
37 35 44 36 42 44 39 39 42 40 39 37 37 35 36 34 36 36 37 38 38 39 41 40 42 44 46 47 48 48 52 53 53 53 54 54 55 55 56 57 59 58 59 61
34 33 38 39 37 39 41 38 38 37 39 37 35 33 31 32 35 35 37 38 39 40 41 41 42 43 45 48 47 48 50 52 52 52 52 52 51 51 52 52 52 52 54 52
37 35 34 35 36 35 34 37 36 34 34 35 33 33 33 35 36 37 38 40 41 41 41 43 43 43 44 47 48 46 49 49 46 48 48 48 47 48 50 51 51 52 54 53
35 38 43 42 39 41 40 38 38 37 35 36 35 36 37 38 38 39 39 43 41 41 42 44 43 43 44 44 45 48 48 48 44 43 43 43 43 44 45 46 47 48 47 46

GFSCGP_sfc_dewp_081.txt.gz
Dewpoint
30 29 29 30 31 29 31 35 36 43 49 53 53 53 55 59 60 57 55 55 55 56 57 59 57 60 61 65 64 68 67 71 67 69 70 69 68 69 71 72 71 72 69 72
29 29 30 28 29 29 27 24 30 44 52 55 53 52 52 51 58 56 55 56 55 56 57 59 57 58 62 64 65 69 70 70 68 68 70 69 69 71 71 72 72 72 71 72
27 28 29 23 25 26 25 24 26 43 47 53 53 54 54 57 58 56 57 59 57 57 58 58 57 58 62 64 67 69 69 70 70 69 71 70 71 70 68 69 71 73 72 72
24 24 23 20 20 24 22 24 23 44 43 43 53 45 53 58 56 56 56 59 58 58 59 59 58 61 62 64 67 69 71 71 69 71 70 68 68 69 69 69 71 73 73 71
21 19 18 17 18 22 22 23 29 40 40 40 47 44 51 56 56 58 59 59 58 58 59 58 61 61 64 65 66 68 72 71 67 70 71 70 68 71 70 71 72 72 72 72
22 21 18 20 18 20 23 25 30 37 37 34 33 36 47 55 55 58 60 59 59 61 61 60 61 62 63 64 65 67 71 70 70 70 71 70 69 65 65 68 69 71 72 72
24 20 17 17 18 21 24 29 29 25 32 33 34 33 49 56 59 59 60 59 58 60 61 59 61 63 64 63 65 67 69 71 72 70 71 71 69 66 64 69 69 70 71 71
24 22 24 16 20 22 26 29 29 24 26 29 28 43 48 53 54 56 53 59 59 61 64 64 61 62 63 64 65 66 68 71 71 70 71 71 71 70 70 69 70 71 70 71
27 26 25 23 21 21 25 25 29 27 25 24 40 48 52 52 54 56 57 60 61 64 65 66 66 65 64 64 63 66 68 70 71 71 72 72 71 71 70 68 69 71 69 72
29 26 28 28 25 20 20 32 27 30 29 25 43 46 50 54 53 51 51 52 56 59 64 64 64 64 67 68 66 67 70 70 71 72 72 73 73 72 72 72 72 70 71 71
25 29 29 28 20 18 32 33 37 30 30 26 36 43 53 54 50 49 48 49 52 54 57 60 62 63 64 66 68 69 68 70 71 72 72 72 73 73 72 72 72 71 71 69
31 19 30 29 28 26 25 32 34 30 28 38 42 43 53 52 49 48 48 47 49 53 55 56 58 59 61 64 65 66 67 67 67 68 71 72 73 73 73 72 72 72 71 71
31 26 24 28 27 22 21 23 22 25 26 31 38 43 49 51 50 47 46 46 46 48 52 54 55 56 58 60 62 65 65 66 67 67 69 70 72 73 72 73 72 73 72 70
40 23 24 29 30 27 22 21 22 26 22 38 38 46 46 45 45 45 45 46 46 47 49 52 54 56 57 58 59 60 63 65 66 66 66 68 67 69 71 73 74 74 74 73
26 24 25 28 29 25 21 20 21 22 27 37 45 45 46 46 44 44 43 43 43 45 47 48 51 53 57 57 56 57 59 60 63 64 64 66 69 67 67 69 72 73 74 73
24 28 29 27 27 24 21 22 21 21 38 43 44 45 47 45 44 44 43 43 42 43 45 47 48 50 52 55 56 56 56 60 60 60 61 63 65 68 69 70 71 71 72 73
29 31 32 25 31 26 23 23 21 37 40 40 43 43 44 43 43 43 43 43 43 43 44 45 46 48 49 49 54 56 58 58 58 58 59 60 62 63 66 69 68 67 71 72
30 34 32 30 32 24 26 28 25 25 37 41 42 43 44 44 44 43 43 42 43 43 44 43 45 48 49 49 51 53 55 57 58 58 58 59 60 59 61 66 66 66 68 70
26 31 30 31 31 31 30 28 26 25 36 42 41 40 40 40 39 39 41 42 43 43 43 43 43 49 49 49 52 53 53 55 54 55 56 58 60 58 58 60 61 65 67 68
27 32 32 33 32 26 31 29 30 31 34 42 43 39 39 40 37 39 40 41 42 44 44 44 45 47 47 47 47 50 51 53 52 53 54 56 56 56 56 59 60 60 65 66
29 30 31 32 32 34 36 29 30 28 34 39 40 40 38 40 41 41 42 42 43 43 42 44 45 46 47 48 49 49 51 49 51 52 52 53 54 55 54 54 56 60 60 62
35 35 35 32 31 30 38 34 35 40 37 38 38 40 40 40 40 41 41 41 41 41 41 43 45 45 47 48 47 48 49 50 50 51 51 52 52 51 51 53 54 55 58 58
33 38 38 36 38 41 41 42 42 41 39 39 38 39 38 38 39 39 40 40 40 41 42 43 42 44 47 48 47 46 48 49 49 49 49 49 50 50 50 49 49 50 50 54
37 35 39 37 41 42 41 40 40 41 39 39 38 35 36 38 37 38 39 40 41 42 42 42 42 44 45 47 46 46 48 48 46 45 45 45 46 46 46 46 47 49 50 49
40 39 36 37 37 38 40 42 40 37 40 38 38 35 34 38 38 40 40 42 41 42 43 42 43 43 44 45 46 46 46 45 43 43 42 42 42 42 42 43 44 45 45 45
39 40 40 40 43 44 42 43 41 39 36 38 36 36 39 39 40 40 44 42 41 42 44 43 42 42 44 44 44 45 44 44 43 41 41 41 41 40 41 41 42 45 44 43

GFSCGP_sfc_dewp_084.txt.gz
Dewpoint
33 27 26 28 30 31 30 30 35 48 56 56 57 56 58 60 61 58 55 55 55 56 56 57 64 65 66 65 66 65 67 67 67 69 69 69 68 67 70 71 69 70 70 72
29 27 29 30 31 30 30 29 28 52 53 53 55 56 57 59 61 60 56 55 55 56 56 56 60 62 63 63 66 67 68 67 66 67 69 68 69 70 70 71 70 71 71 71
28 29 31 31 29 27 26 27 28 46 53 54 54 52 53 55 57 61 59 56 57 56 57 56 58 59 63 63 67 67 69 66 66 68 70 70 70 68 68 69 70 72 71 72
27 28 29 29 29 24 24 26 26 47 45 43 50 41 54 55 54 59 57 56 57 57 60 59 58 60 62 63 68 68 69 68 67 70 68 68 68 67 67 68 70 72 72 71
23 24 24 23 25 22 21 25 26 41 42 49 48 47 48 56 57 58 59 59 59 58 61 60 57 61 62 64 67 67 68 69 69 70 69 67 67 70 69 70 69 71 71 71
23 24 20 20 19 19 21 28 38 39 39 36 42 45 46 54 55 57 61 61 60 59 61 62 61 62 62 64 66 69 69 68 67 69 70 69 68 68 67 68 69 71 71 71
25 25 22 20 17 19 21 28 27 26 32 33 37 44 43 54 58 58 60 59 60 59 62 60 61 62 63 63 66 69 69 68 68 68 70 70 68 65 66 68 68 69 70 70
23 21 23 22 17 17 21 27 29 24 28 30 38 42 47 57 59 60 60 60 58 59 64 62 62 62 64 65 66 67 70 68 69 69 70 70 69 68 66 68 70 70 70 70
23 25 30 29 20 20 21 24 28 26 27 24 45 48 50 55 54 55 56 59 60 64 65 66 66 67 66 66 66 66 69 69 69 70 70 70 70 69 69 69 68 69 70 70
25 25 26 26 25 21 19 27 28 28 27 25 44 46 47 52 50 51 52 54 56 58 61 64 65 66 68 68 69 68 67 70 70 70 70 71 70 70 70 69 67 69 69 72
30 22 21 29 25 20 28 29 33 30 29 26 38 43 54 51 50 49 50 52 54 57 59 60 63 66 67 68 68 68 68 69 68 68 68 71 72 71 71 71 71 71 70 71
33 21 20 30 30 30 31 30 32 30 28 39 41 46 53 52 52 50 49 50 52 55 56 58 59 62 65 65 67 67 67 67 67 68 69 69 70 71 71 71 71 71 70 69
26 22 23 25 26 29 22 21 26 28 32 36 32 43 51 52 51 48 47 48 50 53 54 55 57 58 61 63 65 66 67 67 67 67 67 68 68 70 70 70 71 72 70 70
36 21 23 24 29 29 22 21 21 24 22 37 41 45 46 47 46 46 46 46 48 50 51 54 55 56 58 59 61 64 65 66 67 66 67 67 67 66 67 69 70 71 70 70
24 24 25 25 25 25 24 22 23 23 26 34 44 44 45 45 44 44 45 46 46 46 47 50 53 55 56 57 59 60 61 62 65 65 66 66 67 67 68 68 67 67 70 72
26 30 27 26 31 29 24 24 31 37 43 45 46 44 45 45 44 42 42 43 45 45 46 48 50 52 55 55 56 60 59 60 60 61 61 63 65 65 66 68 68 68 68 71
32 29 28 27 32 26 24 26 26 40 44 46 44 45 44 43 43 42 41 42 43 44 45 47 49 50 51 53 56 54 57 59 58 59 59 60 60 61 61 65 67 66 66 68
25 31 30 27 29 23 27 29 27 38 43 45 44 44 43 43 44 43 43 42 43 44 44 45 47 48 50 53 53 55 56 57 58 58 59 59 60 60 61 61 62 63 66 67
25 28 25 26 27 28 29 27 27 27 39 45 44 43 44 42 41 41 42 43 42 42 43 46 48 47 46 47 50 53 53 53 53 53 55 56 57 57 57 60 61 62 63 63
26 29 28 30 28 23 29 30 30 32 34 44 43 41 39 39 37 38 42 42 43 43 45 45 46 46 47 48 50 48 49 50 50 51 52 53 53 54 54 55 57 60 61 62
32 27 26 30 30 34 36 34 32 29 31 41 41 39 38 39 38 40 43 42 41 43 44 45 46 46 46 47 48 47 48 48 49 50 50 50 51 50 50 51 52 55 57 59
32 29 28 29 26 26 39 37 31 36 38 41 41 40 40 40 40 41 41 41 41 42 44 45 45 46 46 46 46 46 47 48 48 48 48 47 48 47 48 48 48 48 49 50
29 34 34 34 34 40 41 39 41 38 38 39 43 42 39 39 39 39 39 40 40 42 42 42 44 45 47 46 45 46 46 46 45 44 44 44 45 43 44 44 45 45 45 45
36 35 34 34 39 37 38 39 39 38 38 38 38 37 38 37 38 38 38 41 41 41 41 42 43 44 43 45 45 45 45 44 43 42 42 42 41 42 42 42 43 43 44 44
36 36 32 33 35 36 40 39 37 36 38 38 35 35 38 37 38 38 40 40 41 41 41 42 42 43 43 44 43 43 43 43 41 41 41 41 41 40 40 41 42 42 43 43
37 35 36 36 40 38 38 41 41 36 37 37 35 35 39 38 39 40 40 40 42 42 43 41 41 43 42 42 43 43 43 42 41 40 40 40 40 40 40 41 40 43 43 43

GFSCGP_sfc_dewp_087.txt.gz
Dewpoint
34 30 27 29 30 30 31 30 29 50 57 57 56 57 59 61 61 56 54 55 54 55 60 63 65 66 66 66 66 67 66 67 68 68 68 68 67 67 70 70 69 70 70 71
30 28 28 28 30 31 32 30 37 54 57 56 57 55 58 60 61 59 56 55 55 55 60 64 64 65 65 66 66 66 66 67 68 68 69 68 68 68 70 70 70 70 70 71
29 28 31 30 30 29 27 27 28 50 54 55 55 53 55 59 59 62 62 59 57 55 57 62 64 64 65 65 65 65 67 66 66 68 70 69 69 68 68 69 70 71 71 71
28 30 29 30 30 27 29 26 29 51 48 46 52 44 52 55 55 58 61 59 57 55 57 62 63 63 63 64 66 66 67 65 66 69 68 68 67 66 67 68 70 70 71 71
26 26 26 27 28 26 25 25 26 49 43 46 49 44 45 53 52 55 61 58 58 58 57 59 61 63 63 64 66 67 67 66 67 68 68 67 67 67 69 69 67 70 71 71
25 25 24 24 24 25 24 25 33 39 39 39 42 42 44 52 52 55 60 59 58 58 58 59 60 64 65 64 67 68 67 66 68 69 68 67 67 68 68 68 68 70 70 71
26 26 24 21 20 20 24 26 26 34 35 35 40 44 42 54 56 57 59 59 59 61 61 60 62 62 64 64 67 67 67 67 68 69 69 69 68 68 67 68 68 70 69 70
24 21 23 22 21 18 21 21 26 25 30 32 43 40 47 55 59 60 61 62 61 63 62 62 62 63 65 65 66 67 67 66 67 68 69 69 68 66 66 67 69 69 70 70
23 24 28 28 22 19 22 25 27 26 31 27 44 47 53 54 53 57 59 59 59 62 65 64 64 65 65 66 65 67 68 66 68 67 69 69 68 68 66 66 69 69 70 69
26 25 26 27 26 22 20 26 24 27 26 26 43 44 45 53 51 53 56 56 58 60 61 63 65 67 67 67 68 67 69 68 69 68 68 69 69 69 68 69 68 68 68 69
29 24 20 29 25 21 23 30 32 29 29 29 38 42 51 52 51 51 53 54 57 58 60 61 63 67 68 68 69 69 68 70 68 69 69 70 70 70 69 69 68 67 68 69
29 20 21 28 26 29 23 24 32 28 31 37 39 42 52 51 51 51 51 52 55 57 58 59 61 63 66 67 68 68 68 67 67 68 68 69 70 70 70 70 70 70 70 70
25 22 23 25 28 29 22 21 29 29 35 37 34 39 52 52 50 49 49 51 53 55 55 58 60 61 61 64 67 67 67 67 67 67 67 67 66 68 69 70 70 71 70 69
33 21 23 27 28 28 24 22 23 23 22 33 35 46 49 48 47 46 46 49 51 52 54 56 57 59 60 61 62 65 67 68 68 68 67 66 67 66 67 67 67 69 70 70
24 25 26 28 27 27 24 24 30 23 26 34 40 44 48 47 46 46 46 47 47 48 50 53 54 56 57 59 60 62 63 65 66 67 66 66 67 67 68 68 67 67 68 69
29 28 27 28 33 28 26 27 27 41 45 45 44 42 46 45 44 44 45 46 45 46 47 49 52 53 55 56 59 60 60 61 61 62 63 65 65 64 65 68 67 66 67 68
30 27 27 28 30 34 32 28 28 39 45 45 42 43 45 43 43 43 43 45 45 46 46 48 49 51 53 54 54 55 58 58 59 59 60 61 61 61 61 62 62 65 66 65
24 31 28 26 27 27 32 31 35 43 44 45 45 44 44 43 43 42 43 44 45 45 47 47 48 50 52 54 55 56 56 56 57 56 57 59 60 60 61 61 61 61 62 62
26 27 28 24 26 27 28 28 26 34 41 45 44 44 44 43 42 42 44 44 44 44 47 46 46 48 50 51 51 50 50 50 50 51 52 54 55 54 54 55 57 59 60 61
28 27 27 30 26 19 26 30 31 32 34 45 44 43 42 41 39 41 43 43 45 45 45 45 46 47 48 48 47 47 48 48 48 49 49 50 50 52 51 51 54 56 57 59
30 27 24 30 27 31 35 36 37 29 30 44 44 43 42 40 40 41 43 43 44 44 45 46 46 46 47 46 47 46 46 46 47 47 46 46 47 47 47 50 49 51 52 54
30 27 26 28 25 24 37 36 28 32 39 41 43 43 42 40 41 42 41 42 43 44 45 45 45 45 45 46 46 45 45 45 44 44 44 44 43 43 43 44 45 47 46 46
29 34 33 33 32 36 40 40 40 38 39 40 41 41 41 41 41 41 40 42 43 44 44 45 46 45 45 45 45 43 43 43 42 42 42 42 42 41 41 42 42 43 44 44
35 36 33 34 38 37 39 39 38 38 39 42 43 43 44 43 41 40 39 41 41 42 43 44 43 43 44 44 44 43 43 42 41 41 41 41 40 41 40 41 42 42 42 42
36 32 32 32 34 36 39 39 38 39 40 39 41 41 42 41 39 39 41 41 41 41 42 43 42 43 43 43 42 42 42 41 40 40 40 40 40 40 40 40 41 41 41 42
37 34 35 35 34 35 34 39 41 39 38 39 37 37 39 40 39 40 41 41 41 41 42 42 42 43 42 43 42 42 42 40 39 39 39 39 39 39 40 40 40 42 42 42

GFSCGP_sfc_dewp_090.txt.gz
Dewpoint
33 33 32 37 30 31 37 38 40 48 57 58 57 57 58 59 60 56 57 59 59 59 61 62 64 66 67 67 68 68 67 67 68 68 68 68 69 69 71 71 70 71 72 72
30 31 32 37 30 30 31 30 48 56 59 57 55 56 57 59 61 57 55 55 56 58 60 62 64 66 66 66 67 67 67 68 68 68 69 68 69 69 71 71 71 71 71 72
30 30 30 29 29 28 28 28 30 50 55 57 55 54 56 59 61 62 62 56 55 56 60 62 64 65 66 66 67 67 67 68 68 69 70 70 70 69 70 71 71 71 72 71
30 31 30 30 29 28 31 27 33 53 50 46 54 47 54 56 58 59 61 59 55 56 61 63 64 64 65 66 67 67 67 67 68 69 69 69 68 68 68 70 71 72 73 72
28 26 28 28 28 28 27 26 28 51 46 48 50 44 43 56 55 57 59 61 57 56 61 63 63 64 65 65 66 66 68 66 67 69 69 68 68 68 69 70 70 71 73 72
27 26 26 26 27 28 31 25 36 40 43 40 44 43 42 52 53 56 58 60 59 56 59 63 63 65 65 65 66 66 67 66 67 69 68 68 68 68 69 70 69 70 72 72
27 26 25 22 20 22 24 22 26 35 37 36 41 43 41 54 57 56 56 60 60 58 58 62 63 64 65 64 66 67 67 66 67 68 68 68 68 69 69 69 70 70 71 71
23 21 25 24 23 21 21 21 26 30 33 35 44 39 43 54 57 61 60 61 61 62 61 61 63 65 65 65 66 67 67 66 68 69 69 69 69 69 69 69 70 71 71 71
23 23 27 23 20 20 23 19 22 26 29 34 42 46 52 55 56 59 59 60 62 63 63 63 64 64 66 66 65 67 67 67 67 69 70 70 69 68 67 68 70 71 71 71
24 23 26 27 23 25 24 27 26 26 25 26 42 43 43 53 54 57 57 57 60 61 63 65 65 65 66 67 68 68 68 68 68 68 68 70 69 69 69 69 69 70 70 71
27 25 22 28 25 20 26 31 29 29 29 33 37 41 50 52 54 55 55 58 59 60 61 62 64 67 67 67 68 69 70 70 69 69 69 70 70 70 70 70 70 70 70 69
28 20 23 26 27 27 24 26 31 27 31 37 37 37 51 52 52 54 54 57 58 59 59 61 62 64 67 67 69 68 69 68 69 68 69 70 71 71 71 70 71 71 71 71
25 23 24 22 25 26 23 23 26 30 37 38 32 33 51 51 50 51 51 54 56 56 57 59 61 62 64 66 68 68 68 68 68 68 67 67 67 68 69 70 71 71 71 71
34 24 25 23 24 26 23 26 30 23 26 32 33 41 50 49 48 47 48 51 53 55 56 57 59 61 62 63 65 67 67 67 68 67 67 67 67 68 68 67 68 68 70 71
26 25 27 28 27 26 28 27 31 38 25 31 33 42 47 49 47 46 48 50 50 52 53 55 57 59 59 61 62 64 64 66 68 67 68 67 67 67 68 68 68 68 68 69
30 29 28 29 31 34 32 30 36 43 45 44 44 43 47 47 46 46 47 47 47 49 51 52 54 56 58 59 61 62 62 62 64 64 65 66 65 64 65 66 66 67 67 67
30 27 27 26 30 34 31 30 39 42 45 44 41 43 46 45 46 46 46 46 47 48 49 51 51 53 54 55 57 58 59 60 60 61 61 62 62 61 62 62 62 64 63 64
28 30 29 26 28 28 33 35 41 43 44 46 45 45 45 44 44 44 46 46 47 48 49 50 50 52 55 55 55 55 54 54 55 54 55 57 58 58 60 60 59 61 62 62
27 29 29 23 25 26 28 28 29 34 39 45 44 44 43 43 42 43 45 46 46 48 47 48 50 52 51 50 50 50 51 51 49 49 50 52 54 53 53 55 56 57 58 60
27 28 29 29 23 20 24 34 38 35 30 46 45 44 43 42 41 41 44 45 47 46 47 48 48 48 47 47 48 48 48 48 46 47 48 48 50 51 52 52 54 56 56 58
26 27 25 30 26 29 34 36 38 29 31 45 45 44 43 42 44 43 44 46 46 46 46 47 47 47 47 48 46 46 45 45 46 46 46 46 46 46 47 50 50 51 52 54
26 26 25 27 26 22 37 36 29 33 41 43 46 45 44 42 43 43 44 45 45 46 46 46 45 45 46 47 45 44 44 44 45 45 44 44 44 43 43 47 46 47 48 48
30 33 32 30 31 34 38 38 40 39 40 43 44 44 44 43 44 44 44 44 45 45 45 45 45 45 46 46 44 43 44 44 44 43 43 43 43 42 43 43 44 43 45 44
34 35 34 34 37 39 39 40 40 41 42 44 44 44 46 47 46 45 45 45 46 45 45 45 44 44 44 44 44 44 44 43 43 42 42 42 42 41 42 41 41 41 42 41
35 34 32 32 33 37 38 40 40 41 43 44 44 45 45 45 45 45 44 44 44 44 45 44 44 44 44 44 43 43 43 42 41 41 41 41 40 41 41 41 41 41 42 42
36 34 34 34 35 37 36 40 41 40 41 43 43 43 45 45 44 43 43 43 43 44 44 43 44 44 43 43 43 43 42 42 41 41 40 40 40 40 40 40 40 42 42 42

GFSCGP_sfc_dewp_093.txt.gz
Dewpoint
35 40 41 38 32 34 48 47 46 48 56 56 56 58 59 61 59 59 59 59 60 61 62 63 64 65 66 68 69 70 70 72 70 70 70 70 69 71 72 71 73 73 74 73
35 39 39 36 31 30 34 40 38 54 56 56 56 56 58 59 58 59 59 59 59 60 61 62 63 65 66 68 69 71 71 72 71 70 71 70 71 70 71 72 73 73 73 74
31 36 34 34 32 29 30 30 50 48 56 55 54 53 55 58 60 59 59 59 59 59 60 62 63 64 65 67 69 70 71 72 72 72 71 72 72 71 71 72 71 71 73 73
36 31 32 29 30 30 29 29 39 53 49 49 52 46 51 55 58 60 57 57 57 59 60 62 63 64 65 66 68 70 71 71 71 73 71 73 72 73 69 70 71 72 73 72
31 30 30 30 29 30 30 28 34 51 48 49 48 48 47 55 55 59 60 58 55 57 59 61 63 64 65 66 67 69 71 71 71 72 73 70 74 70 70 70 73 74 74 74
29 28 29 29 29 32 31 35 41 46 45 37 45 43 42 52 54 56 59 60 59 56 58 62 64 65 66 66 67 68 71 71 72 72 72 73 72 73 70 71 70 70 71 72
28 26 25 25 24 29 26 22 31 31 34 26 42 45 41 53 56 57 56 59 61 58 59 62 64 65 66 66 67 67 70 71 71 71 72 72 72 73 73 72 70 70 72 74
25 23 26 25 25 23 26 23 26 28 31 31 44 37 42 54 57 60 60 58 61 60 59 61 64 66 66 66 66 67 68 70 70 70 71 72 73 70 70 72 71 70 73 76
24 22 26 24 25 24 24 21 25 30 32 31 40 45 52 56 58 59 58 58 60 61 60 61 64 65 66 66 67 68 69 70 70 69 70 72 72 72 71 73 73 72 73 71
28 24 26 27 22 25 25 25 22 26 30 29 41 43 43 53 56 58 59 60 62 63 62 64 64 65 66 67 68 69 69 69 71 70 70 72 73 73 72 72 71 72 72 73
27 27 26 29 27 23 26 25 29 27 30 26 30 38 53 54 56 57 58 59 60 62 63 64 66 66 67 68 68 69 70 70 71 70 71 71 72 72 73 72 72 72 73 72
27 25 27 25 26 26 25 31 31 21 33 39 35 37 52 54 57 57 58 59 60 61 62 63 65 67 67 67 68 69 70 71 71 71 70 70 72 72 73 73 73 73 73 73
29 27 25 24 25 28 30 28 31 34 38 39 26 32 52 54 56 56 56 58 58 59 60 62 64 65 67 67 68 68 69 70 69 69 68 68 69 72 73 73 73 73 73 74
38 27 29 23 27 28 32 35 27 27 24 35 32 41 50 52 53 53 53 56 57 57 59 60 61 63 65 68 69 69 69 69 69 69 68 68 69 70 71 71 71 72 73 74
32 30 30 30 30 30 32 38 39 27 29 29 34 37 47 52 53 53 54 54 54 56 57 59 59 60 62 63 65 67 68 68 68 67 67 68 68 70 69 70 70 70 71 71
33 34 32 30 31 33 28 34 42 42 42 42 43 41 48 52 52 51 53 53 53 55 56 56 57 59 60 61 63 63 64 65 68 68 68 68 68 66 66 68 69 69 69 69
34 31 35 30 32 33 30 31 34 39 44 43 37 45 50 50 50 51 52 53 52 53 54 54 55 56 57 59 60 60 62 62 62 63 63 64 64 64 64 64 65 65 65 65
35 35 33 29 34 26 32 34 37 37 42 45 46 47 50 50 51 50 51 51 52 52 53 54 54 56 55 56 56 56 56 57 57 56 56 57 59 59 61 61 61 61 63 63
34 35 31 31 29 28 29 30 30 32 34 45 46 47 47 47 48 48 49 50 51 52 52 53 54 54 52 52 53 52 51 51 52 52 52 54 54 54 54 56 57 58 59 61
31 37 32 32 24 23 29 33 36 35 31 46 47 47 46 46 47 48 48 48 49 50 51 52 52 51 50 50 49 48 49 48 47 48 49 50 50 51 52 53 55 57 58 60
30 32 29 31 28 27 34 36 38 32 34 44 47 48 47 47 48 48 48 49 50 51 51 51 51 50 48 48 48 47 47 46 46 47 48 49 49 48 51 52 53 53 53 54
30 34 35 32 30 30 38 36 32 38 42 43 48 48 47 46 47 47 48 49 50 51 51 51 51 50 50 50 48 47 46 46 47 47 47 47 48 45 46 50 50 50 50 51
38 37 43 35 36 39 42 42 42 41 42 44 46 48 48 46 47 47 48 49 50 49 49 48 48 49 48 48 48 47 48 48 47 47 46 47 46 46 47 47 47 45 47 44
37 38 41 40 41 42 42 41 40 42 42 44 45 47 47 47 47 47 48 48 48 48 48 47 47 47 47 48 47 47 47 47 46 46 45 45 45 45 44 41 42 41 41 41
37 39 39 38 38 41 42 43 42 41 43 45 46 47 47 47 48 48 48 49 48 48 48 48 48 47 47 47 47 45 45 45 43 44 43 43 42 43 42 42 41 41 43 42
38 39 41 41 41 43 41 44 44 42 42 45 45 46 48 48 49 49 49 49 49 48 48 48 48 48 47 47 46 46 45 44 42 41 40 40 40 40 39 39 39 42 42 41

GFSCGP_sfc_dewp_096.txt.gz
Dewpoint
30 40 44 40 37 35 49 50 48 52 57 58 57 57 60 62 62 56 55 55 55 56 59 61 61 62 64 65 67 69 70 73 73 72 67 67 66 68 68 69 73 73 72 72
27 34 42 43 34 36 43 47 46 51 55 55 57 57 60 62 61 59 54 54 54 55 57 60 61 62 63 66 67 69 71 73 73 70 71 68 68 68 68 69 72 72 72 73
21 25 41 40 33 34 38 42 43 49 54 54 55 54 55 58 62 60 57 55 56 58 57 60 61 62 63 66 68 69 71 73 73 71 71 74 73 72 73 70 70 70 72 72
19 27 36 38 38 34 34 33 45 51 49 49 52 47 51 54 59 61 57 56 55 57 59 60 61 62 62 64 68 70 72 73 73 73 71 72 75 73 73 68 69 70 72 71
23 28 34 34 38 37 33 31 38 44 46 49 50 44 49 55 53 58 59 56 55 56 57 59 61 62 63 64 66 69 72 73 72 73 73 69 69 74 66 68 75 73 73 72
26 31 31 31 34 36 32 31 36 42 42 41 43 41 44 48 52 52 58 58 57 55 56 59 61 62 63 64 65 68 71 73 73 73 73 73 71 70 75 73 70 68 69 71
26 29 29 30 32 34 34 32 30 31 32 31 42 40 40 46 55 54 57 58 58 56 56 57 61 62 64 65 66 67 71 72 72 72 71 72 72 72 71 73 74 69 73 72
23 22 27 27 27 30 34 31 30 32 30 29 38 39 40 50 55 57 57 58 59 59 56 57 63 64 66 65 66 68 70 71 72 71 73 73 73 68 71 70 69 75 70 68
21 21 24 24 25 25 30 31 31 29 32 29 34 37 51 53 55 57 57 57 57 60 59 59 61 64 66 68 68 68 69 69 71 70 72 73 74 73 69 72 72 76 76 70
26 22 21 23 23 24 23 27 28 28 31 28 31 35 34 52 54 58 57 57 57 60 62 61 62 64 66 67 69 68 68 71 71 70 70 71 70 70 70 71 73 73 72 74
27 24 23 23 23 20 23 22 22 25 27 25 26 32 49 50 56 58 59 61 61 61 62 63 64 66 66 68 68 69 70 69 71 71 71 72 71 69 70 70 70 71 72 74
29 24 26 20 25 26 21 21 23 19 30 27 28 35 52 54 56 58 59 61 62 64 64 65 66 67 68 68 68 68 70 70 71 71 72 71 71 71 69 70 70 72 72 75
30 26 25 25 24 27 23 23 24 22 21 31 26 29 53 56 57 58 59 60 61 62 63 64 66 66 67 67 68 68 70 70 71 71 71 71 71 71 71 71 70 71 72 72
35 26 29 21 23 24 28 28 25 23 20 23 26 35 51 54 56 57 58 59 59 60 61 62 64 66 67 68 68 69 70 70 71 70 70 69 70 71 71 71 72 71 73 73
33 31 29 28 27 26 27 26 24 25 23 24 26 29 46 53 55 57 57 58 58 60 61 61 61 63 64 67 69 70 70 70 71 70 69 69 70 71 71 72 72 72 72 72
33 33 33 31 30 27 31 34 30 27 28 26 31 32 46 53 56 56 57 56 57 58 59 60 60 61 62 63 65 69 70 70 71 70 69 69 70 70 70 70 70 70 70 71
35 34 33 29 30 30 27 30 31 35 36 35 28 44 49 52 54 55 56 57 57 58 59 59 59 59 61 61 62 62 63 65 66 66 67 67 67 68 67 66 66 68 68 69
35 39 34 28 32 28 33 33 33 35 37 39 42 45 49 52 53 55 56 56 56 57 56 58 57 58 58 57 57 59 59 60 61 61 60 62 63 64 65 64 65 66 66 68
35 35 31 29 29 30 31 33 32 31 34 40 44 47 50 52 53 53 53 55 56 57 57 57 57 56 55 56 56 55 55 56 56 57 57 56 56 57 60 61 63 65 66 66
30 36 29 27 27 26 33 32 34 34 31 40 44 48 49 50 47 50 53 54 54 55 56 57 56 53 52 51 52 50 51 50 50 52 52 53 55 55 55 57 57 60 61 63
29 31 30 26 26 27 34 34 36 32 37 43 47 48 48 49 52 52 52 53 53 54 55 55 54 53 52 50 49 48 47 48 47 50 50 50 51 53 53 55 55 57 59 60
30 31 32 31 29 29 37 35 34 42 42 42 47 49 49 50 49 51 52 52 52 53 54 53 52 50 50 51 51 49 48 48 50 51 50 50 50 46 49 54 54 55 56 56
38 34 41 31 35 43 43 43 43 41 43 43 46 47 49 48 49 51 52 52 52 53 53 53 52 53 52 51 50 49 50 50 50 49 49 49 48 51 52 52 51 48 52 48
39 40 39 36 37 39 41 42 41 42 41 41 44 48 48 48 49 50 51 51 52 53 52 51 51 50 51 51 50 51 51 50 50 49 49 48 48 49 50 45 45 45 44 44
34 39 37 37 39 42 43 43 41 41 41 40 44 47 48 49 50 50 50 52 51 52 51 51 51 50 50 51 50 48 49 48 47 46 46 46 43 46 46 45 43 43 44 42
37 35 36 34 36 39 36 41 44 42 41 41 42 45 48 49 50 51 51 52 52 52 52 52 51 51 51 50 49 48 48 47 45 43 41 40 40 41 41 41 39 42 42 41

GFSCGP_sfc_dewp_099.txt.gz
Dewpoint
23 35 41 41 42 51 53 53 53 55 57 56 56 55 60 61 59 59 52 52 52 52 55 57 57 59 60 64 66 66 72 71 71 70 67 71 70 71 70 73 71 71 71 71
21 27 36 42 39 37 45 51 53 57 56 53 57 56 60 61 58 59 58 52 52 53 55 58 58 58 59 63 66 68 71 73 73 70 73 73 71 72 72 73 71 71 71 72
19 19 28 38 40 35 37 48 49 52 56 55 56 55 58 61 60 61 61 55 52 52 54 56 58 57 59 63 65 67 70 73 72 73 74 72 72 74 69 72 70 70 71 71
19 19 23 40 40 35 34 50 54 55 50 53 55 48 54 57 58 60 59 55 52 53 56 56 57 58 58 63 66 68 70 72 72 71 74 71 75 74 69 73 73 72 71 70
17 16 23 34 35 37 36 37 55 55 49 49 51 46 51 55 55 57 59 56 54 55 55 60 56 58 58 62 64 67 71 72 72 73 75 69 70 73 69 73 73 74 73 71
16 21 23 29 31 36 37 33 34 45 46 46 44 41 47 49 54 57 58 59 57 57 58 60 56 59 60 62 66 66 71 73 72 72 72 71 70 70 73 72 73 69 71 69
19 25 26 28 26 34 38 32 31 32 46 36 42 40 43 49 54 57 59 60 57 59 55 58 57 60 63 64 66 68 71 72 72 72 71 70 71 72 71 72 67 71 71 73
14 17 25 25 28 30 35 32 31 32 31 34 43 38 42 46 49 50 55 57 58 56 59 56 59 62 63 65 64 67 70 72 71 71 72 72 71 68 67 69 73 67 71 67
16 17 23 25 26 27 29 34 33 32 32 37 37 46 49 46 47 52 55 54 57 57 58 57 58 62 67 65 66 68 71 73 71 70 71 73 73 72 72 71 72 70 73 74
26 21 21 21 22 23 22 29 30 30 32 33 35 37 37 50 52 53 53 55 58 59 59 58 63 64 66 67 71 69 69 72 72 70 70 71 71 71 70 71 71 72 72 75
27 24 22 22 22 20 20 21 28 28 26 26 32 36 46 51 53 55 55 56 56 58 60 63 64 64 66 68 69 71 72 71 73 71 72 73 70 71 71 70 70 71 71 73
27 25 22 20 19 19 19 19 22 23 31 26 26 45 47 52 54 57 60 62 63 64 63 63 63 67 68 69 68 68 69 70 70 72 72 72 70 70 72 70 70 71 72 72
29 24 23 24 18 19 18 20 18 17 19 27 22 38 49 55 57 58 59 61 63 64 65 66 66 67 69 69 67 68 69 69 70 71 73 72 71 71 72 73 70 70 71 72
39 26 25 25 26 22 21 20 18 16 17 18 25 44 50 53 56 58 60 61 61 62 63 65 66 67 68 69 69 69 69 70 71 72 70 70 70 71 72 72 72 72 73 72
30 30 29 26 30 25 19 16 19 21 24 22 22 32 47 53 55 57 59 59 60 61 62 63 64 66 68 69 69 69 69 70 71 70 70 70 70 71 71 71 72 73 74 72
35 35 35 28 30 24 21 22 22 20 19 20 24 37 48 53 57 57 58 59 60 60 61 63 62 63 64 66 70 70 71 69 70 70 70 70 71 72 72 71 72 72 73 73
37 40 37 33 26 28 26 28 25 24 23 23 27 43 45 51 54 57 57 58 59 59 60 61 62 62 62 62 65 67 69 71 70 70 70 70 70 70 70 70 71 70 71 73
37 45 40 36 38 26 33 33 32 32 34 34 39 44 46 50 53 55 57 58 58 58 59 61 60 60 59 59 60 62 62 65 67 66 66 66 66 67 67 68 67 66 68 70
34 36 37 36 38 35 34 34 32 31 34 37 41 43 47 50 53 55 55 57 58 58 59 60 59 58 57 57 56 57 58 58 58 61 61 62 63 64 64 64 67 67 69 68
26 36 35 32 33 31 40 33 34 33 33 39 40 45 48 50 47 52 55 56 57 58 58 58 58 55 55 54 55 54 54 55 54 54 54 59 58 58 60 62 63 64 66 66
30 32 29 28 27 39 39 32 34 29 38 42 42 45 48 50 54 55 55 55 56 57 58 57 56 53 52 51 51 52 50 50 50 50 53 54 55 55 56 58 58 59 63 64
32 34 31 31 36 31 35 32 32 44 42 43 45 47 48 51 51 53 54 55 56 56 56 56 56 54 52 51 50 49 50 50 51 52 51 54 53 49 52 56 57 59 60 60
35 33 37 33 40 44 41 44 43 42 44 43 44 46 48 48 51 53 54 54 55 55 55 53 53 53 52 53 53 50 50 52 51 51 52 50 53 54 53 57 55 50 55 55
34 40 37 37 38 36 37 39 39 41 41 40 43 44 46 47 50 52 53 53 54 54 54 53 54 53 53 53 53 52 53 53 53 54 51 52 53 54 55 52 48 45 44 45
31 39 36 37 39 39 39 39 40 40 39 37 41 44 45 47 49 52 53 54 54 54 54 54 53 52 53 53 53 52 52 51 50 50 49 49 47 48 48 48 45 44 45 42
33 35 32 34 37 42 39 42 41 40 39 39 40 42 47 49 50 51 52 54 54 54 53 53 53 53 53 53 52 51 51 50 48 46 44 42 40 43 42 43 41 41 41 41

GFSCGP_sfc_dewp_102.txt.gz
Dewpoint
25 23 34 42 43 45 51 56 54 55 57 55 56 57 59 60 58 58 52 51 52 52 52 55 58 60 62 64 68 70 70 74 72 72 70 72 71 71 73 71 75 76 75 75
20 18 26 38 44 54 53 52 54 54 54 58 56 56 59 61 60 59 59 57 52 50 52 57 58 59 60 64 68 73 73 75 74 74 76 75 71 75 74 74 75 75 73 76
18 18 22 30 37 44 48 48 51 51 53 56 55 55 58 60 61 60 59 60 62 53 54 57 58 57 61 65 68 71 72 75 75 76 73 75 72 76 72 76 74 74 73 75
13 17 17 24 31 42 49 52 52 53 50 48 55 49 55 57 57 58 59 59 60 57 57 57 57 58 59 64 66 72 73 75 74 73 73 74 73 69 74 75 72 73 75 74
11 14 17 19 28 41 42 51 51 52 50 51 52 47 52 57 56 57 58 58 59 58 56 56 57 57 61 63 64 69 73 75 76 76 76 75 74 73 74 74 72 73 75 75
12 14 16 17 27 35 41 45 51 52 52 48 47 46 52 54 55 57 57 58 62 59 54 60 59 60 63 63 66 69 73 75 76 75 75 75 75 73 73 70 73 73 75 75
14 12 19 20 22 29 38 37 41 46 46 44 52 44 51 54 54 57 57 61 61 61 58 57 60 59 62 65 66 69 73 73 74 73 73 74 75 74 74 75 71 73 71 70
15 11 21 23 25 25 32 38 32 38 39 45 51 43 48 52 53 55 57 57 62 62 62 60 62 64 63 68 68 70 72 74 73 73 74 75 76 72 73 75 74 71 71 71
19 16 14 21 23 25 28 29 32 32 39 39 46 48 50 49 50 53 54 58 60 60 62 64 63 63 65 66 70 70 72 73 73 72 75 75 75 75 75 75 77 74 72 71
25 26 20 20 23 24 26 28 26 39 34 35 40 46 46 48 50 53 55 56 55 58 62 61 64 64 63 64 70 71 73 72 73 71 73 73 74 75 75 76 75 75 70 68
23 26 26 21 22 20 20 21 24 25 32 33 34 43 53 50 50 51 53 56 57 60 62 65 64 68 63 63 70 71 71 72 73 72 72 75 74 73 74 75 75 76 72 69
29 25 25 23 21 21 18 19 20 23 30 29 30 40 55 55 54 53 56 56 63 59 63 64 66 68 67 68 70 70 71 71 72 72 73 72 72 73 74 72 71 73 75 75
32 28 25 25 23 20 19 18 18 16 21 31 25 45 56 53 57 60 61 63 65 66 64 66 66 69 70 70 69 70 70 70 70 72 72 72 74 73 74 74 72 72 73 76
40 28 28 21 30 30 20 17 17 16 16 18 19 42 53 54 57 58 61 62 64 65 67 67 68 69 70 71 70 69 69 69 70 70 71 71 71 72 71 72 72 73 74 73
29 30 30 25 26 28 27 18 16 20 18 20 26 40 45 51 56 58 60 61 62 63 64 66 67 68 70 70 70 70 70 70 70 70 70 70 71 70 71 71 71 72 71 72
30 32 36 34 29 30 26 26 17 16 17 19 33 46 54 58 61 59 59 59 61 61 62 64 64 66 66 68 70 70 70 69 70 71 70 71 72 71 71 71 71 70 70 71
35 38 40 36 39 32 26 31 30 19 21 22 43 49 49 51 54 59 59 60 61 61 62 63 63 63 63 64 67 68 71 71 71 71 71 71 71 71 71 71 71 71 70 70
36 42 41 42 39 31 39 36 34 37 25 43 44 50 51 55 58 58 58 59 59 60 61 62 61 61 60 60 62 62 63 68 68 68 70 70 70 69 69 69 68 68 70 69
35 42 43 42 39 40 36 40 36 39 41 40 41 44 51 60 54 55 57 59 59 60 61 61 60 59 58 57 59 59 59 59 61 62 62 65 66 66 66 67 68 68 69 67
36 45 44 40 38 34 43 43 42 39 45 49 43 44 47 48 47 54 57 58 58 59 59 59 58 57 55 55 57 56 57 56 55 55 56 60 61 63 64 64 65 66 68 70
37 40 37 40 41 40 44 45 40 32 41 42 43 46 51 53 54 56 57 59 59 59 58 57 55 54 53 53 53 53 52 52 54 55 56 56 56 59 60 62 62 63 64 68
36 34 34 37 39 37 42 40 33 49 43 44 46 48 51 51 54 56 56 57 58 57 57 57 55 53 53 53 52 52 51 52 53 53 53 56 56 57 54 59 60 61 62 63
34 37 39 38 46 49 46 48 47 44 45 44 45 45 50 48 51 54 55 57 57 56 56 56 54 54 53 53 52 50 52 54 52 52 53 52 54 55 56 56 57 58 59 57
35 38 37 38 45 41 39 39 40 41 41 40 42 43 45 47 50 52 54 55 56 56 55 54 54 53 54 55 56 52 53 53 53 53 53 51 52 53 55 55 58 56 54 53
34 39 33 35 40 39 38 38 40 40 38 36 40 43 45 47 49 52 54 57 56 57 56 56 56 55 55 55 53 53 55 56 53 53 52 53 52 51 52 43 41 46 38 39
30 33 32 32 42 48 41 42 40 40 38 38 39 41 46 47 48 51 56 58 57 57 58 58 57 57 56 57 57 57 56 56 53 51 49 49 48 50 50 48 43 41 40 40

GFSCGP_sfc_dewp_105.txt.gz
Dewpoint
29 27 27 30 35 41 53 54 51 56 57 55 57 57 59 61 60 59 52 53 51 51 53 58 60 62 62 63 65 69 69 70 68 68 69 69 67 68 70 70 72 70 71 71
23 22 22 24 43 49 51 51 52 55 56 53 54 57 59 60 60 60 59 59 55 51 52 58 60 61 61 65 65 69 70 69 70 71 72 71 69 71 71 71 71 71 69 70
18 20 21 19 47 46 51 51 52 51 54 54 54 55 56 59 61 61 60 59 60 58 54 57 60 60 62 66 69 70 71 71 71 71 71 71 71 71 69 71 71 71 72 71
14 16 17 18 44 47 49 52 52 52 50 47 55 48 55 57 57 58 59 58 60 60 57 57 59 60 62 64 67 69 71 71 71 72 69 69 69 67 70 70 71 70 72 71
13 11 11 15 22 49 51 53 51 49 50 51 51 51 53 56 54 55 56 57 59 60 58 56 56 60 62 66 66 69 70 71 71 70 71 70 68 69 71 71 70 67 71 72
17 14 13 16 25 47 52 51 51 52 51 45 49 50 51 52 51 53 55 58 59 61 61 60 58 59 63 64 68 69 70 70 71 71 70 69 69 70 69 68 70 71 71 71
22 13 12 15 35 50 51 50 46 43 42 41 49 48 50 53 56 54 55 57 58 62 61 60 59 61 60 62 66 70 70 71 71 71 70 69 70 70 69 68 68 70 70 69
21 15 13 22 21 41 49 43 41 38 42 44 50 48 50 53 55 57 57 57 60 61 62 63 58 64 66 64 66 69 71 71 71 71 71 70 71 71 71 71 70 70 69 71
22 22 22 21 23 24 31 36 38 42 45 44 49 51 54 53 55 55 56 58 59 60 62 63 63 66 68 68 68 70 71 71 72 70 72 70 72 70 70 71 71 72 72 71
21 24 26 26 20 24 23 32 29 39 39 39 46 48 50 48 52 54 54 54 55 57 60 63 65 67 69 69 68 70 72 71 71 71 72 71 71 71 71 71 69 69 69 69
31 29 25 29 23 22 22 28 28 38 36 36 41 45 52 51 51 52 53 54 55 57 59 63 66 67 67 67 68 67 67 71 71 72 72 72 71 72 70 70 71 70 68 67
33 28 27 27 24 24 22 20 22 24 27 35 33 48 56 55 54 52 55 57 58 57 57 64 66 66 65 65 67 67 68 70 71 72 71 71 71 69 70 69 69 70 70 69
32 32 28 25 26 26 20 20 20 19 18 22 29 45 52 54 53 53 59 58 59 58 63 65 66 66 66 65 66 69 70 70 71 71 71 70 68 69 71 70 69 69 71 71
41 28 29 26 27 28 30 22 19 25 16 19 21 47 51 49 47 60 63 64 65 60 63 64 65 65 66 67 69 70 69 69 69 69 69 67 69 69 70 70 71 70 70 70
31 28 29 30 33 28 28 28 22 17 22 23 43 47 53 57 58 61 62 63 64 65 66 65 65 67 67 69 69 69 68 68 69 68 68 68 68 68 69 68 68 68 69 70
33 32 40 36 41 39 36 30 31 26 17 42 52 52 57 58 58 59 59 60 62 63 64 65 65 66 66 67 68 68 69 69 69 69 68 70 70 69 69 69 68 68 68 68
37 40 39 36 40 39 35 38 36 42 43 36 43 51 53 53 53 56 59 59 61 62 62 63 63 62 63 64 64 65 68 69 69 69 69 69 69 69 69 70 69 68 67 68
37 42 40 39 40 33 42 42 41 44 46 47 48 49 49 50 49 50 60 61 61 61 62 61 61 60 61 61 62 62 66 68 68 69 69 69 69 68 67 67 67 66 67 67
37 41 39 39 37 40 42 45 41 40 44 49 52 55 55 57 62 60 60 61 60 61 60 59 59 58 58 59 60 61 60 61 61 62 63 66 66 65 65 64 66 66 67 66
44 46 42 40 37 36 44 43 46 42 43 48 53 56 58 58 55 58 59 60 59 59 58 58 57 56 56 56 58 58 57 57 56 56 60 61 61 62 61 61 62 62 64 66
39 39 38 40 41 42 46 45 46 40 43 50 53 53 56 52 58 59 59 59 58 58 56 56 55 54 53 54 55 55 55 55 56 56 57 57 57 59 59 59 59 60 62 64
40 41 40 39 37 37 44 42 36 45 46 49 58 58 59 59 59 58 58 58 57 56 55 54 53 52 53 52 53 53 52 54 54 54 55 56 57 56 56 56 57 58 58 60
37 40 43 43 42 45 46 47 49 48 44 45 46 55 56 57 57 57 57 57 57 56 55 54 53 52 52 52 52 50 51 51 51 51 51 51 51 53 54 53 54 52 55 54
40 42 44 44 44 46 46 44 45 45 41 42 44 46 50 52 56 56 56 55 55 55 55 54 53 52 52 52 51 50 51 52 51 51 50 50 49 50 51 47 51 47 46 48
41 39 35 44 46 42 42 44 43 41 41 40 43 48 49 51 54 55 55 55 55 55 54 54 54 53 53 53 51 51 52 52 51 52 51 50 50 50 42 39 42 38 36 38
38 39 36 41 47 46 44 46 46 42 42 42 44 47 48 51 55 56 55 55 55 55 56 56 55 55 54 54 51 52 53 53 51 50 50 50 50 48 45 40 37 40 40 40

GFSCGP_sfc_dewp_108.txt.gz
Dewpoint
26 27 27 28 28 32 53 53 53 55 57 55 55 55 59 60 56 56 53 52 53 55 55 60 63 63 64 64 65 66 66 68 66 68 69 66 67 69 70 71 71 70 70 72
25 25 27 28 29 37 53 53 53 53 56 54 54 54 56 60 60 60 58 52 52 54 56 61 61 62 63 64 66 67 67 68 68 69 70 70 69 70 70 71 71 71 70 71
21 22 25 24 27 50 51 51 52 51 53 55 53 52 53 59 61 61 60 60 60 53 58 59 59 60 63 64 67 67 68 68 70 70 70 69 70 70 69 70 70 70 73 71
16 17 19 19 28 48 49 52 52 52 50 46 53 47 55 57 58 59 59 58 59 59 59 59 59 59 63 65 67 68 69 70 70 70 69 67 67 67 69 69 70 70 67 71
18 14 13 15 17 49 52 52 50 51 50 50 50 48 53 57 55 56 57 58 59 60 58 59 60 59 64 66 67 69 69 70 70 70 69 69 67 67 70 69 68 67 69 71
23 24 13 12 41 52 51 51 50 50 49 43 48 48 50 53 55 55 56 58 59 59 59 59 60 61 62 65 67 69 69 69 70 70 70 69 68 68 68 68 69 70 70 70
23 22 29 52 50 51 50 47 44 43 43 41 50 48 49 54 55 54 54 59 59 61 61 60 59 61 62 64 66 68 68 68 70 69 69 69 69 69 68 68 68 69 70 69
20 19 17 37 49 49 49 42 40 37 40 44 50 46 50 54 53 53 54 57 60 61 61 61 60 62 64 66 66 68 68 68 70 69 68 68 70 70 69 68 70 70 69 69
20 22 23 23 43 49 47 40 41 42 43 44 48 50 53 52 55 54 55 55 59 60 63 62 62 65 66 66 68 68 69 69 70 70 69 70 70 70 70 71 70 70 70 70
22 19 21 26 25 40 41 40 35 37 38 39 44 45 48 47 51 55 57 55 58 60 62 63 64 67 68 67 67 69 70 70 70 70 70 69 71 70 70 70 70 70 71 70
30 23 24 28 26 21 22 28 29 36 39 39 42 45 50 47 49 54 56 57 57 58 60 64 66 68 68 68 69 68 69 70 71 70 71 70 71 71 70 69 69 69 68 67
34 28 26 26 28 25 22 21 25 23 23 36 38 44 51 51 50 54 55 56 57 57 60 65 65 65 66 67 67 68 67 69 70 70 71 71 71 71 70 70 70 69 68 66
29 27 26 26 29 30 27 26 33 21 22 28 32 42 50 55 53 52 53 58 59 59 62 65 65 64 65 65 66 67 67 68 71 70 71 71 70 69 70 69 69 69 70 70
40 27 30 25 27 30 29 30 29 21 17 17 25 41 50 48 58 60 60 61 61 60 63 64 65 65 65 66 65 67 68 70 70 70 70 70 69 69 70 70 69 69 70 69
31 26 27 29 40 39 37 38 38 33 26 18 25 44 52 53 60 61 63 64 63 60 62 64 65 65 65 66 69 68 69 69 69 68 68 68 68 69 69 69 69 69 69 68
35 31 38 38 38 39 38 40 43 44 45 51 52 52 57 60 61 61 62 63 63 61 62 64 64 66 66 67 67 69 69 68 68 68 67 68 68 67 66 68 69 68 68 67
40 38 37 35 39 38 39 40 43 45 46 48 47 50 56 56 58 59 61 62 63 64 64 64 64 65 66 66 68 66 68 69 68 68 68 69 68 68 68 69 68 67 66 68
40 38 39 35 36 33 39 47 43 44 46 51 53 53 53 53 53 59 61 62 62 62 62 62 61 61 61 62 63 66 69 68 68 68 68 68 68 68 67 66 66 65 66 66
39 38 38 34 35 39 42 44 44 41 42 52 55 56 57 58 60 60 61 62 62 61 61 61 61 60 60 62 62 63 64 65 65 66 68 68 67 66 65 65 65 65 65 64
39 42 39 36 33 32 41 44 47 46 41 52 54 54 56 58 54 57 60 59 58 58 58 57 58 58 59 59 60 60 59 60 59 61 62 64 64 64 62 62 61 62 65 65
37 38 35 38 35 39 44 45 46 40 40 52 54 53 57 56 58 59 60 59 57 57 56 56 55 55 55 58 58 58 58 57 57 58 58 59 61 61 59 59 59 61 63 61
41 37 39 35 32 30 43 45 41 44 50 54 54 55 55 55 56 60 59 57 55 55 54 54 53 53 53 55 56 55 55 56 57 56 57 58 58 58 57 57 58 58 62 61
37 42 43 44 39 42 45 44 48 48 54 55 53 58 56 53 56 59 58 57 56 55 54 53 52 52 52 52 51 50 51 51 52 52 52 54 53 53 54 53 53 52 56 58
39 42 41 39 40 45 46 45 48 48 42 45 53 57 59 59 59 57 57 56 55 54 53 52 51 51 50 51 50 50 51 51 49 49 48 49 50 47 44 47 49 45 44 47
37 35 38 41 42 44 43 40 39 41 43 46 47 52 58 58 58 56 56 56 56 54 53 53 53 52 52 52 49 50 50 50 49 49 47 47 46 42 39 40 41 37 36 40
37 32 36 39 42 39 40 42 41 40 42 46 45 46 52 57 57 57 55 54 54 54 53 53 52 52 52 52 49 50 50 51 50 49 49 50 49 48 39 37 35 39 38 38

GFSCGP_sfc_dewp_111.txt.gz
Dewpoint
27 24 24 27 28 33 53 53 52 54 58 56 55 55 58 60 58 53 53 53 54 57 60 63 63 63 64 64 64 65 68 67 68 68 66 67 67 68 69 71 70 71 71 72
24 25 27 29 29 36 52 52 52 54 56 55 55 54 56 58 60 60 54 53 54 54 60 63 63 63 63 63 64 65 67 66 67 68 68 69 69 70 69 70 71 71 71 71
22 23 25 26 32 51 52 50 51 50 53 55 53 53 55 58 61 61 60 56 55 54 59 62 62 63 63 63 65 65 67 66 68 69 69 69 70 69 69 70 70 70 71 71
19 19 20 21 23 50 48 52 52 52 50 46 53 46 53 56 58 59 59 59 55 54 60 62 61 62 62 64 66 66 67 69 69 69 68 67 67 66 68 68 69 70 67 71
21 21 21 16 18 49 49 52 52 51 49 49 51 47 51 56 54 56 59 59 58 56 59 60 60 61 63 65 66 66 68 69 69 69 68 68 66 66 68 68 68 68 67 70
23 25 22 22 44 47 52 50 50 50 48 43 48 48 48 53 53 54 58 59 60 57 58 59 59 60 63 65 66 68 68 69 69 68 68 68 67 67 68 68 68 68 69 70
23 25 51 51 50 51 50 45 39 38 40 41 49 47 47 52 57 56 58 60 59 61 59 59 59 60 64 65 67 68 68 68 69 68 68 68 68 68 68 68 68 68 69 69
21 18 46 50 49 47 48 42 37 33 38 42 50 46 48 53 56 59 58 59 60 61 59 60 60 61 63 65 66 67 67 67 69 68 68 69 69 69 68 68 68 69 69 69
20 21 23 46 49 48 47 41 41 42 41 41 46 50 52 52 51 54 56 55 59 61 62 60 60 62 64 64 66 67 67 67 69 68 68 68 69 69 69 69 69 69 69 69
27 21 21 24 46 48 43 43 38 40 38 35 43 46 46 50 52 55 54 55 57 60 63 62 61 63 65 66 67 68 68 67 69 69 68 68 69 69 69 70 69 69 69 70
30 21 21 27 25 36 28 34 32 37 39 39 39 42 49 45 48 54 54 54 57 59 62 64 64 65 66 68 68 69 69 69 69 70 69 69 69 69 70 70 69 69 69 68
32 28 27 24 28 28 24 30 30 28 24 39 39 40 53 50 50 55 57 56 57 58 61 64 66 67 67 67 68 68 68 70 70 70 70 70 70 70 70 69 69 69 68 67
30 26 25 27 31 32 28 32 31 22 24 31 32 35 53 52 52 55 56 58 59 60 63 65 66 66 66 66 66 66 67 67 69 70 70 70 70 70 70 69 69 69 68 68
41 28 28 28 28 32 35 39 38 18 17 19 27 24 48 52 56 54 56 57 59 61 62 64 65 64 65 66 66 66 67 68 69 70 70 70 70 70 70 70 69 68 69 68
34 28 28 29 40 39 41 43 44 40 41 18 20 23 45 55 58 59 59 60 59 61 62 64 64 64 64 65 66 66 68 69 70 70 68 69 70 71 70 70 69 69 69 69
36 35 38 37 39 39 39 41 44 45 47 45 50 50 58 60 61 61 61 61 59 60 60 62 63 64 65 66 67 67 68 68 68 68 69 69 69 69 68 68 68 69 68 68
40 36 36 34 38 35 34 40 43 44 49 50 46 51 53 54 57 58 61 62 62 62 63 64 64 65 65 66 67 67 68 68 67 67 68 68 68 67 67 67 68 68 68 68
38 37 38 34 36 31 36 45 45 43 47 53 54 53 53 58 60 61 62 62 62 62 62 62 62 62 62 64 65 66 68 68 68 67 67 67 67 68 68 68 67 66 67 63
39 39 36 33 33 37 42 43 42 40 41 53 54 55 58 60 59 59 61 61 60 61 61 61 61 60 61 62 62 65 65 66 67 67 68 67 68 67 66 65 64 65 64 60
40 39 37 35 31 32 40 43 47 46 40 53 55 57 57 57 53 56 59 58 58 57 57 59 60 60 60 61 62 62 64 65 65 66 67 67 66 65 64 64 64 64 63 61
36 37 35 37 33 36 41 45 46 37 38 52 55 57 57 56 57 59 59 57 56 56 56 56 56 56 58 60 60 59 59 59 61 62 62 63 63 63 63 62 63 64 63 59
37 36 35 34 31 28 43 44 39 42 51 52 53 56 55 58 59 58 57 56 55 54 54 54 54 54 55 56 57 57 56 58 60 61 61 60 60 61 58 58 60 62 61 59
39 39 39 40 38 41 44 45 46 50 53 54 56 54 54 55 58 58 57 56 54 54 53 53 53 52 53 53 54 53 52 54 55 55 55 56 55 55 55 55 52 55 60 60
38 43 41 38 41 43 46 47 48 50 50 53 57 55 54 57 59 57 56 55 54 54 53 52 52 51 51 51 50 49 50 49 48 48 48 50 51 45 45 47 48 47 48 48
39 39 40 40 43 45 45 42 43 47 50 52 56 58 59 59 57 56 55 55 54 52 51 50 50 49 49 49 49 50 50 48 47 46 46 46 46 41 41 39 39 38 36 41
37 32 38 37 41 40 41 41 44 46 47 49 51 52 57 59 57 56 55 55 54 53 53 53 52 52 51 48 48 48 48 48 48 47 48 49 47 41 39 38 35 39 38 38

GFSCGP_sfc_dewp_114.txt.gz
Dewpoint
27 23 24 28 27 36 52 52 52 54 57 55 54 54 58 58 60 57 54 54 56 58 61 62 63 63 65 65 65 66 68 69 68 68 68 68 68 69 70 71 72 72 71 72
24 24 25 28 29 35 53 52 52 54 56 54 55 54 57 58 59 60 56 54 56 59 61 62 62 63 64 64 65 67 68 68 68 68 68 69 69 70 70 72 72 72 72 72
23 24 27 27 43 48 51 49 51 50 54 55 54 52 55 58 60 61 60 56 56 58 60 61 63 62 64 64 64 66 68 68 69 69 69 70 70 70 70 71 71 72 72 72
22 20 21 22 23 46 46 51 51 53 50 46 54 45 53 55 57 59 60 57 54 56 60 62 63 63 63 64 65 66 68 67 69 70 69 69 68 67 69 70 71 71 70 72
19 22 21 18 18 45 42 53 52 51 48 49 51 47 50 55 54 56 59 59 55 55 59 62 62 63 63 64 66 66 68 68 69 69 69 68 68 68 70 70 70 70 70 71
23 25 23 24 44 45 52 50 49 48 47 42 48 47 47 52 52 54 57 59 58 55 59 62 62 63 63 65 66 66 68 68 69 69 68 68 68 68 69 69 69 70 70 71
23 25 49 51 49 50 49 43 38 37 39 39 48 46 47 54 57 56 58 59 59 56 59 61 61 61 63 65 66 67 67 68 69 68 68 68 68 68 69 69 69 69 70 71
20 18 48 50 49 48 47 40 37 30 35 39 49 44 47 51 54 56 56 59 60 59 58 60 60 61 63 64 66 67 67 68 69 69 68 69 69 69 69 69 70 70 70 70
20 20 27 49 50 48 47 42 43 40 39 40 45 48 50 53 55 58 58 59 60 61 60 60 60 61 64 65 66 67 67 67 68 69 69 69 70 69 69 70 70 70 71 70
29 23 24 27 48 48 45 46 40 41 34 34 41 44 45 50 52 57 58 58 59 61 61 60 61 62 64 66 67 67 68 67 68 69 68 69 69 70 70 71 70 70 70 70
30 22 22 27 33 43 33 39 37 39 40 37 36 38 48 49 51 56 56 57 57 59 62 61 62 63 64 65 67 67 68 67 68 69 69 69 69 70 70 70 70 70 71 71
33 27 26 26 27 31 32 37 34 32 27 39 37 38 52 50 50 54 54 55 57 58 60 63 62 64 65 66 67 67 68 68 69 70 70 70 70 71 70 70 70 70 70 69
30 26 27 25 30 36 32 38 32 25 29 36 32 32 53 52 53 56 56 57 58 59 61 64 64 65 66 67 68 68 68 69 70 70 70 70 70 70 70 70 70 70 69 69
38 28 28 27 30 35 38 42 44 19 19 22 31 26 50 52 54 56 58 59 59 61 63 64 65 65 66 67 68 68 68 69 70 70 70 70 70 70 69 70 70 70 69 70
32 27 32 30 38 41 42 42 44 39 41 21 35 45 53 56 58 56 58 59 60 61 63 64 64 65 66 66 66 67 67 68 69 69 70 69 70 70 70 70 70 70 70 70
39 31 39 38 38 39 38 41 44 46 49 47 48 48 57 59 61 61 60 59 60 61 61 62 64 64 64 65 66 67 68 68 69 69 68 69 70 69 69 69 69 69 69 69
39 39 34 32 38 36 36 39 42 45 48 49 47 49 54 56 58 60 61 61 60 63 63 64 64 64 65 66 66 66 67 68 68 68 68 68 69 69 69 69 68 68 68 68
36 38 40 35 36 31 38 45 44 43 46 52 53 53 57 58 59 60 61 61 62 63 63 63 63 64 63 64 67 68 68 68 67 67 68 68 68 68 68 68 68 68 68 66
38 39 36 34 34 36 42 45 42 40 41 51 53 55 58 59 58 58 60 60 60 60 60 61 61 61 62 63 65 66 67 67 67 66 67 68 68 68 68 68 67 67 65 61
40 39 36 35 30 31 39 44 46 44 41 50 55 56 58 57 52 57 59 58 57 58 58 59 60 60 60 61 64 66 65 66 66 66 66 68 68 68 66 66 66 66 63 60
35 37 33 35 32 35 40 45 47 39 39 53 56 57 56 54 55 59 58 57 56 56 56 57 57 56 58 60 61 61 60 59 62 63 63 63 65 65 65 65 66 66 62 58
35 35 34 34 31 27 44 45 41 43 53 54 55 57 56 57 57 57 56 55 56 55 55 55 55 55 57 59 58 56 56 59 61 61 60 60 60 61 63 63 63 64 62 59
37 37 37 37 36 40 43 44 47 51 53 53 55 54 58 57 57 56 55 55 55 54 54 54 53 53 53 55 56 55 56 56 57 57 57 58 58 59 58 58 59 61 60 58
39 43 41 38 41 43 46 47 50 53 53 55 55 54 55 57 57 56 55 55 54 54 54 53 53 52 51 50 50 50 50 51 49 50 53 54 55 53 52 53 51 57 55 57
39 41 39 39 43 46 46 47 46 50 54 57 55 55 57 58 56 55 54 54 54 53 52 50 50 50 50 51 51 50 50 49 47 47 47 46 43 43 41 39 42 41 38 43
37 38 39 37 42 41 41 44 50 51 53 56 56 58 59 58 56 56 55 54 53 52 52 52 52 52 50 50 50 50 50 50 48 47 48 48 45 42 42 41 39 39 38 38

GFSCGP_sfc_dewp_117.txt.gz
Dewpoint
26 28 32 28 29 36 42 48 50 54 57 55 53 54 57 59 58 57 58 59 59 59 61 62 64 64 65 66 67 69 69 71 71 70 70 69 74 70 70 70 73 73 73 74
26 28 26 28 29 41 44 46 51 54 56 54 54 52 57 59 58 57 57 59 57 59 60 62 63 63 64 66 68 69 70 72 71 70 71 70 71 70 70 72 74 74 73 74
25 25 26 27 38 41 45 39 50 49 54 54 52 51 54 59 59 60 60 58 56 57 59 61 63 63 64 66 67 69 71 72 72 72 71 72 72 75 71 72 72 73 73 74
25 22 22 23 22 33 33 47 49 53 51 47 53 46 52 56 58 58 58 58 56 56 59 61 62 62 64 65 67 69 71 72 72 72 71 73 69 68 73 77 75 72 73 74
23 20 22 21 20 29 28 50 51 52 50 49 50 49 49 54 54 56 57 56 58 56 58 60 61 62 63 65 66 68 71 72 72 72 72 69 74 69 72 72 74 73 73 73
23 24 23 23 45 34 52 50 50 50 49 45 45 47 46 52 52 54 55 55 56 57 57 60 61 63 63 64 65 66 69 71 72 72 72 72 73 73 70 73 70 72 71 70
24 23 40 49 46 49 49 45 40 40 43 38 49 48 47 51 52 53 53 55 57 57 57 59 62 63 64 64 65 66 68 70 71 71 71 72 72 72 73 73 75 73 75 73
23 18 44 48 43 42 45 37 25 27 34 40 49 46 45 50 52 53 54 56 59 57 56 59 61 63 64 64 66 66 67 69 71 71 72 72 72 69 69 72 73 70 70 70
22 22 30 49 49 46 46 42 39 40 44 43 46 47 48 51 52 55 56 57 59 58 57 59 61 63 64 65 66 66 67 68 70 70 71 72 72 72 70 72 72 70 72 71
28 27 26 35 49 48 46 45 42 45 34 32 39 44 44 50 52 54 55 58 58 59 59 59 61 62 64 65 67 67 68 68 69 70 70 70 71 73 73 72 73 73 72 73
29 27 27 28 38 37 42 41 42 43 43 32 33 33 47 50 52 55 56 58 58 60 60 61 62 63 64 66 66 68 69 69 69 70 71 71 71 71 73 73 73 73 73 73
31 28 27 26 28 30 40 39 38 34 35 39 39 32 53 52 51 56 57 58 59 61 61 61 63 64 64 65 66 67 69 69 70 70 72 72 72 72 72 73 73 73 73 72
32 29 25 25 30 35 35 41 36 29 34 36 30 28 50 53 52 55 57 59 59 60 63 63 64 65 65 65 66 68 69 70 70 71 71 72 72 72 73 73 73 73 73 72
39 29 30 22 30 36 40 41 44 36 27 29 29 32 41 54 56 55 58 58 59 60 62 65 64 64 66 68 68 68 70 70 71 71 71 71 72 72 72 73 72 71 72 73
34 31 31 31 37 39 39 40 44 39 43 27 31 44 53 56 59 59 58 59 60 61 61 64 65 66 66 67 69 70 70 70 71 71 71 71 74 73 73 72 72 71 71 71
39 34 37 36 37 35 38 38 43 47 48 48 47 48 56 59 61 59 58 59 60 62 62 64 65 66 66 66 68 68 70 70 71 71 71 73 72 71 72 71 72 71 71 70
41 40 37 31 34 35 36 38 38 44 48 49 45 51 55 57 59 60 59 59 61 61 62 64 65 65 66 66 67 67 68 69 70 70 71 71 70 70 70 70 71 71 70 69
39 42 43 35 36 31 36 44 42 41 44 49 53 53 57 58 59 60 62 61 62 62 63 64 66 66 67 68 68 67 68 68 68 68 68 69 68 68 69 69 69 69 69 69
40 41 38 37 37 35 40 42 42 39 37 47 53 55 57 59 58 59 60 61 61 61 61 61 63 63 65 66 69 68 68 68 68 67 68 68 69 68 68 68 68 69 69 67
41 43 36 37 33 29 38 42 44 44 39 46 55 56 57 57 52 56 58 59 59 60 60 60 60 61 62 62 64 67 67 68 68 67 67 68 68 68 68 68 68 67 67 64
37 39 36 39 37 35 40 43 46 39 40 51 55 56 59 57 58 59 59 58 58 59 58 58 59 58 60 61 63 63 64 63 65 65 65 65 64 66 67 66 67 65 62 61
39 41 43 38 38 32 43 43 43 45 51 54 58 58 58 58 59 58 58 58 57 57 57 57 58 57 58 59 59 58 59 61 62 63 63 63 62 62 62 64 66 63 61 59
42 40 44 42 39 44 46 46 48 51 53 55 58 59 58 58 57 57 57 58 58 57 57 56 55 55 55 57 57 55 56 58 59 59 59 58 60 59 58 61 63 63 63 61
43 44 43 42 44 46 47 49 50 54 53 57 58 58 57 56 56 57 57 57 57 57 56 56 55 52 52 52 52 53 54 55 55 54 55 56 54 55 55 55 58 60 61 60
41 45 44 42 45 47 47 50 48 53 56 55 56 57 57 56 56 56 57 57 57 56 53 53 54 53 53 52 52 51 52 52 50 50 48 46 46 48 49 49 50 53 47 49
42 45 40 34 48 49 48 47 52 55 56 55 55 56 58 57 56 55 55 55 54 53 54 53 52 52 51 50 50 52 52 51 49 47 46 45 44 44 44 43 41 40 40 41

GFSCGP_sfc_dewp_120.txt.gz
Dewpoint
20 21 25 31 34 33 36 38 40 53 57 55 54 55 58 59 59 58 56 56 53 55 58 61 62 62 62 64 66 68 69 72 70 69 67 66 66 68 67 68 72 72 72 73
21 17 25 31 31 34 35 36 41 53 56 55 53 54 54 59 58 58 57 59 55 53 56 60 62 62 62 64 66 69 70 72 72 70 71 67 67 67 67 68 71 71 72 73
14 21 28 29 30 31 34 33 35 44 54 54 52 51 53 57 59 59 58 59 57 54 55 59 61 62 62 64 66 68 70 72 72 72 70 70 75 71 71 69 68 70 72 72
20 24 25 27 26 28 27 34 35 49 47 43 51 38 52 55 59 58 58 57 57 54 56 57 60 62 62 63 66 67 70 72 72 72 73 73 68 64 70 70 70 72 71 71
21 22 22 21 20 22 23 34 36 46 45 45 47 44 41 52 56 57 58 57 56 54 54 56 58 61 62 63 65 67 70 73 72 73 74 68 68 65 66 67 71 72 74 72
22 21 21 20 26 23 34 38 44 47 46 37 36 43 39 49 52 54 56 57 57 56 55 57 58 60 62 63 64 66 70 72 72 74 72 72 70 69 68 69 67 69 68 68
20 20 19 24 27 30 37 33 31 32 33 30 44 41 42 45 50 52 54 56 57 57 56 56 58 59 62 63 64 66 69 71 71 72 72 71 70 71 70 70 67 70 67 67
18 18 22 30 29 30 34 27 23 25 21 26 46 39 40 48 48 50 55 56 57 56 56 56 58 60 62 63 65 66 68 70 70 71 71 72 72 73 68 69 71 68 68 68
21 19 27 36 36 37 33 37 29 26 26 28 30 41 44 46 47 49 50 52 52 54 56 57 57 61 63 64 65 66 68 69 69 69 71 72 73 73 69 71 75 70 76 75
27 24 24 32 42 42 42 41 32 29 29 27 26 35 38 43 47 50 52 53 55 56 57 58 58 60 63 64 65 66 67 68 68 68 69 70 71 72 72 72 75 72 72 74
28 26 26 30 35 29 39 39 38 32 32 28 29 31 41 45 50 50 52 54 56 59 59 59 59 62 63 65 65 67 67 68 68 69 70 70 70 70 71 71 73 74 75 74
28 23 24 23 28 29 27 33 32 30 32 33 31 41 48 50 51 51 52 57 57 61 61 61 61 63 64 64 65 67 68 68 68 69 71 71 71 71 70 72 72 74 74 75
28 22 23 22 24 31 29 33 36 33 34 42 30 33 46 53 51 53 55 58 59 60 62 64 65 65 65 66 66 66 68 69 69 70 70 71 71 71 71 72 72 73 73 73
39 18 20 17 25 36 36 37 39 36 29 27 28 32 34 52 55 55 56 58 60 62 63 64 64 64 66 66 66 67 68 69 70 70 71 71 71 71 71 72 73 73 74 73
33 28 23 21 22 31 34 35 37 36 36 34 28 34 40 53 57 59 58 59 59 60 61 63 64 64 66 67 68 68 69 70 70 70 70 71 72 72 74 74 74 73 73 72
34 32 31 28 25 30 31 33 34 38 40 40 41 40 54 56 59 60 57 59 59 59 60 62 65 66 66 66 68 69 69 71 71 70 70 72 74 74 74 72 74 73 72 71
35 33 35 29 27 29 27 29 32 35 38 39 38 46 52 55 58 60 59 59 60 61 62 62 65 66 68 67 68 68 70 70 71 70 70 72 73 72 73 73 73 72 72 73
35 37 33 30 35 34 29 36 35 34 35 38 40 47 55 59 59 61 62 61 62 63 64 65 65 67 67 68 69 69 69 70 70 70 70 72 71 71 72 70 70 70 71 70
33 36 31 33 34 31 32 37 39 39 35 36 39 51 57 58 60 59 61 62 61 62 63 63 64 66 68 68 68 68 68 68 68 68 69 69 70 70 69 69 69 70 70 70
34 41 35 32 35 30 39 41 42 41 37 39 44 54 57 57 54 56 59 59 59 60 61 62 62 64 65 66 69 68 67 67 68 68 69 70 70 70 68 69 68 69 69 66
35 37 32 32 35 32 38 42 44 39 42 50 52 56 58 58 58 59 59 59 59 59 59 60 60 60 61 64 67 68 68 68 68 69 67 66 67 66 68 69 68 66 62 60
35 37 36 35 37 34 40 43 42 48 52 54 56 58 59 59 59 59 58 58 58 58 58 59 58 58 59 60 61 60 61 64 66 65 65 65 65 65 66 66 63 62 61 59
41 38 44 37 39 46 48 46 48 49 53 56 58 59 59 57 57 59 58 59 59 58 57 57 56 55 55 57 58 57 58 61 61 60 59 61 62 62 62 64 64 61 61 59
42 44 39 42 44 45 48 48 49 54 55 58 58 58 55 56 57 58 58 58 58 58 58 56 56 55 53 54 55 56 56 56 56 56 56 55 58 58 59 59 60 61 62 61
41 45 38 37 43 47 48 52 53 54 57 57 55 54 54 56 56 57 57 58 58 56 56 57 56 54 53 53 53 53 54 54 51 50 49 50 52 51 50 49 52 53 49 52
42 40 34 34 40 49 49 51 54 56 55 56 55 55 54 55 55 55 54 53 53 52 53 53 51 50 50 51 52 53 52 52 49 46 44 44 46 46 46 46 42 40 46 47